<?xml version="1.0" encoding="UTF-8" standalone="no" ?>
<gpx xmlns="http://www.topografix.com/GPX/1/1" xmlns:xsi="http://www.w3.org/2001/XMLSchema-instance" xsi:schemaLocation="http://www.topografix.com/GPX/1/1 http://www.topografix.com/GPX/1/1/gpx.xsd" version="1.1" creator="VisuGPX - https://www.visugpx.com">
  <metadata>
    <name>Laugnac</name>
    <desc><![CDATA[Circuit vtt ffc (8) de laugnac, un peu rallongé...
]]></desc>
  </metadata>
  <trk>
    <name><![CDATA[22-JUIL-12 12:04:10]]></name>
    <trkseg>
      <trkpt lat="44.30646" lon="0.60528">
        <ele>178.94</ele>
        <time>2012-07-22T06:49:41Z</time>
      </trkpt>
      <trkpt lat="44.30644" lon="0.60528">
        <ele>179.42</ele>
        <time>2012-07-22T06:49:47Z</time>
      </trkpt>
      <trkpt lat="44.30644" lon="0.60528">
        <ele>182.79</ele>
        <time>2012-07-22T06:49:48Z</time>
      </trkpt>
      <trkpt lat="44.30644" lon="0.60528">
        <ele>182.31</ele>
        <time>2012-07-22T06:49:49Z</time>
      </trkpt>
      <trkpt lat="44.30643" lon="0.60528">
        <ele>185.19</ele>
        <time>2012-07-22T06:49:53Z</time>
      </trkpt>
      <trkpt lat="44.30642" lon="0.60529">
        <ele>184.71</ele>
        <time>2012-07-22T06:49:54Z</time>
      </trkpt>
      <trkpt lat="44.30641" lon="0.60528">
        <ele>188.08</ele>
        <time>2012-07-22T06:50:03Z</time>
      </trkpt>
      <trkpt lat="44.3064" lon="0.60526">
        <ele>191.44</ele>
        <time>2012-07-22T06:50:14Z</time>
      </trkpt>
      <trkpt lat="44.30639" lon="0.60526">
        <ele>192.88</ele>
        <time>2012-07-22T06:50:21Z</time>
      </trkpt>
      <trkpt lat="44.3064" lon="0.60525">
        <ele>196.25</ele>
        <time>2012-07-22T06:50:41Z</time>
      </trkpt>
      <trkpt lat="44.30642" lon="0.60526">
        <ele>197.21</ele>
        <time>2012-07-22T06:51:01Z</time>
      </trkpt>
      <trkpt lat="44.30641" lon="0.60527">
        <ele>197.21</ele>
        <time>2012-07-22T06:51:15Z</time>
      </trkpt>
      <trkpt lat="44.30641" lon="0.60527">
        <ele>197.69</ele>
        <time>2012-07-22T06:51:40Z</time>
      </trkpt>
      <trkpt lat="44.3064" lon="0.60526">
        <ele>197.21</ele>
        <time>2012-07-22T06:52:08Z</time>
      </trkpt>
      <trkpt lat="44.3064" lon="0.60527">
        <ele>197.69</ele>
        <time>2012-07-22T06:52:37Z</time>
      </trkpt>
      <trkpt lat="44.30639" lon="0.60528">
        <ele>197.69</ele>
        <time>2012-07-22T06:53:06Z</time>
      </trkpt>
      <trkpt lat="44.3064" lon="0.60528">
        <ele>198.17</ele>
        <time>2012-07-22T06:53:29Z</time>
      </trkpt>
      <trkpt lat="44.30641" lon="0.60529">
        <ele>198.17</ele>
        <time>2012-07-22T06:53:52Z</time>
      </trkpt>
      <trkpt lat="44.30642" lon="0.60528">
        <ele>198.17</ele>
        <time>2012-07-22T06:54:18Z</time>
      </trkpt>
      <trkpt lat="44.30642" lon="0.60528">
        <ele>198.17</ele>
        <time>2012-07-22T06:54:45Z</time>
      </trkpt>
      <trkpt lat="44.30643" lon="0.60528">
        <ele>198.17</ele>
        <time>2012-07-22T06:55:10Z</time>
      </trkpt>
      <trkpt lat="44.30642" lon="0.60527">
        <ele>199.13</ele>
        <time>2012-07-22T06:55:40Z</time>
      </trkpt>
      <trkpt lat="44.30641" lon="0.60527">
        <ele>198.17</ele>
        <time>2012-07-22T06:56:15Z</time>
      </trkpt>
      <trkpt lat="44.30642" lon="0.60527">
        <ele>198.65</ele>
        <time>2012-07-22T06:56:44Z</time>
      </trkpt>
      <trkpt lat="44.30641" lon="0.60528">
        <ele>198.65</ele>
        <time>2012-07-22T06:57:11Z</time>
      </trkpt>
      <trkpt lat="44.30641" lon="0.60528">
        <ele>198.17</ele>
        <time>2012-07-22T06:57:14Z</time>
      </trkpt>
      <trkpt lat="44.30647" lon="0.60537">
        <ele>197.69</ele>
        <time>2012-07-22T06:57:21Z</time>
      </trkpt>
      <trkpt lat="44.3066" lon="0.60547">
        <ele>197.69</ele>
        <time>2012-07-22T06:57:25Z</time>
      </trkpt>
      <trkpt lat="44.30661" lon="0.60553">
        <ele>197.21</ele>
        <time>2012-07-22T06:57:26Z</time>
      </trkpt>
      <trkpt lat="44.30659" lon="0.60559">
        <ele>196.73</ele>
        <time>2012-07-22T06:57:27Z</time>
      </trkpt>
      <trkpt lat="44.30657" lon="0.60565">
        <ele>197.21</ele>
        <time>2012-07-22T06:57:28Z</time>
      </trkpt>
      <trkpt lat="44.30651" lon="0.60579">
        <ele>197.21</ele>
        <time>2012-07-22T06:57:31Z</time>
      </trkpt>
      <trkpt lat="44.30649" lon="0.60584">
        <ele>196.73</ele>
        <time>2012-07-22T06:57:32Z</time>
      </trkpt>
      <trkpt lat="44.30648" lon="0.60589">
        <ele>196.73</ele>
        <time>2012-07-22T06:57:33Z</time>
      </trkpt>
      <trkpt lat="44.30646" lon="0.60593">
        <ele>197.21</ele>
        <time>2012-07-22T06:57:34Z</time>
      </trkpt>
      <trkpt lat="44.30645" lon="0.60596">
        <ele>197.21</ele>
        <time>2012-07-22T06:57:35Z</time>
      </trkpt>
      <trkpt lat="44.30644" lon="0.60598">
        <ele>197.69</ele>
        <time>2012-07-22T06:57:36Z</time>
      </trkpt>
      <trkpt lat="44.30643" lon="0.60599">
        <ele>197.21</ele>
        <time>2012-07-22T06:57:37Z</time>
      </trkpt>
      <trkpt lat="44.30642" lon="0.60601">
        <ele>197.21</ele>
        <time>2012-07-22T06:57:47Z</time>
      </trkpt>
      <trkpt lat="44.30641" lon="0.60603">
        <ele>197.21</ele>
        <time>2012-07-22T06:57:56Z</time>
      </trkpt>
      <trkpt lat="44.30641" lon="0.60604">
        <ele>197.21</ele>
        <time>2012-07-22T06:57:57Z</time>
      </trkpt>
      <trkpt lat="44.3064" lon="0.60605">
        <ele>197.21</ele>
        <time>2012-07-22T06:57:58Z</time>
      </trkpt>
      <trkpt lat="44.30636" lon="0.60612">
        <ele>196.73</ele>
        <time>2012-07-22T06:58:11Z</time>
      </trkpt>
      <trkpt lat="44.30634" lon="0.60612">
        <ele>196.73</ele>
        <time>2012-07-22T06:58:28Z</time>
      </trkpt>
      <trkpt lat="44.30633" lon="0.60613">
        <ele>196.73</ele>
        <time>2012-07-22T06:58:47Z</time>
      </trkpt>
      <trkpt lat="44.30633" lon="0.60613">
        <ele>196.73</ele>
        <time>2012-07-22T06:58:52Z</time>
      </trkpt>
      <trkpt lat="44.3063" lon="0.60616">
        <ele>197.21</ele>
        <time>2012-07-22T06:59:03Z</time>
      </trkpt>
      <trkpt lat="44.3063" lon="0.60618">
        <ele>197.21</ele>
        <time>2012-07-22T06:59:19Z</time>
      </trkpt>
      <trkpt lat="44.30629" lon="0.60618">
        <ele>196.73</ele>
        <time>2012-07-22T06:59:43Z</time>
      </trkpt>
      <trkpt lat="44.30628" lon="0.60619">
        <ele>197.21</ele>
        <time>2012-07-22T07:00:01Z</time>
      </trkpt>
      <trkpt lat="44.30627" lon="0.60619">
        <ele>196.73</ele>
        <time>2012-07-22T07:00:20Z</time>
      </trkpt>
      <trkpt lat="44.30626" lon="0.60619">
        <ele>197.21</ele>
        <time>2012-07-22T07:00:38Z</time>
      </trkpt>
      <trkpt lat="44.30625" lon="0.6062">
        <ele>196.73</ele>
        <time>2012-07-22T07:01:01Z</time>
      </trkpt>
      <trkpt lat="44.30625" lon="0.6062">
        <ele>196.73</ele>
        <time>2012-07-22T07:01:19Z</time>
      </trkpt>
      <trkpt lat="44.30624" lon="0.6062">
        <ele>196.73</ele>
        <time>2012-07-22T07:01:45Z</time>
      </trkpt>
      <trkpt lat="44.30623" lon="0.6062">
        <ele>196.73</ele>
        <time>2012-07-22T07:02:14Z</time>
      </trkpt>
      <trkpt lat="44.30624" lon="0.60619">
        <ele>196.73</ele>
        <time>2012-07-22T07:02:36Z</time>
      </trkpt>
      <trkpt lat="44.30624" lon="0.60619">
        <ele>196.73</ele>
        <time>2012-07-22T07:02:59Z</time>
      </trkpt>
      <trkpt lat="44.30624" lon="0.60619">
        <ele>196.73</ele>
        <time>2012-07-22T07:03:28Z</time>
      </trkpt>
      <trkpt lat="44.30623" lon="0.60619">
        <ele>196.25</ele>
        <time>2012-07-22T07:04:00Z</time>
      </trkpt>
      <trkpt lat="44.30622" lon="0.60619">
        <ele>196.73</ele>
        <time>2012-07-22T07:04:08Z</time>
      </trkpt>
      <trkpt lat="44.30622" lon="0.6062">
        <ele>196.73</ele>
        <time>2012-07-22T07:04:10Z</time>
      </trkpt>
      <trkpt lat="44.30622" lon="0.60621">
        <ele>196.73</ele>
        <time>2012-07-22T07:04:11Z</time>
      </trkpt>
      <trkpt lat="44.30623" lon="0.60623">
        <ele>196.73</ele>
        <time>2012-07-22T07:04:12Z</time>
      </trkpt>
      <trkpt lat="44.30623" lon="0.60625">
        <ele>196.25</ele>
        <time>2012-07-22T07:04:13Z</time>
      </trkpt>
      <trkpt lat="44.30623" lon="0.60627">
        <ele>196.25</ele>
        <time>2012-07-22T07:04:14Z</time>
      </trkpt>
      <trkpt lat="44.30623" lon="0.60629">
        <ele>196.25</ele>
        <time>2012-07-22T07:04:15Z</time>
      </trkpt>
      <trkpt lat="44.30622" lon="0.60635">
        <ele>195.77</ele>
        <time>2012-07-22T07:04:29Z</time>
      </trkpt>
      <trkpt lat="44.30622" lon="0.60637">
        <ele>196.25</ele>
        <time>2012-07-22T07:04:30Z</time>
      </trkpt>
      <trkpt lat="44.30622" lon="0.60644">
        <ele>196.73</ele>
        <time>2012-07-22T07:04:41Z</time>
      </trkpt>
      <trkpt lat="44.3062" lon="0.60648">
        <ele>196.25</ele>
        <time>2012-07-22T07:04:47Z</time>
      </trkpt>
      <trkpt lat="44.30619" lon="0.6065">
        <ele>196.25</ele>
        <time>2012-07-22T07:04:48Z</time>
      </trkpt>
      <trkpt lat="44.30618" lon="0.60653">
        <ele>196.25</ele>
        <time>2012-07-22T07:04:49Z</time>
      </trkpt>
      <trkpt lat="44.30617" lon="0.60655">
        <ele>196.73</ele>
        <time>2012-07-22T07:04:50Z</time>
      </trkpt>
      <trkpt lat="44.30615" lon="0.60658">
        <ele>196.25</ele>
        <time>2012-07-22T07:04:51Z</time>
      </trkpt>
      <trkpt lat="44.3061" lon="0.60674">
        <ele>196.25</ele>
        <time>2012-07-22T07:04:56Z</time>
      </trkpt>
      <trkpt lat="44.30609" lon="0.60677">
        <ele>196.25</ele>
        <time>2012-07-22T07:04:57Z</time>
      </trkpt>
      <trkpt lat="44.30593" lon="0.60721">
        <ele>196.25</ele>
        <time>2012-07-22T07:05:09Z</time>
      </trkpt>
      <trkpt lat="44.30593" lon="0.60743">
        <ele>196.25</ele>
        <time>2012-07-22T07:05:14Z</time>
      </trkpt>
      <trkpt lat="44.30595" lon="0.60746">
        <ele>196.25</ele>
        <time>2012-07-22T07:05:15Z</time>
      </trkpt>
      <trkpt lat="44.30598" lon="0.60749">
        <ele>195.77</ele>
        <time>2012-07-22T07:05:16Z</time>
      </trkpt>
      <trkpt lat="44.3064" lon="0.60779">
        <ele>194.8</ele>
        <time>2012-07-22T07:05:29Z</time>
      </trkpt>
      <trkpt lat="44.30693" lon="0.60803">
        <ele>195.77</ele>
        <time>2012-07-22T07:05:45Z</time>
      </trkpt>
      <trkpt lat="44.307" lon="0.60807">
        <ele>194.8</ele>
        <time>2012-07-22T07:05:47Z</time>
      </trkpt>
      <trkpt lat="44.30705" lon="0.60809">
        <ele>194.8</ele>
        <time>2012-07-22T07:05:48Z</time>
      </trkpt>
      <trkpt lat="44.30714" lon="0.60811">
        <ele>193.84</ele>
        <time>2012-07-22T07:05:50Z</time>
      </trkpt>
      <trkpt lat="44.30719" lon="0.60812">
        <ele>193.36</ele>
        <time>2012-07-22T07:05:51Z</time>
      </trkpt>
      <trkpt lat="44.30725" lon="0.60812">
        <ele>192.4</ele>
        <time>2012-07-22T07:05:52Z</time>
      </trkpt>
      <trkpt lat="44.30737" lon="0.60812">
        <ele>191.92</ele>
        <time>2012-07-22T07:05:54Z</time>
      </trkpt>
      <trkpt lat="44.30744" lon="0.60813">
        <ele>191.44</ele>
        <time>2012-07-22T07:05:55Z</time>
      </trkpt>
      <trkpt lat="44.3075" lon="0.60814">
        <ele>191.44</ele>
        <time>2012-07-22T07:05:56Z</time>
      </trkpt>
      <trkpt lat="44.30802" lon="0.60814">
        <ele>190.48</ele>
        <time>2012-07-22T07:06:05Z</time>
      </trkpt>
      <trkpt lat="44.3086" lon="0.6082">
        <ele>188.56</ele>
        <time>2012-07-22T07:06:17Z</time>
      </trkpt>
      <trkpt lat="44.30863" lon="0.60814">
        <ele>188.08</ele>
        <time>2012-07-22T07:06:18Z</time>
      </trkpt>
      <trkpt lat="44.30871" lon="0.60788">
        <ele>184.71</ele>
        <time>2012-07-22T07:06:21Z</time>
      </trkpt>
      <trkpt lat="44.3088" lon="0.60761">
        <ele>181.35</ele>
        <time>2012-07-22T07:06:24Z</time>
      </trkpt>
      <trkpt lat="44.30883" lon="0.60756">
        <ele>180.87</ele>
        <time>2012-07-22T07:06:25Z</time>
      </trkpt>
      <trkpt lat="44.30885" lon="0.60753">
        <ele>180.38</ele>
        <time>2012-07-22T07:06:26Z</time>
      </trkpt>
      <trkpt lat="44.30888" lon="0.60754">
        <ele>179.9</ele>
        <time>2012-07-22T07:06:31Z</time>
      </trkpt>
      <trkpt lat="44.3089" lon="0.60758">
        <ele>179.42</ele>
        <time>2012-07-22T07:06:32Z</time>
      </trkpt>
      <trkpt lat="44.30892" lon="0.60763">
        <ele>178.94</ele>
        <time>2012-07-22T07:06:33Z</time>
      </trkpt>
      <trkpt lat="44.309" lon="0.60777">
        <ele>177.98</ele>
        <time>2012-07-22T07:06:35Z</time>
      </trkpt>
      <trkpt lat="44.30905" lon="0.60783">
        <ele>177.5</ele>
        <time>2012-07-22T07:06:36Z</time>
      </trkpt>
      <trkpt lat="44.3091" lon="0.60787">
        <ele>177.02</ele>
        <time>2012-07-22T07:06:37Z</time>
      </trkpt>
      <trkpt lat="44.30917" lon="0.60791">
        <ele>177.5</ele>
        <time>2012-07-22T07:06:39Z</time>
      </trkpt>
      <trkpt lat="44.30919" lon="0.60789">
        <ele>177.02</ele>
        <time>2012-07-22T07:06:40Z</time>
      </trkpt>
      <trkpt lat="44.30919" lon="0.60785">
        <ele>176.54</ele>
        <time>2012-07-22T07:06:41Z</time>
      </trkpt>
      <trkpt lat="44.30917" lon="0.60781">
        <ele>175.58</ele>
        <time>2012-07-22T07:06:42Z</time>
      </trkpt>
      <trkpt lat="44.30914" lon="0.60777">
        <ele>175.1</ele>
        <time>2012-07-22T07:06:43Z</time>
      </trkpt>
      <trkpt lat="44.30914" lon="0.6077">
        <ele>174.14</ele>
        <time>2012-07-22T07:06:44Z</time>
      </trkpt>
      <trkpt lat="44.30917" lon="0.60762">
        <ele>173.17</ele>
        <time>2012-07-22T07:06:45Z</time>
      </trkpt>
      <trkpt lat="44.3092" lon="0.60753">
        <ele>171.73</ele>
        <time>2012-07-22T07:06:46Z</time>
      </trkpt>
      <trkpt lat="44.30927" lon="0.60729">
        <ele>168.37</ele>
        <time>2012-07-22T07:06:48Z</time>
      </trkpt>
      <trkpt lat="44.30936" lon="0.60702">
        <ele>165</ele>
        <time>2012-07-22T07:06:50Z</time>
      </trkpt>
      <trkpt lat="44.30945" lon="0.60671">
        <ele>161.16</ele>
        <time>2012-07-22T07:06:52Z</time>
      </trkpt>
      <trkpt lat="44.30953" lon="0.60644">
        <ele>158.27</ele>
        <time>2012-07-22T07:06:54Z</time>
      </trkpt>
      <trkpt lat="44.30962" lon="0.60622">
        <ele>155.87</ele>
        <time>2012-07-22T07:06:56Z</time>
      </trkpt>
      <trkpt lat="44.30969" lon="0.60613">
        <ele>153.95</ele>
        <time>2012-07-22T07:06:57Z</time>
      </trkpt>
      <trkpt lat="44.30976" lon="0.60605">
        <ele>152.51</ele>
        <time>2012-07-22T07:06:58Z</time>
      </trkpt>
      <trkpt lat="44.30984" lon="0.60597">
        <ele>151.06</ele>
        <time>2012-07-22T07:06:59Z</time>
      </trkpt>
      <trkpt lat="44.30993" lon="0.6059">
        <ele>149.14</ele>
        <time>2012-07-22T07:07:00Z</time>
      </trkpt>
      <trkpt lat="44.3101" lon="0.60579">
        <ele>145.3</ele>
        <time>2012-07-22T07:07:02Z</time>
      </trkpt>
      <trkpt lat="44.31028" lon="0.60572">
        <ele>141.45</ele>
        <time>2012-07-22T07:07:04Z</time>
      </trkpt>
      <trkpt lat="44.31046" lon="0.60568">
        <ele>137.61</ele>
        <time>2012-07-22T07:07:06Z</time>
      </trkpt>
      <trkpt lat="44.31064" lon="0.60565">
        <ele>134.24</ele>
        <time>2012-07-22T07:07:08Z</time>
      </trkpt>
      <trkpt lat="44.31084" lon="0.6056">
        <ele>130.88</ele>
        <time>2012-07-22T07:07:10Z</time>
      </trkpt>
      <trkpt lat="44.31114" lon="0.60552">
        <ele>127.51</ele>
        <time>2012-07-22T07:07:13Z</time>
      </trkpt>
      <trkpt lat="44.31143" lon="0.60543">
        <ele>125.11</ele>
        <time>2012-07-22T07:07:16Z</time>
      </trkpt>
      <trkpt lat="44.31162" lon="0.60537">
        <ele>124.15</ele>
        <time>2012-07-22T07:07:18Z</time>
      </trkpt>
      <trkpt lat="44.31221" lon="0.60521">
        <ele>124.15</ele>
        <time>2012-07-22T07:07:25Z</time>
      </trkpt>
      <trkpt lat="44.31246" lon="0.60507">
        <ele>124.15</ele>
        <time>2012-07-22T07:07:29Z</time>
      </trkpt>
      <trkpt lat="44.31252" lon="0.60506">
        <ele>124.63</ele>
        <time>2012-07-22T07:07:30Z</time>
      </trkpt>
      <trkpt lat="44.31258" lon="0.60506">
        <ele>124.63</ele>
        <time>2012-07-22T07:07:31Z</time>
      </trkpt>
      <trkpt lat="44.31351" lon="0.60515">
        <ele>125.59</ele>
        <time>2012-07-22T07:07:49Z</time>
      </trkpt>
      <trkpt lat="44.31372" lon="0.60515">
        <ele>128.47</ele>
        <time>2012-07-22T07:07:58Z</time>
      </trkpt>
      <trkpt lat="44.31374" lon="0.60515">
        <ele>128.95</ele>
        <time>2012-07-22T07:07:59Z</time>
      </trkpt>
      <trkpt lat="44.31377" lon="0.60516">
        <ele>129.43</ele>
        <time>2012-07-22T07:08:01Z</time>
      </trkpt>
      <trkpt lat="44.31379" lon="0.60516">
        <ele>129.43</ele>
        <time>2012-07-22T07:08:02Z</time>
      </trkpt>
      <trkpt lat="44.31402" lon="0.60519">
        <ele>132.8</ele>
        <time>2012-07-22T07:08:13Z</time>
      </trkpt>
      <trkpt lat="44.31428" lon="0.60517">
        <ele>135.68</ele>
        <time>2012-07-22T07:08:26Z</time>
      </trkpt>
      <trkpt lat="44.31443" lon="0.60514">
        <ele>139.05</ele>
        <time>2012-07-22T07:08:34Z</time>
      </trkpt>
      <trkpt lat="44.31466" lon="0.60502">
        <ele>141.93</ele>
        <time>2012-07-22T07:08:48Z</time>
      </trkpt>
      <trkpt lat="44.31476" lon="0.60494">
        <ele>144.34</ele>
        <time>2012-07-22T07:08:56Z</time>
      </trkpt>
      <trkpt lat="44.31477" lon="0.60493">
        <ele>144.34</ele>
        <time>2012-07-22T07:08:57Z</time>
      </trkpt>
      <trkpt lat="44.31488" lon="0.60482">
        <ele>145.78</ele>
        <time>2012-07-22T07:09:06Z</time>
      </trkpt>
      <trkpt lat="44.31489" lon="0.60482">
        <ele>146.26</ele>
        <time>2012-07-22T07:09:07Z</time>
      </trkpt>
      <trkpt lat="44.3149" lon="0.60481">
        <ele>146.26</ele>
        <time>2012-07-22T07:09:08Z</time>
      </trkpt>
      <trkpt lat="44.31491" lon="0.6048">
        <ele>146.26</ele>
        <time>2012-07-22T07:09:09Z</time>
      </trkpt>
      <trkpt lat="44.31493" lon="0.60479">
        <ele>146.26</ele>
        <time>2012-07-22T07:09:10Z</time>
      </trkpt>
      <trkpt lat="44.31507" lon="0.60471">
        <ele>149.14</ele>
        <time>2012-07-22T07:09:21Z</time>
      </trkpt>
      <trkpt lat="44.31509" lon="0.6047">
        <ele>149.14</ele>
        <time>2012-07-22T07:09:22Z</time>
      </trkpt>
      <trkpt lat="44.31511" lon="0.60469">
        <ele>149.62</ele>
        <time>2012-07-22T07:09:23Z</time>
      </trkpt>
      <trkpt lat="44.31512" lon="0.60469">
        <ele>149.14</ele>
        <time>2012-07-22T07:09:24Z</time>
      </trkpt>
      <trkpt lat="44.31517" lon="0.60466">
        <ele>150.58</ele>
        <time>2012-07-22T07:09:28Z</time>
      </trkpt>
      <trkpt lat="44.31529" lon="0.60458">
        <ele>153.47</ele>
        <time>2012-07-22T07:09:39Z</time>
      </trkpt>
      <trkpt lat="44.31533" lon="0.60454">
        <ele>154.43</ele>
        <time>2012-07-22T07:09:43Z</time>
      </trkpt>
      <trkpt lat="44.31549" lon="0.60449">
        <ele>157.31</ele>
        <time>2012-07-22T07:09:57Z</time>
      </trkpt>
      <trkpt lat="44.31565" lon="0.6044">
        <ele>158.27</ele>
        <time>2012-07-22T07:10:08Z</time>
      </trkpt>
      <trkpt lat="44.31577" lon="0.60431">
        <ele>159.72</ele>
        <time>2012-07-22T07:10:16Z</time>
      </trkpt>
      <trkpt lat="44.3159" lon="0.6042">
        <ele>161.64</ele>
        <time>2012-07-22T07:10:28Z</time>
      </trkpt>
      <trkpt lat="44.31594" lon="0.60399">
        <ele>164.04</ele>
        <time>2012-07-22T07:10:42Z</time>
      </trkpt>
      <trkpt lat="44.31594" lon="0.60394">
        <ele>164.52</ele>
        <time>2012-07-22T07:10:45Z</time>
      </trkpt>
      <trkpt lat="44.31598" lon="0.60371">
        <ele>166.93</ele>
        <time>2012-07-22T07:10:59Z</time>
      </trkpt>
      <trkpt lat="44.31601" lon="0.60351">
        <ele>170.77</ele>
        <time>2012-07-22T07:11:14Z</time>
      </trkpt>
      <trkpt lat="44.31604" lon="0.60335">
        <ele>173.66</ele>
        <time>2012-07-22T07:11:25Z</time>
      </trkpt>
      <trkpt lat="44.31607" lon="0.6032">
        <ele>176.54</ele>
        <time>2012-07-22T07:11:37Z</time>
      </trkpt>
      <trkpt lat="44.31612" lon="0.6031">
        <ele>178.46</ele>
        <time>2012-07-22T07:11:44Z</time>
      </trkpt>
      <trkpt lat="44.31617" lon="0.60307">
        <ele>179.9</ele>
        <time>2012-07-22T07:11:49Z</time>
      </trkpt>
      <trkpt lat="44.31634" lon="0.60304">
        <ele>181.35</ele>
        <time>2012-07-22T07:12:02Z</time>
      </trkpt>
      <trkpt lat="44.31651" lon="0.60304">
        <ele>183.27</ele>
        <time>2012-07-22T07:12:15Z</time>
      </trkpt>
      <trkpt lat="44.31675" lon="0.60293">
        <ele>184.71</ele>
        <time>2012-07-22T07:12:28Z</time>
      </trkpt>
      <trkpt lat="44.31695" lon="0.60276">
        <ele>186.63</ele>
        <time>2012-07-22T07:12:40Z</time>
      </trkpt>
      <trkpt lat="44.31718" lon="0.60243">
        <ele>188.08</ele>
        <time>2012-07-22T07:12:55Z</time>
      </trkpt>
      <trkpt lat="44.31733" lon="0.60202">
        <ele>190</ele>
        <time>2012-07-22T07:13:10Z</time>
      </trkpt>
      <trkpt lat="44.31749" lon="0.60152">
        <ele>190.96</ele>
        <time>2012-07-22T07:13:26Z</time>
      </trkpt>
      <trkpt lat="44.31776" lon="0.60087">
        <ele>192.4</ele>
        <time>2012-07-22T07:13:43Z</time>
      </trkpt>
      <trkpt lat="44.318" lon="0.60027">
        <ele>193.84</ele>
        <time>2012-07-22T07:13:59Z</time>
      </trkpt>
      <trkpt lat="44.31825" lon="0.59961">
        <ele>194.8</ele>
        <time>2012-07-22T07:14:16Z</time>
      </trkpt>
      <trkpt lat="44.31854" lon="0.59895">
        <ele>196.25</ele>
        <time>2012-07-22T07:14:33Z</time>
      </trkpt>
      <trkpt lat="44.31878" lon="0.59835">
        <ele>197.21</ele>
        <time>2012-07-22T07:14:48Z</time>
      </trkpt>
      <trkpt lat="44.31904" lon="0.5977">
        <ele>197.69</ele>
        <time>2012-07-22T07:15:04Z</time>
      </trkpt>
      <trkpt lat="44.31922" lon="0.59718">
        <ele>201.05</ele>
        <time>2012-07-22T07:15:18Z</time>
      </trkpt>
      <trkpt lat="44.31942" lon="0.5967">
        <ele>200.57</ele>
        <time>2012-07-22T07:15:30Z</time>
      </trkpt>
      <trkpt lat="44.31972" lon="0.59615">
        <ele>200.57</ele>
        <time>2012-07-22T07:15:43Z</time>
      </trkpt>
      <trkpt lat="44.31974" lon="0.59613">
        <ele>200.57</ele>
        <time>2012-07-22T07:15:44Z</time>
      </trkpt>
      <trkpt lat="44.3198" lon="0.59615">
        <ele>200.57</ele>
        <time>2012-07-22T07:15:48Z</time>
      </trkpt>
      <trkpt lat="44.31983" lon="0.59623">
        <ele>200.09</ele>
        <time>2012-07-22T07:15:50Z</time>
      </trkpt>
      <trkpt lat="44.31994" lon="0.59632">
        <ele>199.13</ele>
        <time>2012-07-22T07:15:54Z</time>
      </trkpt>
      <trkpt lat="44.32069" lon="0.59617">
        <ele>197.69</ele>
        <time>2012-07-22T07:16:11Z</time>
      </trkpt>
      <trkpt lat="44.32074" lon="0.59616">
        <ele>197.69</ele>
        <time>2012-07-22T07:16:12Z</time>
      </trkpt>
      <trkpt lat="44.32138" lon="0.5961">
        <ele>198.17</ele>
        <time>2012-07-22T07:16:27Z</time>
      </trkpt>
      <trkpt lat="44.32173" lon="0.59605">
        <ele>198.65</ele>
        <time>2012-07-22T07:16:38Z</time>
      </trkpt>
      <trkpt lat="44.32216" lon="0.59598">
        <ele>200.09</ele>
        <time>2012-07-22T07:16:52Z</time>
      </trkpt>
      <trkpt lat="44.3226" lon="0.59583">
        <ele>202.01</ele>
        <time>2012-07-22T07:17:06Z</time>
      </trkpt>
      <trkpt lat="44.32295" lon="0.5957">
        <ele>204.42</ele>
        <time>2012-07-22T07:17:21Z</time>
      </trkpt>
      <trkpt lat="44.32328" lon="0.59548">
        <ele>207.3</ele>
        <time>2012-07-22T07:17:37Z</time>
      </trkpt>
      <trkpt lat="44.32365" lon="0.59521">
        <ele>210.19</ele>
        <time>2012-07-22T07:17:53Z</time>
      </trkpt>
      <trkpt lat="44.32398" lon="0.5951">
        <ele>211.63</ele>
        <time>2012-07-22T07:18:06Z</time>
      </trkpt>
      <trkpt lat="44.32429" lon="0.59495">
        <ele>212.11</ele>
        <time>2012-07-22T07:18:18Z</time>
      </trkpt>
      <trkpt lat="44.3246" lon="0.59482">
        <ele>213.07</ele>
        <time>2012-07-22T07:18:28Z</time>
      </trkpt>
      <trkpt lat="44.32496" lon="0.59468">
        <ele>214.51</ele>
        <time>2012-07-22T07:18:39Z</time>
      </trkpt>
      <trkpt lat="44.32518" lon="0.5945">
        <ele>217.88</ele>
        <time>2012-07-22T07:18:48Z</time>
      </trkpt>
      <trkpt lat="44.3254" lon="0.59429">
        <ele>220.76</ele>
        <time>2012-07-22T07:18:59Z</time>
      </trkpt>
      <trkpt lat="44.32549" lon="0.59425">
        <ele>221.72</ele>
        <time>2012-07-22T07:19:11Z</time>
      </trkpt>
      <trkpt lat="44.3255" lon="0.59423">
        <ele>220.76</ele>
        <time>2012-07-22T07:19:27Z</time>
      </trkpt>
      <trkpt lat="44.32552" lon="0.59422">
        <ele>221.24</ele>
        <time>2012-07-22T07:19:56Z</time>
      </trkpt>
      <trkpt lat="44.32552" lon="0.59422">
        <ele>220.76</ele>
        <time>2012-07-22T07:20:35Z</time>
      </trkpt>
      <trkpt lat="44.32552" lon="0.59422">
        <ele>220.76</ele>
        <time>2012-07-22T07:21:10Z</time>
      </trkpt>
      <trkpt lat="44.32552" lon="0.59422">
        <ele>220.76</ele>
        <time>2012-07-22T07:21:26Z</time>
      </trkpt>
      <trkpt lat="44.32557" lon="0.59437">
        <ele>220.28</ele>
        <time>2012-07-22T07:21:31Z</time>
      </trkpt>
      <trkpt lat="44.32575" lon="0.5945">
        <ele>221.24</ele>
        <time>2012-07-22T07:21:39Z</time>
      </trkpt>
      <trkpt lat="44.32603" lon="0.59476">
        <ele>222.68</ele>
        <time>2012-07-22T07:21:52Z</time>
      </trkpt>
      <trkpt lat="44.32634" lon="0.59505">
        <ele>222.2</ele>
        <time>2012-07-22T07:22:02Z</time>
      </trkpt>
      <trkpt lat="44.3264" lon="0.59512">
        <ele>222.68</ele>
        <time>2012-07-22T07:22:04Z</time>
      </trkpt>
      <trkpt lat="44.32667" lon="0.59539">
        <ele>224.12</ele>
        <time>2012-07-22T07:22:14Z</time>
      </trkpt>
      <trkpt lat="44.32718" lon="0.59577">
        <ele>226.05</ele>
        <time>2012-07-22T07:22:29Z</time>
      </trkpt>
      <trkpt lat="44.32769" lon="0.59613">
        <ele>226.53</ele>
        <time>2012-07-22T07:22:45Z</time>
      </trkpt>
      <trkpt lat="44.32821" lon="0.59619">
        <ele>227.49</ele>
        <time>2012-07-22T07:23:00Z</time>
      </trkpt>
      <trkpt lat="44.32862" lon="0.59608">
        <ele>227.01</ele>
        <time>2012-07-22T07:23:11Z</time>
      </trkpt>
      <trkpt lat="44.32918" lon="0.59599">
        <ele>227.49</ele>
        <time>2012-07-22T07:23:25Z</time>
      </trkpt>
      <trkpt lat="44.32972" lon="0.59596">
        <ele>227.97</ele>
        <time>2012-07-22T07:23:39Z</time>
      </trkpt>
      <trkpt lat="44.32982" lon="0.59599">
        <ele>227.49</ele>
        <time>2012-07-22T07:23:42Z</time>
      </trkpt>
      <trkpt lat="44.32986" lon="0.596">
        <ele>227.49</ele>
        <time>2012-07-22T07:23:43Z</time>
      </trkpt>
      <trkpt lat="44.32995" lon="0.596">
        <ele>227.49</ele>
        <time>2012-07-22T07:23:45Z</time>
      </trkpt>
      <trkpt lat="44.3304" lon="0.59589">
        <ele>226.05</ele>
        <time>2012-07-22T07:23:55Z</time>
      </trkpt>
      <trkpt lat="44.33044" lon="0.59587">
        <ele>226.53</ele>
        <time>2012-07-22T07:23:56Z</time>
      </trkpt>
      <trkpt lat="44.33058" lon="0.59576">
        <ele>225.57</ele>
        <time>2012-07-22T07:24:00Z</time>
      </trkpt>
      <trkpt lat="44.33062" lon="0.59574">
        <ele>225.57</ele>
        <time>2012-07-22T07:24:01Z</time>
      </trkpt>
      <trkpt lat="44.3307" lon="0.59569">
        <ele>225.09</ele>
        <time>2012-07-22T07:24:03Z</time>
      </trkpt>
      <trkpt lat="44.33075" lon="0.59568">
        <ele>225.09</ele>
        <time>2012-07-22T07:24:04Z</time>
      </trkpt>
      <trkpt lat="44.33081" lon="0.59568">
        <ele>224.61</ele>
        <time>2012-07-22T07:24:05Z</time>
      </trkpt>
      <trkpt lat="44.33087" lon="0.59568">
        <ele>223.64</ele>
        <time>2012-07-22T07:24:06Z</time>
      </trkpt>
      <trkpt lat="44.33094" lon="0.59568">
        <ele>222.2</ele>
        <time>2012-07-22T07:24:07Z</time>
      </trkpt>
      <trkpt lat="44.33101" lon="0.59569">
        <ele>221.72</ele>
        <time>2012-07-22T07:24:08Z</time>
      </trkpt>
      <trkpt lat="44.33109" lon="0.5957">
        <ele>219.8</ele>
        <time>2012-07-22T07:24:09Z</time>
      </trkpt>
      <trkpt lat="44.33132" lon="0.59571">
        <ele>216.43</ele>
        <time>2012-07-22T07:24:12Z</time>
      </trkpt>
      <trkpt lat="44.33145" lon="0.59572">
        <ele>215.47</ele>
        <time>2012-07-22T07:24:17Z</time>
      </trkpt>
      <trkpt lat="44.33147" lon="0.59571">
        <ele>215.47</ele>
        <time>2012-07-22T07:24:18Z</time>
      </trkpt>
      <trkpt lat="44.33148" lon="0.59568">
        <ele>214.99</ele>
        <time>2012-07-22T07:24:19Z</time>
      </trkpt>
      <trkpt lat="44.33148" lon="0.59564">
        <ele>215.47</ele>
        <time>2012-07-22T07:24:20Z</time>
      </trkpt>
      <trkpt lat="44.33147" lon="0.59559">
        <ele>215.47</ele>
        <time>2012-07-22T07:24:21Z</time>
      </trkpt>
      <trkpt lat="44.33147" lon="0.59555">
        <ele>215.47</ele>
        <time>2012-07-22T07:24:22Z</time>
      </trkpt>
      <trkpt lat="44.33133" lon="0.59479">
        <ele>213.55</ele>
        <time>2012-07-22T07:24:34Z</time>
      </trkpt>
      <trkpt lat="44.33108" lon="0.59398">
        <ele>210.19</ele>
        <time>2012-07-22T07:24:43Z</time>
      </trkpt>
      <trkpt lat="44.331" lon="0.5937">
        <ele>209.7</ele>
        <time>2012-07-22T07:24:46Z</time>
      </trkpt>
      <trkpt lat="44.33099" lon="0.5936">
        <ele>209.7</ele>
        <time>2012-07-22T07:24:47Z</time>
      </trkpt>
      <trkpt lat="44.33097" lon="0.5935">
        <ele>209.7</ele>
        <time>2012-07-22T07:24:48Z</time>
      </trkpt>
      <trkpt lat="44.33097" lon="0.5934">
        <ele>209.7</ele>
        <time>2012-07-22T07:24:49Z</time>
      </trkpt>
      <trkpt lat="44.33097" lon="0.5933">
        <ele>209.7</ele>
        <time>2012-07-22T07:24:50Z</time>
      </trkpt>
      <trkpt lat="44.33097" lon="0.59321">
        <ele>209.7</ele>
        <time>2012-07-22T07:24:51Z</time>
      </trkpt>
      <trkpt lat="44.33098" lon="0.59312">
        <ele>209.7</ele>
        <time>2012-07-22T07:24:52Z</time>
      </trkpt>
      <trkpt lat="44.331" lon="0.59303">
        <ele>209.7</ele>
        <time>2012-07-22T07:24:53Z</time>
      </trkpt>
      <trkpt lat="44.33113" lon="0.59226">
        <ele>212.59</ele>
        <time>2012-07-22T07:25:04Z</time>
      </trkpt>
      <trkpt lat="44.33115" lon="0.59221">
        <ele>212.59</ele>
        <time>2012-07-22T07:25:05Z</time>
      </trkpt>
      <trkpt lat="44.33118" lon="0.59216">
        <ele>213.07</ele>
        <time>2012-07-22T07:25:06Z</time>
      </trkpt>
      <trkpt lat="44.33121" lon="0.59211">
        <ele>213.07</ele>
        <time>2012-07-22T07:25:07Z</time>
      </trkpt>
      <trkpt lat="44.33125" lon="0.59206">
        <ele>212.59</ele>
        <time>2012-07-22T07:25:08Z</time>
      </trkpt>
      <trkpt lat="44.33129" lon="0.592">
        <ele>211.63</ele>
        <time>2012-07-22T07:25:09Z</time>
      </trkpt>
      <trkpt lat="44.33133" lon="0.59193">
        <ele>211.15</ele>
        <time>2012-07-22T07:25:10Z</time>
      </trkpt>
      <trkpt lat="44.33137" lon="0.59185">
        <ele>210.67</ele>
        <time>2012-07-22T07:25:11Z</time>
      </trkpt>
      <trkpt lat="44.33163" lon="0.59121">
        <ele>206.82</ele>
        <time>2012-07-22T07:25:18Z</time>
      </trkpt>
      <trkpt lat="44.33167" lon="0.59111">
        <ele>206.82</ele>
        <time>2012-07-22T07:25:19Z</time>
      </trkpt>
      <trkpt lat="44.33182" lon="0.59067">
        <ele>203.46</ele>
        <time>2012-07-22T07:25:23Z</time>
      </trkpt>
      <trkpt lat="44.33191" lon="0.59045">
        <ele>202.98</ele>
        <time>2012-07-22T07:25:25Z</time>
      </trkpt>
      <trkpt lat="44.33228" lon="0.58956">
        <ele>200.09</ele>
        <time>2012-07-22T07:25:33Z</time>
      </trkpt>
      <trkpt lat="44.33237" lon="0.58934">
        <ele>198.65</ele>
        <time>2012-07-22T07:25:35Z</time>
      </trkpt>
      <trkpt lat="44.33262" lon="0.58866">
        <ele>194.8</ele>
        <time>2012-07-22T07:25:41Z</time>
      </trkpt>
      <trkpt lat="44.33278" lon="0.58803">
        <ele>191.92</ele>
        <time>2012-07-22T07:25:47Z</time>
      </trkpt>
      <trkpt lat="44.33279" lon="0.58796">
        <ele>191.92</ele>
        <time>2012-07-22T07:25:48Z</time>
      </trkpt>
      <trkpt lat="44.33285" lon="0.58775">
        <ele>190</ele>
        <time>2012-07-22T07:25:53Z</time>
      </trkpt>
      <trkpt lat="44.33287" lon="0.58769">
        <ele>190</ele>
        <time>2012-07-22T07:25:54Z</time>
      </trkpt>
      <trkpt lat="44.33297" lon="0.58741">
        <ele>188.56</ele>
        <time>2012-07-22T07:26:02Z</time>
      </trkpt>
      <trkpt lat="44.33295" lon="0.58738">
        <ele>188.08</ele>
        <time>2012-07-22T07:26:05Z</time>
      </trkpt>
      <trkpt lat="44.33295" lon="0.5874">
        <ele>188.56</ele>
        <time>2012-07-22T07:26:07Z</time>
      </trkpt>
      <trkpt lat="44.33282" lon="0.58784">
        <ele>190.48</ele>
        <time>2012-07-22T07:26:19Z</time>
      </trkpt>
      <trkpt lat="44.33284" lon="0.58786">
        <ele>190.96</ele>
        <time>2012-07-22T07:26:20Z</time>
      </trkpt>
      <trkpt lat="44.33286" lon="0.58786">
        <ele>190.96</ele>
        <time>2012-07-22T07:26:21Z</time>
      </trkpt>
      <trkpt lat="44.33288" lon="0.58783">
        <ele>191.44</ele>
        <time>2012-07-22T07:26:22Z</time>
      </trkpt>
      <trkpt lat="44.33289" lon="0.5878">
        <ele>191.44</ele>
        <time>2012-07-22T07:26:23Z</time>
      </trkpt>
      <trkpt lat="44.33326" lon="0.58736">
        <ele>193.36</ele>
        <time>2012-07-22T07:26:38Z</time>
      </trkpt>
      <trkpt lat="44.33352" lon="0.58739">
        <ele>195.28</ele>
        <time>2012-07-22T07:26:47Z</time>
      </trkpt>
      <trkpt lat="44.33402" lon="0.58742">
        <ele>198.17</ele>
        <time>2012-07-22T07:27:05Z</time>
      </trkpt>
      <trkpt lat="44.33433" lon="0.58746">
        <ele>198.17</ele>
        <time>2012-07-22T07:27:14Z</time>
      </trkpt>
      <trkpt lat="44.33451" lon="0.58744">
        <ele>197.21</ele>
        <time>2012-07-22T07:27:18Z</time>
      </trkpt>
      <trkpt lat="44.33456" lon="0.58743">
        <ele>197.21</ele>
        <time>2012-07-22T07:27:19Z</time>
      </trkpt>
      <trkpt lat="44.33461" lon="0.58741">
        <ele>196.25</ele>
        <time>2012-07-22T07:27:20Z</time>
      </trkpt>
      <trkpt lat="44.3351" lon="0.58707">
        <ele>192.88</ele>
        <time>2012-07-22T07:27:29Z</time>
      </trkpt>
      <trkpt lat="44.3355" lon="0.58672">
        <ele>190</ele>
        <time>2012-07-22T07:27:36Z</time>
      </trkpt>
      <trkpt lat="44.33579" lon="0.58642">
        <ele>187.59</ele>
        <time>2012-07-22T07:27:41Z</time>
      </trkpt>
      <trkpt lat="44.33586" lon="0.58636">
        <ele>187.11</ele>
        <time>2012-07-22T07:27:42Z</time>
      </trkpt>
      <trkpt lat="44.33653" lon="0.58579">
        <ele>183.75</ele>
        <time>2012-07-22T07:27:52Z</time>
      </trkpt>
      <trkpt lat="44.33689" lon="0.5855">
        <ele>179.9</ele>
        <time>2012-07-22T07:27:57Z</time>
      </trkpt>
      <trkpt lat="44.33706" lon="0.58542">
        <ele>177.98</ele>
        <time>2012-07-22T07:27:59Z</time>
      </trkpt>
      <trkpt lat="44.33716" lon="0.58542">
        <ele>177.5</ele>
        <time>2012-07-22T07:28:00Z</time>
      </trkpt>
      <trkpt lat="44.33758" lon="0.58544">
        <ele>173.66</ele>
        <time>2012-07-22T07:28:04Z</time>
      </trkpt>
      <trkpt lat="44.33821" lon="0.58548">
        <ele>170.29</ele>
        <time>2012-07-22T07:28:10Z</time>
      </trkpt>
      <trkpt lat="44.3384" lon="0.58548">
        <ele>169.33</ele>
        <time>2012-07-22T07:28:12Z</time>
      </trkpt>
      <trkpt lat="44.33912" lon="0.58551">
        <ele>165.96</ele>
        <time>2012-07-22T07:28:20Z</time>
      </trkpt>
      <trkpt lat="44.33976" lon="0.58555">
        <ele>162.6</ele>
        <time>2012-07-22T07:28:27Z</time>
      </trkpt>
      <trkpt lat="44.34016" lon="0.58558">
        <ele>158.75</ele>
        <time>2012-07-22T07:28:32Z</time>
      </trkpt>
      <trkpt lat="44.34047" lon="0.58561">
        <ele>154.91</ele>
        <time>2012-07-22T07:28:35Z</time>
      </trkpt>
      <trkpt lat="44.34069" lon="0.58564">
        <ele>152.03</ele>
        <time>2012-07-22T07:28:37Z</time>
      </trkpt>
      <trkpt lat="44.34091" lon="0.58567">
        <ele>150.58</ele>
        <time>2012-07-22T07:28:39Z</time>
      </trkpt>
      <trkpt lat="44.34129" lon="0.58573">
        <ele>148.66</ele>
        <time>2012-07-22T07:28:44Z</time>
      </trkpt>
      <trkpt lat="44.34135" lon="0.58574">
        <ele>148.18</ele>
        <time>2012-07-22T07:28:45Z</time>
      </trkpt>
      <trkpt lat="44.34141" lon="0.58575">
        <ele>146.74</ele>
        <time>2012-07-22T07:28:46Z</time>
      </trkpt>
      <trkpt lat="44.34148" lon="0.58575">
        <ele>145.78</ele>
        <time>2012-07-22T07:28:47Z</time>
      </trkpt>
      <trkpt lat="44.34155" lon="0.58577">
        <ele>144.82</ele>
        <time>2012-07-22T07:28:48Z</time>
      </trkpt>
      <trkpt lat="44.34173" lon="0.5858">
        <ele>142.41</ele>
        <time>2012-07-22T07:28:50Z</time>
      </trkpt>
      <trkpt lat="44.34182" lon="0.58579">
        <ele>140.97</ele>
        <time>2012-07-22T07:28:51Z</time>
      </trkpt>
      <trkpt lat="44.34191" lon="0.58577">
        <ele>139.53</ele>
        <time>2012-07-22T07:28:52Z</time>
      </trkpt>
      <trkpt lat="44.34199" lon="0.58576">
        <ele>138.09</ele>
        <time>2012-07-22T07:28:53Z</time>
      </trkpt>
      <trkpt lat="44.34208" lon="0.58575">
        <ele>137.13</ele>
        <time>2012-07-22T07:28:54Z</time>
      </trkpt>
      <trkpt lat="44.34216" lon="0.58575">
        <ele>135.2</ele>
        <time>2012-07-22T07:28:55Z</time>
      </trkpt>
      <trkpt lat="44.34224" lon="0.58576">
        <ele>133.28</ele>
        <time>2012-07-22T07:28:56Z</time>
      </trkpt>
      <trkpt lat="44.34234" lon="0.58578">
        <ele>132.32</ele>
        <time>2012-07-22T07:28:57Z</time>
      </trkpt>
      <trkpt lat="44.34254" lon="0.58586">
        <ele>127.99</ele>
        <time>2012-07-22T07:28:59Z</time>
      </trkpt>
      <trkpt lat="44.34264" lon="0.58588">
        <ele>127.03</ele>
        <time>2012-07-22T07:29:00Z</time>
      </trkpt>
      <trkpt lat="44.34274" lon="0.58589">
        <ele>125.59</ele>
        <time>2012-07-22T07:29:01Z</time>
      </trkpt>
      <trkpt lat="44.3431" lon="0.58587">
        <ele>122.71</ele>
        <time>2012-07-22T07:29:05Z</time>
      </trkpt>
      <trkpt lat="44.34348" lon="0.58578">
        <ele>119.34</ele>
        <time>2012-07-22T07:29:09Z</time>
      </trkpt>
      <trkpt lat="44.34358" lon="0.58577">
        <ele>117.9</ele>
        <time>2012-07-22T07:29:10Z</time>
      </trkpt>
      <trkpt lat="44.344" lon="0.58578">
        <ele>114.53</ele>
        <time>2012-07-22T07:29:14Z</time>
      </trkpt>
      <trkpt lat="44.34438" lon="0.58577">
        <ele>112.13</ele>
        <time>2012-07-22T07:29:18Z</time>
      </trkpt>
      <trkpt lat="44.34447" lon="0.58575">
        <ele>111.17</ele>
        <time>2012-07-22T07:29:19Z</time>
      </trkpt>
      <trkpt lat="44.34493" lon="0.58559">
        <ele>106.84</ele>
        <time>2012-07-22T07:29:24Z</time>
      </trkpt>
      <trkpt lat="44.34518" lon="0.58553">
        <ele>105.4</ele>
        <time>2012-07-22T07:29:27Z</time>
      </trkpt>
      <trkpt lat="44.34523" lon="0.58552">
        <ele>105.4</ele>
        <time>2012-07-22T07:29:28Z</time>
      </trkpt>
      <trkpt lat="44.34526" lon="0.5855">
        <ele>105.4</ele>
        <time>2012-07-22T07:29:29Z</time>
      </trkpt>
      <trkpt lat="44.34527" lon="0.58549">
        <ele>104.92</ele>
        <time>2012-07-22T07:29:30Z</time>
      </trkpt>
      <trkpt lat="44.34529" lon="0.58545">
        <ele>104.92</ele>
        <time>2012-07-22T07:29:41Z</time>
      </trkpt>
      <trkpt lat="44.34528" lon="0.58544">
        <ele>105.4</ele>
        <time>2012-07-22T07:30:05Z</time>
      </trkpt>
      <trkpt lat="44.34528" lon="0.58544">
        <ele>104.44</ele>
        <time>2012-07-22T07:30:31Z</time>
      </trkpt>
      <trkpt lat="44.34535" lon="0.58526">
        <ele>103.96</ele>
        <time>2012-07-22T07:30:48Z</time>
      </trkpt>
      <trkpt lat="44.34568" lon="0.58473">
        <ele>103</ele>
        <time>2012-07-22T07:31:00Z</time>
      </trkpt>
      <trkpt lat="44.34586" lon="0.58447">
        <ele>102.52</ele>
        <time>2012-07-22T07:31:09Z</time>
      </trkpt>
      <trkpt lat="44.34599" lon="0.58417">
        <ele>103</ele>
        <time>2012-07-22T07:31:15Z</time>
      </trkpt>
      <trkpt lat="44.346" lon="0.58412">
        <ele>103</ele>
        <time>2012-07-22T07:31:16Z</time>
      </trkpt>
      <trkpt lat="44.34603" lon="0.58384">
        <ele>103.96</ele>
        <time>2012-07-22T07:31:21Z</time>
      </trkpt>
      <trkpt lat="44.34597" lon="0.58285">
        <ele>106.84</ele>
        <time>2012-07-22T07:31:40Z</time>
      </trkpt>
      <trkpt lat="44.34615" lon="0.58197">
        <ele>109.73</ele>
        <time>2012-07-22T07:31:58Z</time>
      </trkpt>
      <trkpt lat="44.34654" lon="0.58115">
        <ele>112.61</ele>
        <time>2012-07-22T07:32:17Z</time>
      </trkpt>
      <trkpt lat="44.34681" lon="0.58058">
        <ele>115.5</ele>
        <time>2012-07-22T07:32:33Z</time>
      </trkpt>
      <trkpt lat="44.34709" lon="0.58062">
        <ele>118.38</ele>
        <time>2012-07-22T07:32:47Z</time>
      </trkpt>
      <trkpt lat="44.34709" lon="0.58103">
        <ele>121.26</ele>
        <time>2012-07-22T07:33:01Z</time>
      </trkpt>
      <trkpt lat="44.34697" lon="0.58158">
        <ele>123.19</ele>
        <time>2012-07-22T07:33:17Z</time>
      </trkpt>
      <trkpt lat="44.34708" lon="0.58208">
        <ele>126.07</ele>
        <time>2012-07-22T07:33:32Z</time>
      </trkpt>
      <trkpt lat="44.3472" lon="0.58255">
        <ele>128.47</ele>
        <time>2012-07-22T07:33:46Z</time>
      </trkpt>
      <trkpt lat="44.34747" lon="0.58293">
        <ele>131.36</ele>
        <time>2012-07-22T07:34:00Z</time>
      </trkpt>
      <trkpt lat="44.34773" lon="0.58283">
        <ele>133.28</ele>
        <time>2012-07-22T07:34:11Z</time>
      </trkpt>
      <trkpt lat="44.34806" lon="0.58265">
        <ele>135.68</ele>
        <time>2012-07-22T07:34:23Z</time>
      </trkpt>
      <trkpt lat="44.34835" lon="0.58263">
        <ele>137.61</ele>
        <time>2012-07-22T07:34:33Z</time>
      </trkpt>
      <trkpt lat="44.34837" lon="0.5826">
        <ele>137.61</ele>
        <time>2012-07-22T07:34:34Z</time>
      </trkpt>
      <trkpt lat="44.34836" lon="0.58256">
        <ele>137.61</ele>
        <time>2012-07-22T07:34:35Z</time>
      </trkpt>
      <trkpt lat="44.34835" lon="0.58253">
        <ele>138.09</ele>
        <time>2012-07-22T07:34:36Z</time>
      </trkpt>
      <trkpt lat="44.34833" lon="0.5825">
        <ele>137.61</ele>
        <time>2012-07-22T07:34:37Z</time>
      </trkpt>
      <trkpt lat="44.3483" lon="0.58246">
        <ele>137.61</ele>
        <time>2012-07-22T07:34:38Z</time>
      </trkpt>
      <trkpt lat="44.34817" lon="0.58221">
        <ele>137.61</ele>
        <time>2012-07-22T07:34:44Z</time>
      </trkpt>
      <trkpt lat="44.34819" lon="0.58217">
        <ele>137.13</ele>
        <time>2012-07-22T07:34:45Z</time>
      </trkpt>
      <trkpt lat="44.34822" lon="0.58213">
        <ele>137.13</ele>
        <time>2012-07-22T07:34:46Z</time>
      </trkpt>
      <trkpt lat="44.34824" lon="0.58209">
        <ele>136.64</ele>
        <time>2012-07-22T07:34:47Z</time>
      </trkpt>
      <trkpt lat="44.34828" lon="0.58206">
        <ele>137.13</ele>
        <time>2012-07-22T07:34:48Z</time>
      </trkpt>
      <trkpt lat="44.34831" lon="0.58204">
        <ele>136.64</ele>
        <time>2012-07-22T07:34:49Z</time>
      </trkpt>
      <trkpt lat="44.34844" lon="0.58193">
        <ele>136.16</ele>
        <time>2012-07-22T07:34:53Z</time>
      </trkpt>
      <trkpt lat="44.34851" lon="0.58186">
        <ele>135.2</ele>
        <time>2012-07-22T07:34:55Z</time>
      </trkpt>
      <trkpt lat="44.34881" lon="0.58158">
        <ele>132.32</ele>
        <time>2012-07-22T07:35:02Z</time>
      </trkpt>
      <trkpt lat="44.34886" lon="0.58153">
        <ele>131.84</ele>
        <time>2012-07-22T07:35:03Z</time>
      </trkpt>
      <trkpt lat="44.34896" lon="0.58142">
        <ele>131.36</ele>
        <time>2012-07-22T07:35:05Z</time>
      </trkpt>
      <trkpt lat="44.34924" lon="0.58107">
        <ele>130.88</ele>
        <time>2012-07-22T07:35:12Z</time>
      </trkpt>
      <trkpt lat="44.34929" lon="0.58104">
        <ele>130.88</ele>
        <time>2012-07-22T07:35:13Z</time>
      </trkpt>
      <trkpt lat="44.34933" lon="0.58103">
        <ele>131.36</ele>
        <time>2012-07-22T07:35:14Z</time>
      </trkpt>
      <trkpt lat="44.34937" lon="0.58102">
        <ele>131.36</ele>
        <time>2012-07-22T07:35:15Z</time>
      </trkpt>
      <trkpt lat="44.34941" lon="0.58101">
        <ele>131.84</ele>
        <time>2012-07-22T07:35:16Z</time>
      </trkpt>
      <trkpt lat="44.34987" lon="0.58076">
        <ele>130.88</ele>
        <time>2012-07-22T07:35:28Z</time>
      </trkpt>
      <trkpt lat="44.35027" lon="0.58045">
        <ele>131.84</ele>
        <time>2012-07-22T07:35:40Z</time>
      </trkpt>
      <trkpt lat="44.3506" lon="0.58014">
        <ele>133.28</ele>
        <time>2012-07-22T07:35:53Z</time>
      </trkpt>
      <trkpt lat="44.35088" lon="0.57986">
        <ele>136.16</ele>
        <time>2012-07-22T07:36:08Z</time>
      </trkpt>
      <trkpt lat="44.35109" lon="0.57969">
        <ele>139.05</ele>
        <time>2012-07-22T07:36:21Z</time>
      </trkpt>
      <trkpt lat="44.35125" lon="0.57961">
        <ele>142.41</ele>
        <time>2012-07-22T07:36:33Z</time>
      </trkpt>
      <trkpt lat="44.35133" lon="0.57954">
        <ele>143.37</ele>
        <time>2012-07-22T07:36:40Z</time>
      </trkpt>
      <trkpt lat="44.35135" lon="0.57953">
        <ele>143.37</ele>
        <time>2012-07-22T07:36:41Z</time>
      </trkpt>
      <trkpt lat="44.35136" lon="0.57952">
        <ele>143.85</ele>
        <time>2012-07-22T07:36:42Z</time>
      </trkpt>
      <trkpt lat="44.35146" lon="0.57936">
        <ele>146.26</ele>
        <time>2012-07-22T07:36:54Z</time>
      </trkpt>
      <trkpt lat="44.35147" lon="0.57935">
        <ele>146.26</ele>
        <time>2012-07-22T07:36:55Z</time>
      </trkpt>
      <trkpt lat="44.35148" lon="0.57933">
        <ele>146.74</ele>
        <time>2012-07-22T07:36:56Z</time>
      </trkpt>
      <trkpt lat="44.35149" lon="0.57932">
        <ele>147.22</ele>
        <time>2012-07-22T07:36:57Z</time>
      </trkpt>
      <trkpt lat="44.3515" lon="0.5793">
        <ele>147.22</ele>
        <time>2012-07-22T07:36:58Z</time>
      </trkpt>
      <trkpt lat="44.35152" lon="0.57928">
        <ele>147.7</ele>
        <time>2012-07-22T07:37:00Z</time>
      </trkpt>
      <trkpt lat="44.35153" lon="0.57928">
        <ele>147.22</ele>
        <time>2012-07-22T07:37:01Z</time>
      </trkpt>
      <trkpt lat="44.35154" lon="0.57926">
        <ele>147.7</ele>
        <time>2012-07-22T07:37:02Z</time>
      </trkpt>
      <trkpt lat="44.35167" lon="0.57915">
        <ele>150.1</ele>
        <time>2012-07-22T07:37:14Z</time>
      </trkpt>
      <trkpt lat="44.35177" lon="0.57904">
        <ele>152.99</ele>
        <time>2012-07-22T07:37:25Z</time>
      </trkpt>
      <trkpt lat="44.35179" lon="0.57902">
        <ele>152.99</ele>
        <time>2012-07-22T07:37:27Z</time>
      </trkpt>
      <trkpt lat="44.3518" lon="0.57901">
        <ele>153.47</ele>
        <time>2012-07-22T07:37:28Z</time>
      </trkpt>
      <trkpt lat="44.35188" lon="0.57891">
        <ele>156.83</ele>
        <time>2012-07-22T07:37:38Z</time>
      </trkpt>
      <trkpt lat="44.35192" lon="0.57885">
        <ele>158.27</ele>
        <time>2012-07-22T07:37:47Z</time>
      </trkpt>
      <trkpt lat="44.352" lon="0.57875">
        <ele>161.16</ele>
        <time>2012-07-22T07:38:00Z</time>
      </trkpt>
      <trkpt lat="44.35207" lon="0.57868">
        <ele>162.6</ele>
        <time>2012-07-22T07:38:12Z</time>
      </trkpt>
      <trkpt lat="44.35218" lon="0.5786">
        <ele>165.96</ele>
        <time>2012-07-22T07:38:27Z</time>
      </trkpt>
      <trkpt lat="44.35226" lon="0.57853">
        <ele>167.89</ele>
        <time>2012-07-22T07:38:41Z</time>
      </trkpt>
      <trkpt lat="44.35235" lon="0.57846">
        <ele>169.81</ele>
        <time>2012-07-22T07:38:54Z</time>
      </trkpt>
      <trkpt lat="44.35245" lon="0.57836">
        <ele>172.69</ele>
        <time>2012-07-22T07:39:10Z</time>
      </trkpt>
      <trkpt lat="44.35245" lon="0.57833">
        <ele>173.66</ele>
        <time>2012-07-22T07:39:13Z</time>
      </trkpt>
      <trkpt lat="44.35246" lon="0.57826">
        <ele>175.1</ele>
        <time>2012-07-22T07:39:26Z</time>
      </trkpt>
      <trkpt lat="44.35246" lon="0.57826">
        <ele>175.1</ele>
        <time>2012-07-22T07:39:27Z</time>
      </trkpt>
      <trkpt lat="44.35248" lon="0.57828">
        <ele>175.58</ele>
        <time>2012-07-22T07:39:29Z</time>
      </trkpt>
      <trkpt lat="44.3525" lon="0.57829">
        <ele>175.58</ele>
        <time>2012-07-22T07:39:42Z</time>
      </trkpt>
      <trkpt lat="44.35249" lon="0.57829">
        <ele>175.58</ele>
        <time>2012-07-22T07:40:08Z</time>
      </trkpt>
      <trkpt lat="44.35249" lon="0.57829">
        <ele>175.58</ele>
        <time>2012-07-22T07:40:30Z</time>
      </trkpt>
      <trkpt lat="44.3525" lon="0.5783">
        <ele>175.58</ele>
        <time>2012-07-22T07:40:59Z</time>
      </trkpt>
      <trkpt lat="44.35252" lon="0.5783">
        <ele>175.1</ele>
        <time>2012-07-22T07:41:20Z</time>
      </trkpt>
      <trkpt lat="44.35253" lon="0.57831">
        <ele>176.06</ele>
        <time>2012-07-22T07:41:47Z</time>
      </trkpt>
      <trkpt lat="44.35253" lon="0.57831">
        <ele>175.58</ele>
        <time>2012-07-22T07:42:10Z</time>
      </trkpt>
      <trkpt lat="44.35256" lon="0.57832">
        <ele>176.06</ele>
        <time>2012-07-22T07:42:32Z</time>
      </trkpt>
      <trkpt lat="44.35269" lon="0.57839">
        <ele>177.5</ele>
        <time>2012-07-22T07:42:45Z</time>
      </trkpt>
      <trkpt lat="44.35284" lon="0.5785">
        <ele>179.42</ele>
        <time>2012-07-22T07:42:58Z</time>
      </trkpt>
      <trkpt lat="44.35289" lon="0.57851">
        <ele>179.42</ele>
        <time>2012-07-22T07:43:01Z</time>
      </trkpt>
      <trkpt lat="44.35291" lon="0.57853">
        <ele>179.9</ele>
        <time>2012-07-22T07:43:02Z</time>
      </trkpt>
      <trkpt lat="44.35292" lon="0.57854">
        <ele>180.38</ele>
        <time>2012-07-22T07:43:03Z</time>
      </trkpt>
      <trkpt lat="44.35293" lon="0.57855">
        <ele>180.38</ele>
        <time>2012-07-22T07:43:04Z</time>
      </trkpt>
      <trkpt lat="44.35295" lon="0.57856">
        <ele>180.38</ele>
        <time>2012-07-22T07:43:05Z</time>
      </trkpt>
      <trkpt lat="44.35311" lon="0.57867">
        <ele>182.79</ele>
        <time>2012-07-22T07:43:17Z</time>
      </trkpt>
      <trkpt lat="44.35318" lon="0.57873">
        <ele>184.23</ele>
        <time>2012-07-22T07:43:22Z</time>
      </trkpt>
      <trkpt lat="44.35335" lon="0.57891">
        <ele>186.63</ele>
        <time>2012-07-22T07:43:35Z</time>
      </trkpt>
      <trkpt lat="44.35346" lon="0.57892">
        <ele>188.56</ele>
        <time>2012-07-22T07:43:41Z</time>
      </trkpt>
      <trkpt lat="44.35347" lon="0.57893">
        <ele>188.56</ele>
        <time>2012-07-22T07:43:42Z</time>
      </trkpt>
      <trkpt lat="44.35349" lon="0.57893">
        <ele>189.04</ele>
        <time>2012-07-22T07:43:43Z</time>
      </trkpt>
      <trkpt lat="44.35349" lon="0.57892">
        <ele>189.52</ele>
        <time>2012-07-22T07:43:44Z</time>
      </trkpt>
      <trkpt lat="44.35358" lon="0.57865">
        <ele>190.96</ele>
        <time>2012-07-22T07:43:58Z</time>
      </trkpt>
      <trkpt lat="44.35379" lon="0.5785">
        <ele>193.36</ele>
        <time>2012-07-22T07:44:12Z</time>
      </trkpt>
      <trkpt lat="44.35385" lon="0.57849">
        <ele>193.84</ele>
        <time>2012-07-22T07:44:15Z</time>
      </trkpt>
      <trkpt lat="44.35387" lon="0.57849">
        <ele>194.32</ele>
        <time>2012-07-22T07:44:16Z</time>
      </trkpt>
      <trkpt lat="44.35415" lon="0.57851">
        <ele>196.25</ele>
        <time>2012-07-22T07:44:31Z</time>
      </trkpt>
      <trkpt lat="44.35419" lon="0.57854">
        <ele>196.25</ele>
        <time>2012-07-22T07:44:35Z</time>
      </trkpt>
      <trkpt lat="44.35421" lon="0.57853">
        <ele>195.77</ele>
        <time>2012-07-22T07:44:36Z</time>
      </trkpt>
      <trkpt lat="44.35422" lon="0.5785">
        <ele>195.77</ele>
        <time>2012-07-22T07:44:37Z</time>
      </trkpt>
      <trkpt lat="44.35423" lon="0.57848">
        <ele>196.25</ele>
        <time>2012-07-22T07:44:38Z</time>
      </trkpt>
      <trkpt lat="44.35424" lon="0.57846">
        <ele>196.25</ele>
        <time>2012-07-22T07:44:39Z</time>
      </trkpt>
      <trkpt lat="44.35426" lon="0.57847">
        <ele>196.73</ele>
        <time>2012-07-22T07:44:40Z</time>
      </trkpt>
      <trkpt lat="44.35428" lon="0.57847">
        <ele>196.73</ele>
        <time>2012-07-22T07:44:41Z</time>
      </trkpt>
      <trkpt lat="44.35453" lon="0.57854">
        <ele>197.69</ele>
        <time>2012-07-22T07:44:52Z</time>
      </trkpt>
      <trkpt lat="44.35472" lon="0.5786">
        <ele>196.73</ele>
        <time>2012-07-22T07:44:58Z</time>
      </trkpt>
      <trkpt lat="44.35482" lon="0.57863">
        <ele>196.25</ele>
        <time>2012-07-22T07:45:00Z</time>
      </trkpt>
      <trkpt lat="44.35507" lon="0.57866">
        <ele>194.8</ele>
        <time>2012-07-22T07:45:04Z</time>
      </trkpt>
      <trkpt lat="44.3552" lon="0.57864">
        <ele>193.36</ele>
        <time>2012-07-22T07:45:06Z</time>
      </trkpt>
      <trkpt lat="44.35542" lon="0.57834">
        <ele>190.96</ele>
        <time>2012-07-22T07:45:11Z</time>
      </trkpt>
      <trkpt lat="44.35558" lon="0.57805">
        <ele>189.04</ele>
        <time>2012-07-22T07:45:15Z</time>
      </trkpt>
      <trkpt lat="44.3557" lon="0.57792">
        <ele>188.56</ele>
        <time>2012-07-22T07:45:17Z</time>
      </trkpt>
      <trkpt lat="44.35586" lon="0.5777">
        <ele>187.11</ele>
        <time>2012-07-22T07:45:20Z</time>
      </trkpt>
      <trkpt lat="44.35611" lon="0.57731">
        <ele>185.67</ele>
        <time>2012-07-22T07:45:25Z</time>
      </trkpt>
      <trkpt lat="44.35618" lon="0.57727">
        <ele>185.67</ele>
        <time>2012-07-22T07:45:26Z</time>
      </trkpt>
      <trkpt lat="44.35632" lon="0.57717">
        <ele>185.19</ele>
        <time>2012-07-22T07:45:28Z</time>
      </trkpt>
      <trkpt lat="44.35639" lon="0.57714">
        <ele>185.19</ele>
        <time>2012-07-22T07:45:29Z</time>
      </trkpt>
      <trkpt lat="44.35645" lon="0.5771">
        <ele>184.71</ele>
        <time>2012-07-22T07:45:30Z</time>
      </trkpt>
      <trkpt lat="44.3565" lon="0.57705">
        <ele>185.19</ele>
        <time>2012-07-22T07:45:31Z</time>
      </trkpt>
      <trkpt lat="44.35652" lon="0.57699">
        <ele>187.11</ele>
        <time>2012-07-22T07:45:34Z</time>
      </trkpt>
      <trkpt lat="44.35652" lon="0.57698">
        <ele>187.11</ele>
        <time>2012-07-22T07:45:35Z</time>
      </trkpt>
      <trkpt lat="44.35653" lon="0.57685">
        <ele>189.04</ele>
        <time>2012-07-22T07:45:42Z</time>
      </trkpt>
      <trkpt lat="44.35674" lon="0.57687">
        <ele>188.08</ele>
        <time>2012-07-22T07:45:53Z</time>
      </trkpt>
      <trkpt lat="44.35733" lon="0.5771">
        <ele>185.67</ele>
        <time>2012-07-22T07:46:07Z</time>
      </trkpt>
      <trkpt lat="44.35743" lon="0.57714">
        <ele>185.19</ele>
        <time>2012-07-22T07:46:09Z</time>
      </trkpt>
      <trkpt lat="44.35748" lon="0.57716">
        <ele>185.19</ele>
        <time>2012-07-22T07:46:10Z</time>
      </trkpt>
      <trkpt lat="44.3581" lon="0.57745">
        <ele>184.71</ele>
        <time>2012-07-22T07:46:23Z</time>
      </trkpt>
      <trkpt lat="44.3581" lon="0.57743">
        <ele>184.71</ele>
        <time>2012-07-22T07:46:24Z</time>
      </trkpt>
      <trkpt lat="44.35811" lon="0.5774">
        <ele>184.71</ele>
        <time>2012-07-22T07:46:25Z</time>
      </trkpt>
      <trkpt lat="44.35808" lon="0.57685">
        <ele>187.11</ele>
        <time>2012-07-22T07:46:40Z</time>
      </trkpt>
      <trkpt lat="44.35802" lon="0.57621">
        <ele>189.52</ele>
        <time>2012-07-22T07:46:57Z</time>
      </trkpt>
      <trkpt lat="44.35791" lon="0.5755">
        <ele>191.44</ele>
        <time>2012-07-22T07:47:16Z</time>
      </trkpt>
      <trkpt lat="44.35763" lon="0.57475">
        <ele>189.52</ele>
        <time>2012-07-22T07:47:31Z</time>
      </trkpt>
      <trkpt lat="44.35739" lon="0.57435">
        <ele>187.11</ele>
        <time>2012-07-22T07:47:38Z</time>
      </trkpt>
      <trkpt lat="44.35689" lon="0.57372">
        <ele>185.19</ele>
        <time>2012-07-22T07:47:51Z</time>
      </trkpt>
      <trkpt lat="44.35685" lon="0.57368">
        <ele>184.23</ele>
        <time>2012-07-22T07:47:52Z</time>
      </trkpt>
      <trkpt lat="44.35679" lon="0.57364">
        <ele>184.23</ele>
        <time>2012-07-22T07:47:53Z</time>
      </trkpt>
      <trkpt lat="44.35616" lon="0.57331">
        <ele>181.83</ele>
        <time>2012-07-22T07:48:04Z</time>
      </trkpt>
      <trkpt lat="44.35611" lon="0.57328">
        <ele>182.79</ele>
        <time>2012-07-22T07:48:05Z</time>
      </trkpt>
      <trkpt lat="44.35554" lon="0.57293">
        <ele>185.19</ele>
        <time>2012-07-22T07:48:20Z</time>
      </trkpt>
      <trkpt lat="44.35509" lon="0.57259">
        <ele>188.08</ele>
        <time>2012-07-22T07:48:35Z</time>
      </trkpt>
      <trkpt lat="44.35478" lon="0.57228">
        <ele>190.96</ele>
        <time>2012-07-22T07:48:48Z</time>
      </trkpt>
      <trkpt lat="44.35445" lon="0.57194">
        <ele>193.84</ele>
        <time>2012-07-22T07:49:03Z</time>
      </trkpt>
      <trkpt lat="44.35409" lon="0.57165">
        <ele>195.77</ele>
        <time>2012-07-22T07:49:17Z</time>
      </trkpt>
      <trkpt lat="44.35354" lon="0.57119">
        <ele>196.25</ele>
        <time>2012-07-22T07:49:35Z</time>
      </trkpt>
      <trkpt lat="44.35304" lon="0.57089">
        <ele>195.77</ele>
        <time>2012-07-22T07:49:48Z</time>
      </trkpt>
      <trkpt lat="44.35278" lon="0.57075">
        <ele>195.77</ele>
        <time>2012-07-22T07:49:54Z</time>
      </trkpt>
      <trkpt lat="44.35274" lon="0.57073">
        <ele>195.77</ele>
        <time>2012-07-22T07:49:55Z</time>
      </trkpt>
      <trkpt lat="44.35204" lon="0.57015">
        <ele>195.28</ele>
        <time>2012-07-22T07:50:11Z</time>
      </trkpt>
      <trkpt lat="44.35156" lon="0.56963">
        <ele>196.73</ele>
        <time>2012-07-22T07:50:24Z</time>
      </trkpt>
      <trkpt lat="44.35126" lon="0.56871">
        <ele>195.77</ele>
        <time>2012-07-22T07:50:38Z</time>
      </trkpt>
      <trkpt lat="44.35109" lon="0.56746">
        <ele>196.73</ele>
        <time>2012-07-22T07:50:56Z</time>
      </trkpt>
      <trkpt lat="44.35114" lon="0.56672">
        <ele>197.21</ele>
        <time>2012-07-22T07:51:08Z</time>
      </trkpt>
      <trkpt lat="44.35112" lon="0.56668">
        <ele>197.21</ele>
        <time>2012-07-22T07:51:09Z</time>
      </trkpt>
      <trkpt lat="44.35101" lon="0.56665">
        <ele>196.73</ele>
        <time>2012-07-22T07:51:12Z</time>
      </trkpt>
      <trkpt lat="44.3509" lon="0.56659">
        <ele>195.77</ele>
        <time>2012-07-22T07:51:15Z</time>
      </trkpt>
      <trkpt lat="44.35071" lon="0.56652">
        <ele>193.36</ele>
        <time>2012-07-22T07:51:19Z</time>
      </trkpt>
      <trkpt lat="44.35043" lon="0.56642">
        <ele>190.96</ele>
        <time>2012-07-22T07:51:24Z</time>
      </trkpt>
      <trkpt lat="44.35014" lon="0.56629">
        <ele>188.08</ele>
        <time>2012-07-22T07:51:28Z</time>
      </trkpt>
      <trkpt lat="44.3498" lon="0.56598">
        <ele>184.23</ele>
        <time>2012-07-22T07:51:33Z</time>
      </trkpt>
      <trkpt lat="44.34969" lon="0.56586">
        <ele>182.79</ele>
        <time>2012-07-22T07:51:35Z</time>
      </trkpt>
      <trkpt lat="44.34959" lon="0.56576">
        <ele>181.35</ele>
        <time>2012-07-22T07:51:37Z</time>
      </trkpt>
      <trkpt lat="44.34938" lon="0.56567">
        <ele>177.02</ele>
        <time>2012-07-22T07:51:40Z</time>
      </trkpt>
      <trkpt lat="44.3493" lon="0.56565">
        <ele>176.06</ele>
        <time>2012-07-22T07:51:41Z</time>
      </trkpt>
      <trkpt lat="44.34916" lon="0.56558">
        <ele>174.14</ele>
        <time>2012-07-22T07:51:43Z</time>
      </trkpt>
      <trkpt lat="44.34896" lon="0.56538">
        <ele>170.77</ele>
        <time>2012-07-22T07:51:46Z</time>
      </trkpt>
      <trkpt lat="44.3489" lon="0.5653">
        <ele>169.81</ele>
        <time>2012-07-22T07:51:47Z</time>
      </trkpt>
      <trkpt lat="44.34884" lon="0.56522">
        <ele>168.85</ele>
        <time>2012-07-22T07:51:48Z</time>
      </trkpt>
      <trkpt lat="44.34872" lon="0.56509">
        <ele>166.45</ele>
        <time>2012-07-22T07:51:50Z</time>
      </trkpt>
      <trkpt lat="44.34858" lon="0.56499">
        <ele>164.52</ele>
        <time>2012-07-22T07:51:52Z</time>
      </trkpt>
      <trkpt lat="44.34851" lon="0.56495">
        <ele>164.04</ele>
        <time>2012-07-22T07:51:53Z</time>
      </trkpt>
      <trkpt lat="44.34832" lon="0.56476">
        <ele>160.68</ele>
        <time>2012-07-22T07:51:56Z</time>
      </trkpt>
      <trkpt lat="44.34817" lon="0.56462">
        <ele>156.35</ele>
        <time>2012-07-22T07:51:58Z</time>
      </trkpt>
      <trkpt lat="44.34798" lon="0.56441">
        <ele>151.54</ele>
        <time>2012-07-22T07:52:01Z</time>
      </trkpt>
      <trkpt lat="44.34781" lon="0.56419">
        <ele>147.22</ele>
        <time>2012-07-22T07:52:04Z</time>
      </trkpt>
      <trkpt lat="44.34771" lon="0.56405">
        <ele>143.85</ele>
        <time>2012-07-22T07:52:06Z</time>
      </trkpt>
      <trkpt lat="44.34767" lon="0.56397">
        <ele>142.89</ele>
        <time>2012-07-22T07:52:07Z</time>
      </trkpt>
      <trkpt lat="44.34763" lon="0.56387">
        <ele>141.45</ele>
        <time>2012-07-22T07:52:08Z</time>
      </trkpt>
      <trkpt lat="44.34749" lon="0.56355">
        <ele>138.09</ele>
        <time>2012-07-22T07:52:11Z</time>
      </trkpt>
      <trkpt lat="44.34733" lon="0.56333">
        <ele>137.13</ele>
        <time>2012-07-22T07:52:14Z</time>
      </trkpt>
      <trkpt lat="44.34727" lon="0.56332">
        <ele>136.16</ele>
        <time>2012-07-22T07:52:15Z</time>
      </trkpt>
      <trkpt lat="44.34707" lon="0.56329">
        <ele>134.72</ele>
        <time>2012-07-22T07:52:18Z</time>
      </trkpt>
      <trkpt lat="44.347" lon="0.56328">
        <ele>134.24</ele>
        <time>2012-07-22T07:52:19Z</time>
      </trkpt>
      <trkpt lat="44.34695" lon="0.56328">
        <ele>134.24</ele>
        <time>2012-07-22T07:52:20Z</time>
      </trkpt>
      <trkpt lat="44.3469" lon="0.56328">
        <ele>133.76</ele>
        <time>2012-07-22T07:52:21Z</time>
      </trkpt>
      <trkpt lat="44.34664" lon="0.56325">
        <ele>132.32</ele>
        <time>2012-07-22T07:52:30Z</time>
      </trkpt>
      <trkpt lat="44.34664" lon="0.56325">
        <ele>132.32</ele>
        <time>2012-07-22T07:52:44Z</time>
      </trkpt>
      <trkpt lat="44.34663" lon="0.56325">
        <ele>131.84</ele>
        <time>2012-07-22T07:53:08Z</time>
      </trkpt>
      <trkpt lat="44.3466" lon="0.56325">
        <ele>131.36</ele>
        <time>2012-07-22T07:53:09Z</time>
      </trkpt>
      <trkpt lat="44.34656" lon="0.56325">
        <ele>130.88</ele>
        <time>2012-07-22T07:53:10Z</time>
      </trkpt>
      <trkpt lat="44.34632" lon="0.56327">
        <ele>127.51</ele>
        <time>2012-07-22T07:53:14Z</time>
      </trkpt>
      <trkpt lat="44.34606" lon="0.56329">
        <ele>122.71</ele>
        <time>2012-07-22T07:53:17Z</time>
      </trkpt>
      <trkpt lat="44.34588" lon="0.5633">
        <ele>119.82</ele>
        <time>2012-07-22T07:53:19Z</time>
      </trkpt>
      <trkpt lat="44.34579" lon="0.5633">
        <ele>118.86</ele>
        <time>2012-07-22T07:53:20Z</time>
      </trkpt>
      <trkpt lat="44.34572" lon="0.56331">
        <ele>117.42</ele>
        <time>2012-07-22T07:53:21Z</time>
      </trkpt>
      <trkpt lat="44.34558" lon="0.56332">
        <ele>116.94</ele>
        <time>2012-07-22T07:53:23Z</time>
      </trkpt>
      <trkpt lat="44.34546" lon="0.56333">
        <ele>115.01</ele>
        <time>2012-07-22T07:53:25Z</time>
      </trkpt>
      <trkpt lat="44.34539" lon="0.56334">
        <ele>114.05</ele>
        <time>2012-07-22T07:53:26Z</time>
      </trkpt>
      <trkpt lat="44.3452" lon="0.56338">
        <ele>110.69</ele>
        <time>2012-07-22T07:53:28Z</time>
      </trkpt>
      <trkpt lat="44.345" lon="0.56345">
        <ele>106.36</ele>
        <time>2012-07-22T07:53:30Z</time>
      </trkpt>
      <trkpt lat="44.34475" lon="0.56354">
        <ele>103</ele>
        <time>2012-07-22T07:53:33Z</time>
      </trkpt>
      <trkpt lat="44.34467" lon="0.56356">
        <ele>102.52</ele>
        <time>2012-07-22T07:53:35Z</time>
      </trkpt>
      <trkpt lat="44.34468" lon="0.56358">
        <ele>102.04</ele>
        <time>2012-07-22T07:53:42Z</time>
      </trkpt>
      <trkpt lat="44.34469" lon="0.56356">
        <ele>102.04</ele>
        <time>2012-07-22T07:53:43Z</time>
      </trkpt>
      <trkpt lat="44.34468" lon="0.56351">
        <ele>102.52</ele>
        <time>2012-07-22T07:53:46Z</time>
      </trkpt>
      <trkpt lat="44.34469" lon="0.56348">
        <ele>102.52</ele>
        <time>2012-07-22T07:53:47Z</time>
      </trkpt>
      <trkpt lat="44.3447" lon="0.56345">
        <ele>102.52</ele>
        <time>2012-07-22T07:53:48Z</time>
      </trkpt>
      <trkpt lat="44.34489" lon="0.56282">
        <ele>103.96</ele>
        <time>2012-07-22T07:54:02Z</time>
      </trkpt>
      <trkpt lat="44.3449" lon="0.56273">
        <ele>104.44</ele>
        <time>2012-07-22T07:54:04Z</time>
      </trkpt>
      <trkpt lat="44.34488" lon="0.5627">
        <ele>104.44</ele>
        <time>2012-07-22T07:54:05Z</time>
      </trkpt>
      <trkpt lat="44.34484" lon="0.56269">
        <ele>103</ele>
        <time>2012-07-22T07:54:06Z</time>
      </trkpt>
      <trkpt lat="44.34479" lon="0.56267">
        <ele>101.56</ele>
        <time>2012-07-22T07:54:07Z</time>
      </trkpt>
      <trkpt lat="44.34472" lon="0.56265">
        <ele>100.11</ele>
        <time>2012-07-22T07:54:08Z</time>
      </trkpt>
      <trkpt lat="44.34445" lon="0.56259">
        <ele>96.27</ele>
        <time>2012-07-22T07:54:11Z</time>
      </trkpt>
      <trkpt lat="44.34426" lon="0.56257">
        <ele>92.9</ele>
        <time>2012-07-22T07:54:13Z</time>
      </trkpt>
      <trkpt lat="44.34407" lon="0.56255">
        <ele>90.02</ele>
        <time>2012-07-22T07:54:15Z</time>
      </trkpt>
      <trkpt lat="44.34387" lon="0.56254">
        <ele>86.66</ele>
        <time>2012-07-22T07:54:17Z</time>
      </trkpt>
      <trkpt lat="44.34375" lon="0.56255">
        <ele>84.73</ele>
        <time>2012-07-22T07:54:18Z</time>
      </trkpt>
      <trkpt lat="44.34364" lon="0.56257">
        <ele>83.29</ele>
        <time>2012-07-22T07:54:19Z</time>
      </trkpt>
      <trkpt lat="44.34353" lon="0.5626">
        <ele>83.29</ele>
        <time>2012-07-22T07:54:20Z</time>
      </trkpt>
      <trkpt lat="44.34277" lon="0.56284">
        <ele>82.81</ele>
        <time>2012-07-22T07:54:29Z</time>
      </trkpt>
      <trkpt lat="44.34259" lon="0.56291">
        <ele>84.25</ele>
        <time>2012-07-22T07:54:32Z</time>
      </trkpt>
      <trkpt lat="44.34257" lon="0.56294">
        <ele>85.21</ele>
        <time>2012-07-22T07:54:33Z</time>
      </trkpt>
      <trkpt lat="44.34256" lon="0.56298">
        <ele>85.21</ele>
        <time>2012-07-22T07:54:34Z</time>
      </trkpt>
      <trkpt lat="44.34257" lon="0.56302">
        <ele>85.21</ele>
        <time>2012-07-22T07:54:35Z</time>
      </trkpt>
      <trkpt lat="44.34258" lon="0.56306">
        <ele>85.21</ele>
        <time>2012-07-22T07:54:36Z</time>
      </trkpt>
      <trkpt lat="44.34259" lon="0.5631">
        <ele>85.21</ele>
        <time>2012-07-22T07:54:37Z</time>
      </trkpt>
      <trkpt lat="44.34259" lon="0.56315">
        <ele>85.21</ele>
        <time>2012-07-22T07:54:38Z</time>
      </trkpt>
      <trkpt lat="44.34259" lon="0.56319">
        <ele>85.69</ele>
        <time>2012-07-22T07:54:39Z</time>
      </trkpt>
      <trkpt lat="44.3426" lon="0.56324">
        <ele>85.21</ele>
        <time>2012-07-22T07:54:40Z</time>
      </trkpt>
      <trkpt lat="44.34268" lon="0.56367">
        <ele>84.73</ele>
        <time>2012-07-22T07:54:48Z</time>
      </trkpt>
      <trkpt lat="44.3427" lon="0.56373">
        <ele>84.25</ele>
        <time>2012-07-22T07:54:49Z</time>
      </trkpt>
      <trkpt lat="44.34272" lon="0.56385">
        <ele>84.25</ele>
        <time>2012-07-22T07:54:51Z</time>
      </trkpt>
      <trkpt lat="44.34274" lon="0.56391">
        <ele>84.25</ele>
        <time>2012-07-22T07:54:52Z</time>
      </trkpt>
      <trkpt lat="44.34276" lon="0.56398">
        <ele>84.25</ele>
        <time>2012-07-22T07:54:53Z</time>
      </trkpt>
      <trkpt lat="44.343" lon="0.56483">
        <ele>84.73</ele>
        <time>2012-07-22T07:55:08Z</time>
      </trkpt>
      <trkpt lat="44.34297" lon="0.56486">
        <ele>85.21</ele>
        <time>2012-07-22T07:55:09Z</time>
      </trkpt>
      <trkpt lat="44.34295" lon="0.56487">
        <ele>85.21</ele>
        <time>2012-07-22T07:55:10Z</time>
      </trkpt>
      <trkpt lat="44.34292" lon="0.56487">
        <ele>85.69</ele>
        <time>2012-07-22T07:55:11Z</time>
      </trkpt>
      <trkpt lat="44.3429" lon="0.56487">
        <ele>85.69</ele>
        <time>2012-07-22T07:55:12Z</time>
      </trkpt>
      <trkpt lat="44.34288" lon="0.56486">
        <ele>85.69</ele>
        <time>2012-07-22T07:55:13Z</time>
      </trkpt>
      <trkpt lat="44.34285" lon="0.56486">
        <ele>86.18</ele>
        <time>2012-07-22T07:55:14Z</time>
      </trkpt>
      <trkpt lat="44.34282" lon="0.56486">
        <ele>86.18</ele>
        <time>2012-07-22T07:55:15Z</time>
      </trkpt>
      <trkpt lat="44.34247" lon="0.56488">
        <ele>89.06</ele>
        <time>2012-07-22T07:55:28Z</time>
      </trkpt>
      <trkpt lat="44.34222" lon="0.56494">
        <ele>92.42</ele>
        <time>2012-07-22T07:55:39Z</time>
      </trkpt>
      <trkpt lat="44.34199" lon="0.56501">
        <ele>95.31</ele>
        <time>2012-07-22T07:55:50Z</time>
      </trkpt>
      <trkpt lat="44.3419" lon="0.56502">
        <ele>96.27</ele>
        <time>2012-07-22T07:55:54Z</time>
      </trkpt>
      <trkpt lat="44.34158" lon="0.56509">
        <ele>99.15</ele>
        <time>2012-07-22T07:56:08Z</time>
      </trkpt>
      <trkpt lat="44.34119" lon="0.56517">
        <ele>101.08</ele>
        <time>2012-07-22T07:56:25Z</time>
      </trkpt>
      <trkpt lat="44.34081" lon="0.56525">
        <ele>103.48</ele>
        <time>2012-07-22T07:56:41Z</time>
      </trkpt>
      <trkpt lat="44.34046" lon="0.56533">
        <ele>105.88</ele>
        <time>2012-07-22T07:56:56Z</time>
      </trkpt>
      <trkpt lat="44.34003" lon="0.56542">
        <ele>108.77</ele>
        <time>2012-07-22T07:57:15Z</time>
      </trkpt>
      <trkpt lat="44.33965" lon="0.56553">
        <ele>111.65</ele>
        <time>2012-07-22T07:57:33Z</time>
      </trkpt>
      <trkpt lat="44.33931" lon="0.56571">
        <ele>114.05</ele>
        <time>2012-07-22T07:57:49Z</time>
      </trkpt>
      <trkpt lat="44.33919" lon="0.56575">
        <ele>115.01</ele>
        <time>2012-07-22T07:57:56Z</time>
      </trkpt>
      <trkpt lat="44.33903" lon="0.56583">
        <ele>115.01</ele>
        <time>2012-07-22T07:58:08Z</time>
      </trkpt>
      <trkpt lat="44.33901" lon="0.56584">
        <ele>115.01</ele>
        <time>2012-07-22T07:58:09Z</time>
      </trkpt>
      <trkpt lat="44.33899" lon="0.56584">
        <ele>115.98</ele>
        <time>2012-07-22T07:58:10Z</time>
      </trkpt>
      <trkpt lat="44.33863" lon="0.56598">
        <ele>116.94</ele>
        <time>2012-07-22T07:58:27Z</time>
      </trkpt>
      <trkpt lat="44.33819" lon="0.56615">
        <ele>119.82</ele>
        <time>2012-07-22T07:58:47Z</time>
      </trkpt>
      <trkpt lat="44.33784" lon="0.56631">
        <ele>122.22</ele>
        <time>2012-07-22T07:59:04Z</time>
      </trkpt>
      <trkpt lat="44.33752" lon="0.56646">
        <ele>125.11</ele>
        <time>2012-07-22T07:59:20Z</time>
      </trkpt>
      <trkpt lat="44.33729" lon="0.56648">
        <ele>126.07</ele>
        <time>2012-07-22T07:59:31Z</time>
      </trkpt>
      <trkpt lat="44.33711" lon="0.56635">
        <ele>127.99</ele>
        <time>2012-07-22T07:59:41Z</time>
      </trkpt>
      <trkpt lat="44.3371" lon="0.56634">
        <ele>128.47</ele>
        <time>2012-07-22T07:59:42Z</time>
      </trkpt>
      <trkpt lat="44.33682" lon="0.5662">
        <ele>130.4</ele>
        <time>2012-07-22T07:59:57Z</time>
      </trkpt>
      <trkpt lat="44.33667" lon="0.56611">
        <ele>132.32</ele>
        <time>2012-07-22T08:00:08Z</time>
      </trkpt>
      <trkpt lat="44.33651" lon="0.56603">
        <ele>133.76</ele>
        <time>2012-07-22T08:00:20Z</time>
      </trkpt>
      <trkpt lat="44.33635" lon="0.56593">
        <ele>136.64</ele>
        <time>2012-07-22T08:00:32Z</time>
      </trkpt>
      <trkpt lat="44.33621" lon="0.56584">
        <ele>139.05</ele>
        <time>2012-07-22T08:00:45Z</time>
      </trkpt>
      <trkpt lat="44.33608" lon="0.56576">
        <ele>141.45</ele>
        <time>2012-07-22T08:00:57Z</time>
      </trkpt>
      <trkpt lat="44.33607" lon="0.56576">
        <ele>141.45</ele>
        <time>2012-07-22T08:00:58Z</time>
      </trkpt>
      <trkpt lat="44.33601" lon="0.56574">
        <ele>141.93</ele>
        <time>2012-07-22T08:01:02Z</time>
      </trkpt>
      <trkpt lat="44.3359" lon="0.56567">
        <ele>144.34</ele>
        <time>2012-07-22T08:01:12Z</time>
      </trkpt>
      <trkpt lat="44.33581" lon="0.56565">
        <ele>146.26</ele>
        <time>2012-07-22T08:01:20Z</time>
      </trkpt>
      <trkpt lat="44.33571" lon="0.5656">
        <ele>149.62</ele>
        <time>2012-07-22T08:01:33Z</time>
      </trkpt>
      <trkpt lat="44.33567" lon="0.56556">
        <ele>150.58</ele>
        <time>2012-07-22T08:01:37Z</time>
      </trkpt>
      <trkpt lat="44.33558" lon="0.56545">
        <ele>152.51</ele>
        <time>2012-07-22T08:01:51Z</time>
      </trkpt>
      <trkpt lat="44.33552" lon="0.56532">
        <ele>154.43</ele>
        <time>2012-07-22T08:02:06Z</time>
      </trkpt>
      <trkpt lat="44.33542" lon="0.56522">
        <ele>156.35</ele>
        <time>2012-07-22T08:02:18Z</time>
      </trkpt>
      <trkpt lat="44.33532" lon="0.56512">
        <ele>159.24</ele>
        <time>2012-07-22T08:02:31Z</time>
      </trkpt>
      <trkpt lat="44.33527" lon="0.56504">
        <ele>161.16</ele>
        <time>2012-07-22T08:02:43Z</time>
      </trkpt>
      <trkpt lat="44.33524" lon="0.56502">
        <ele>161.64</ele>
        <time>2012-07-22T08:02:52Z</time>
      </trkpt>
      <trkpt lat="44.3352" lon="0.56496">
        <ele>163.08</ele>
        <time>2012-07-22T08:03:02Z</time>
      </trkpt>
      <trkpt lat="44.33514" lon="0.56491">
        <ele>165</ele>
        <time>2012-07-22T08:03:08Z</time>
      </trkpt>
      <trkpt lat="44.3351" lon="0.56485">
        <ele>165.96</ele>
        <time>2012-07-22T08:03:20Z</time>
      </trkpt>
      <trkpt lat="44.3351" lon="0.56485">
        <ele>165.96</ele>
        <time>2012-07-22T08:03:30Z</time>
      </trkpt>
      <trkpt lat="44.33505" lon="0.5648">
        <ele>168.37</ele>
        <time>2012-07-22T08:03:45Z</time>
      </trkpt>
      <trkpt lat="44.33499" lon="0.56469">
        <ele>170.29</ele>
        <time>2012-07-22T08:03:58Z</time>
      </trkpt>
      <trkpt lat="44.33498" lon="0.56457">
        <ele>172.69</ele>
        <time>2012-07-22T08:04:11Z</time>
      </trkpt>
      <trkpt lat="44.33493" lon="0.56448">
        <ele>175.58</ele>
        <time>2012-07-22T08:04:23Z</time>
      </trkpt>
      <trkpt lat="44.33487" lon="0.56437">
        <ele>177.5</ele>
        <time>2012-07-22T08:04:35Z</time>
      </trkpt>
      <trkpt lat="44.33486" lon="0.56436">
        <ele>177.02</ele>
        <time>2012-07-22T08:04:36Z</time>
      </trkpt>
      <trkpt lat="44.33482" lon="0.56429">
        <ele>177.98</ele>
        <time>2012-07-22T08:04:49Z</time>
      </trkpt>
      <trkpt lat="44.33481" lon="0.56429">
        <ele>177.98</ele>
        <time>2012-07-22T08:05:07Z</time>
      </trkpt>
      <trkpt lat="44.33483" lon="0.56427">
        <ele>177.5</ele>
        <time>2012-07-22T08:05:42Z</time>
      </trkpt>
      <trkpt lat="44.33483" lon="0.56426">
        <ele>177.5</ele>
        <time>2012-07-22T08:06:12Z</time>
      </trkpt>
      <trkpt lat="44.33483" lon="0.56425">
        <ele>177.5</ele>
        <time>2012-07-22T08:06:34Z</time>
      </trkpt>
      <trkpt lat="44.33483" lon="0.56425">
        <ele>177.02</ele>
        <time>2012-07-22T08:06:52Z</time>
      </trkpt>
      <trkpt lat="44.33483" lon="0.56425">
        <ele>177.5</ele>
        <time>2012-07-22T08:07:21Z</time>
      </trkpt>
      <trkpt lat="44.33483" lon="0.56423">
        <ele>177.5</ele>
        <time>2012-07-22T08:07:46Z</time>
      </trkpt>
      <trkpt lat="44.33483" lon="0.56423">
        <ele>177.98</ele>
        <time>2012-07-22T08:08:02Z</time>
      </trkpt>
      <trkpt lat="44.3348" lon="0.56418">
        <ele>177.98</ele>
        <time>2012-07-22T08:08:13Z</time>
      </trkpt>
      <trkpt lat="44.33474" lon="0.56408">
        <ele>177.02</ele>
        <time>2012-07-22T08:08:17Z</time>
      </trkpt>
      <trkpt lat="44.33448" lon="0.56377">
        <ele>175.1</ele>
        <time>2012-07-22T08:08:28Z</time>
      </trkpt>
      <trkpt lat="44.33422" lon="0.56359">
        <ele>177.98</ele>
        <time>2012-07-22T08:08:38Z</time>
      </trkpt>
      <trkpt lat="44.33376" lon="0.56364">
        <ele>179.9</ele>
        <time>2012-07-22T08:08:52Z</time>
      </trkpt>
      <trkpt lat="44.33338" lon="0.56374">
        <ele>181.35</ele>
        <time>2012-07-22T08:09:05Z</time>
      </trkpt>
      <trkpt lat="44.3329" lon="0.56384">
        <ele>182.79</ele>
        <time>2012-07-22T08:09:19Z</time>
      </trkpt>
      <trkpt lat="44.33246" lon="0.5638">
        <ele>182.79</ele>
        <time>2012-07-22T08:09:32Z</time>
      </trkpt>
      <trkpt lat="44.33191" lon="0.56353">
        <ele>183.27</ele>
        <time>2012-07-22T08:09:48Z</time>
      </trkpt>
      <trkpt lat="44.33132" lon="0.56345">
        <ele>182.31</ele>
        <time>2012-07-22T08:10:02Z</time>
      </trkpt>
      <trkpt lat="44.33116" lon="0.56345">
        <ele>182.31</ele>
        <time>2012-07-22T08:10:06Z</time>
      </trkpt>
      <trkpt lat="44.33072" lon="0.56352">
        <ele>182.31</ele>
        <time>2012-07-22T08:10:17Z</time>
      </trkpt>
      <trkpt lat="44.33069" lon="0.56355">
        <ele>181.83</ele>
        <time>2012-07-22T08:10:18Z</time>
      </trkpt>
      <trkpt lat="44.33066" lon="0.56359">
        <ele>182.31</ele>
        <time>2012-07-22T08:10:19Z</time>
      </trkpt>
      <trkpt lat="44.33064" lon="0.56363">
        <ele>182.31</ele>
        <time>2012-07-22T08:10:20Z</time>
      </trkpt>
      <trkpt lat="44.33062" lon="0.56366">
        <ele>182.31</ele>
        <time>2012-07-22T08:10:21Z</time>
      </trkpt>
      <trkpt lat="44.3306" lon="0.5637">
        <ele>182.79</ele>
        <time>2012-07-22T08:10:22Z</time>
      </trkpt>
      <trkpt lat="44.33039" lon="0.56403">
        <ele>182.79</ele>
        <time>2012-07-22T08:10:31Z</time>
      </trkpt>
      <trkpt lat="44.33007" lon="0.56441">
        <ele>182.31</ele>
        <time>2012-07-22T08:10:41Z</time>
      </trkpt>
      <trkpt lat="44.33004" lon="0.56445">
        <ele>181.83</ele>
        <time>2012-07-22T08:10:42Z</time>
      </trkpt>
      <trkpt lat="44.33" lon="0.56448">
        <ele>181.83</ele>
        <time>2012-07-22T08:10:43Z</time>
      </trkpt>
      <trkpt lat="44.32997" lon="0.56452">
        <ele>181.35</ele>
        <time>2012-07-22T08:10:44Z</time>
      </trkpt>
      <trkpt lat="44.32993" lon="0.56456">
        <ele>181.83</ele>
        <time>2012-07-22T08:10:45Z</time>
      </trkpt>
      <trkpt lat="44.3299" lon="0.56459">
        <ele>181.83</ele>
        <time>2012-07-22T08:10:46Z</time>
      </trkpt>
      <trkpt lat="44.32973" lon="0.56474">
        <ele>180.87</ele>
        <time>2012-07-22T08:10:50Z</time>
      </trkpt>
      <trkpt lat="44.32969" lon="0.56477">
        <ele>180.87</ele>
        <time>2012-07-22T08:10:51Z</time>
      </trkpt>
      <trkpt lat="44.32948" lon="0.56499">
        <ele>180.87</ele>
        <time>2012-07-22T08:10:57Z</time>
      </trkpt>
      <trkpt lat="44.32946" lon="0.56504">
        <ele>181.35</ele>
        <time>2012-07-22T08:10:58Z</time>
      </trkpt>
      <trkpt lat="44.32944" lon="0.5651">
        <ele>180.87</ele>
        <time>2012-07-22T08:10:59Z</time>
      </trkpt>
      <trkpt lat="44.3294" lon="0.56521">
        <ele>181.83</ele>
        <time>2012-07-22T08:11:01Z</time>
      </trkpt>
      <trkpt lat="44.32927" lon="0.56552">
        <ele>182.31</ele>
        <time>2012-07-22T08:11:07Z</time>
      </trkpt>
      <trkpt lat="44.32913" lon="0.56577">
        <ele>182.31</ele>
        <time>2012-07-22T08:11:12Z</time>
      </trkpt>
      <trkpt lat="44.3291" lon="0.56583">
        <ele>181.83</ele>
        <time>2012-07-22T08:11:13Z</time>
      </trkpt>
      <trkpt lat="44.32885" lon="0.56634">
        <ele>180.38</ele>
        <time>2012-07-22T08:11:21Z</time>
      </trkpt>
      <trkpt lat="44.32882" lon="0.5664">
        <ele>180.38</ele>
        <time>2012-07-22T08:11:22Z</time>
      </trkpt>
      <trkpt lat="44.32878" lon="0.56645">
        <ele>179.9</ele>
        <time>2012-07-22T08:11:23Z</time>
      </trkpt>
      <trkpt lat="44.32875" lon="0.56649">
        <ele>180.38</ele>
        <time>2012-07-22T08:11:24Z</time>
      </trkpt>
      <trkpt lat="44.32872" lon="0.56654">
        <ele>180.38</ele>
        <time>2012-07-22T08:11:25Z</time>
      </trkpt>
      <trkpt lat="44.32869" lon="0.56659">
        <ele>180.38</ele>
        <time>2012-07-22T08:11:26Z</time>
      </trkpt>
      <trkpt lat="44.32865" lon="0.56663">
        <ele>180.38</ele>
        <time>2012-07-22T08:11:27Z</time>
      </trkpt>
      <trkpt lat="44.32862" lon="0.56667">
        <ele>179.9</ele>
        <time>2012-07-22T08:11:28Z</time>
      </trkpt>
      <trkpt lat="44.32858" lon="0.56672">
        <ele>179.42</ele>
        <time>2012-07-22T08:11:29Z</time>
      </trkpt>
      <trkpt lat="44.32819" lon="0.56719">
        <ele>181.83</ele>
        <time>2012-07-22T08:11:41Z</time>
      </trkpt>
      <trkpt lat="44.32817" lon="0.5672">
        <ele>181.83</ele>
        <time>2012-07-22T08:11:42Z</time>
      </trkpt>
      <trkpt lat="44.32773" lon="0.56732">
        <ele>183.27</ele>
        <time>2012-07-22T08:11:56Z</time>
      </trkpt>
      <trkpt lat="44.32731" lon="0.56741">
        <ele>185.19</ele>
        <time>2012-07-22T08:12:09Z</time>
      </trkpt>
      <trkpt lat="44.32729" lon="0.56741">
        <ele>185.19</ele>
        <time>2012-07-22T08:12:10Z</time>
      </trkpt>
      <trkpt lat="44.32728" lon="0.56741">
        <ele>185.19</ele>
        <time>2012-07-22T08:12:11Z</time>
      </trkpt>
      <trkpt lat="44.32726" lon="0.56741">
        <ele>185.19</ele>
        <time>2012-07-22T08:12:12Z</time>
      </trkpt>
      <trkpt lat="44.32723" lon="0.56741">
        <ele>184.71</ele>
        <time>2012-07-22T08:12:13Z</time>
      </trkpt>
      <trkpt lat="44.3272" lon="0.56741">
        <ele>185.19</ele>
        <time>2012-07-22T08:12:14Z</time>
      </trkpt>
      <trkpt lat="44.32718" lon="0.56741">
        <ele>185.19</ele>
        <time>2012-07-22T08:12:15Z</time>
      </trkpt>
      <trkpt lat="44.32675" lon="0.56737">
        <ele>186.15</ele>
        <time>2012-07-22T08:12:31Z</time>
      </trkpt>
      <trkpt lat="44.3264" lon="0.56726">
        <ele>187.11</ele>
        <time>2012-07-22T08:12:44Z</time>
      </trkpt>
      <trkpt lat="44.32598" lon="0.56714">
        <ele>188.08</ele>
        <time>2012-07-22T08:13:00Z</time>
      </trkpt>
      <trkpt lat="44.32561" lon="0.56716">
        <ele>189.52</ele>
        <time>2012-07-22T08:13:13Z</time>
      </trkpt>
      <trkpt lat="44.32516" lon="0.56731">
        <ele>191.44</ele>
        <time>2012-07-22T08:13:29Z</time>
      </trkpt>
      <trkpt lat="44.32485" lon="0.56754">
        <ele>192.4</ele>
        <time>2012-07-22T08:13:42Z</time>
      </trkpt>
      <trkpt lat="44.32453" lon="0.56783">
        <ele>192.4</ele>
        <time>2012-07-22T08:13:56Z</time>
      </trkpt>
      <trkpt lat="44.32435" lon="0.56798">
        <ele>191.44</ele>
        <time>2012-07-22T08:14:02Z</time>
      </trkpt>
      <trkpt lat="44.32375" lon="0.56843">
        <ele>188.08</ele>
        <time>2012-07-22T08:14:14Z</time>
      </trkpt>
      <trkpt lat="44.32342" lon="0.56865">
        <ele>186.15</ele>
        <time>2012-07-22T08:14:19Z</time>
      </trkpt>
      <trkpt lat="44.32334" lon="0.56868">
        <ele>186.15</ele>
        <time>2012-07-22T08:14:20Z</time>
      </trkpt>
      <trkpt lat="44.32327" lon="0.56869">
        <ele>186.15</ele>
        <time>2012-07-22T08:14:21Z</time>
      </trkpt>
      <trkpt lat="44.32319" lon="0.56869">
        <ele>185.19</ele>
        <time>2012-07-22T08:14:22Z</time>
      </trkpt>
      <trkpt lat="44.32311" lon="0.56867">
        <ele>185.67</ele>
        <time>2012-07-22T08:14:23Z</time>
      </trkpt>
      <trkpt lat="44.32304" lon="0.56864">
        <ele>185.19</ele>
        <time>2012-07-22T08:14:24Z</time>
      </trkpt>
      <trkpt lat="44.32298" lon="0.5686">
        <ele>185.19</ele>
        <time>2012-07-22T08:14:25Z</time>
      </trkpt>
      <trkpt lat="44.32292" lon="0.56856">
        <ele>185.67</ele>
        <time>2012-07-22T08:14:26Z</time>
      </trkpt>
      <trkpt lat="44.32266" lon="0.56839">
        <ele>186.15</ele>
        <time>2012-07-22T08:14:31Z</time>
      </trkpt>
      <trkpt lat="44.32261" lon="0.56838">
        <ele>186.15</ele>
        <time>2012-07-22T08:14:32Z</time>
      </trkpt>
      <trkpt lat="44.32257" lon="0.56836">
        <ele>186.15</ele>
        <time>2012-07-22T08:14:33Z</time>
      </trkpt>
      <trkpt lat="44.32202" lon="0.56825">
        <ele>187.59</ele>
        <time>2012-07-22T08:14:47Z</time>
      </trkpt>
      <trkpt lat="44.32153" lon="0.56817">
        <ele>190</ele>
        <time>2012-07-22T08:15:01Z</time>
      </trkpt>
      <trkpt lat="44.32103" lon="0.56818">
        <ele>193.36</ele>
        <time>2012-07-22T08:15:17Z</time>
      </trkpt>
      <trkpt lat="44.32067" lon="0.56819">
        <ele>196.25</ele>
        <time>2012-07-22T08:15:31Z</time>
      </trkpt>
      <trkpt lat="44.32019" lon="0.56818">
        <ele>199.61</ele>
        <time>2012-07-22T08:15:50Z</time>
      </trkpt>
      <trkpt lat="44.31967" lon="0.56817">
        <ele>200.57</ele>
        <time>2012-07-22T08:16:07Z</time>
      </trkpt>
      <trkpt lat="44.31907" lon="0.56815">
        <ele>200.09</ele>
        <time>2012-07-22T08:16:21Z</time>
      </trkpt>
      <trkpt lat="44.31891" lon="0.56818">
        <ele>199.61</ele>
        <time>2012-07-22T08:16:24Z</time>
      </trkpt>
      <trkpt lat="44.31882" lon="0.56821">
        <ele>199.13</ele>
        <time>2012-07-22T08:16:26Z</time>
      </trkpt>
      <trkpt lat="44.31877" lon="0.56822">
        <ele>199.61</ele>
        <time>2012-07-22T08:16:27Z</time>
      </trkpt>
      <trkpt lat="44.31803" lon="0.5685">
        <ele>196.25</ele>
        <time>2012-07-22T08:16:41Z</time>
      </trkpt>
      <trkpt lat="44.31791" lon="0.56857">
        <ele>195.77</ele>
        <time>2012-07-22T08:16:43Z</time>
      </trkpt>
      <trkpt lat="44.31785" lon="0.56862">
        <ele>195.28</ele>
        <time>2012-07-22T08:16:44Z</time>
      </trkpt>
      <trkpt lat="44.31779" lon="0.56868">
        <ele>194.8</ele>
        <time>2012-07-22T08:16:45Z</time>
      </trkpt>
      <trkpt lat="44.31774" lon="0.56874">
        <ele>194.8</ele>
        <time>2012-07-22T08:16:46Z</time>
      </trkpt>
      <trkpt lat="44.31768" lon="0.5688">
        <ele>193.84</ele>
        <time>2012-07-22T08:16:47Z</time>
      </trkpt>
      <trkpt lat="44.3174" lon="0.56911">
        <ele>192.88</ele>
        <time>2012-07-22T08:16:52Z</time>
      </trkpt>
      <trkpt lat="44.31735" lon="0.56916">
        <ele>192.88</ele>
        <time>2012-07-22T08:16:53Z</time>
      </trkpt>
      <trkpt lat="44.31729" lon="0.5692">
        <ele>192.4</ele>
        <time>2012-07-22T08:16:54Z</time>
      </trkpt>
      <trkpt lat="44.31717" lon="0.56927">
        <ele>192.88</ele>
        <time>2012-07-22T08:16:56Z</time>
      </trkpt>
      <trkpt lat="44.31675" lon="0.56944">
        <ele>191.44</ele>
        <time>2012-07-22T08:17:05Z</time>
      </trkpt>
      <trkpt lat="44.31674" lon="0.56944">
        <ele>191.92</ele>
        <time>2012-07-22T08:17:23Z</time>
      </trkpt>
      <trkpt lat="44.31675" lon="0.56944">
        <ele>192.4</ele>
        <time>2012-07-22T08:17:45Z</time>
      </trkpt>
      <trkpt lat="44.31674" lon="0.56942">
        <ele>191.92</ele>
        <time>2012-07-22T08:17:46Z</time>
      </trkpt>
      <trkpt lat="44.31675" lon="0.56939">
        <ele>191.44</ele>
        <time>2012-07-22T08:17:47Z</time>
      </trkpt>
      <trkpt lat="44.31676" lon="0.56937">
        <ele>191.92</ele>
        <time>2012-07-22T08:17:48Z</time>
      </trkpt>
      <trkpt lat="44.31677" lon="0.56934">
        <ele>191.44</ele>
        <time>2012-07-22T08:17:49Z</time>
      </trkpt>
      <trkpt lat="44.31687" lon="0.56915">
        <ele>191.44</ele>
        <time>2012-07-22T08:17:59Z</time>
      </trkpt>
      <trkpt lat="44.31687" lon="0.56915">
        <ele>191.44</ele>
        <time>2012-07-22T08:18:11Z</time>
      </trkpt>
      <trkpt lat="44.31688" lon="0.56914">
        <ele>190.96</ele>
        <time>2012-07-22T08:18:28Z</time>
      </trkpt>
      <trkpt lat="44.31688" lon="0.56916">
        <ele>190.96</ele>
        <time>2012-07-22T08:19:02Z</time>
      </trkpt>
      <trkpt lat="44.31688" lon="0.56915">
        <ele>190.48</ele>
        <time>2012-07-22T08:19:29Z</time>
      </trkpt>
      <trkpt lat="44.31689" lon="0.56915">
        <ele>190.48</ele>
        <time>2012-07-22T08:20:00Z</time>
      </trkpt>
      <trkpt lat="44.31689" lon="0.56915">
        <ele>190.48</ele>
        <time>2012-07-22T08:20:30Z</time>
      </trkpt>
      <trkpt lat="44.3169" lon="0.56916">
        <ele>190.48</ele>
        <time>2012-07-22T08:21:02Z</time>
      </trkpt>
      <trkpt lat="44.31689" lon="0.56915">
        <ele>191.44</ele>
        <time>2012-07-22T08:21:36Z</time>
      </trkpt>
      <trkpt lat="44.31689" lon="0.56915">
        <ele>190.48</ele>
        <time>2012-07-22T08:22:13Z</time>
      </trkpt>
      <trkpt lat="44.31688" lon="0.56915">
        <ele>190.96</ele>
        <time>2012-07-22T08:22:50Z</time>
      </trkpt>
      <trkpt lat="44.31689" lon="0.56915">
        <ele>190.96</ele>
        <time>2012-07-22T08:23:26Z</time>
      </trkpt>
      <trkpt lat="44.31688" lon="0.56916">
        <ele>190.48</ele>
        <time>2012-07-22T08:23:58Z</time>
      </trkpt>
      <trkpt lat="44.31688" lon="0.56915">
        <ele>190.48</ele>
        <time>2012-07-22T08:24:31Z</time>
      </trkpt>
      <trkpt lat="44.31689" lon="0.56916">
        <ele>190</ele>
        <time>2012-07-22T08:25:07Z</time>
      </trkpt>
      <trkpt lat="44.31689" lon="0.56916">
        <ele>190.48</ele>
        <time>2012-07-22T08:25:44Z</time>
      </trkpt>
      <trkpt lat="44.31689" lon="0.56916">
        <ele>190.96</ele>
        <time>2012-07-22T08:26:19Z</time>
      </trkpt>
      <trkpt lat="44.3169" lon="0.56916">
        <ele>190.48</ele>
        <time>2012-07-22T08:26:58Z</time>
      </trkpt>
      <trkpt lat="44.31688" lon="0.56916">
        <ele>190.48</ele>
        <time>2012-07-22T08:27:37Z</time>
      </trkpt>
      <trkpt lat="44.31689" lon="0.56915">
        <ele>190.48</ele>
        <time>2012-07-22T08:28:15Z</time>
      </trkpt>
      <trkpt lat="44.3169" lon="0.56916">
        <ele>190.48</ele>
        <time>2012-07-22T08:28:51Z</time>
      </trkpt>
      <trkpt lat="44.3169" lon="0.56916">
        <ele>190.96</ele>
        <time>2012-07-22T08:29:30Z</time>
      </trkpt>
      <trkpt lat="44.3169" lon="0.56916">
        <ele>190.48</ele>
        <time>2012-07-22T08:30:08Z</time>
      </trkpt>
      <trkpt lat="44.3169" lon="0.56916">
        <ele>190.96</ele>
        <time>2012-07-22T08:30:44Z</time>
      </trkpt>
      <trkpt lat="44.31689" lon="0.56916">
        <ele>190.48</ele>
        <time>2012-07-22T08:31:23Z</time>
      </trkpt>
      <trkpt lat="44.31689" lon="0.56917">
        <ele>190.48</ele>
        <time>2012-07-22T08:32:07Z</time>
      </trkpt>
      <trkpt lat="44.31689" lon="0.56917">
        <ele>190.96</ele>
        <time>2012-07-22T08:32:48Z</time>
      </trkpt>
      <trkpt lat="44.3169" lon="0.56917">
        <ele>190.48</ele>
        <time>2012-07-22T08:33:24Z</time>
      </trkpt>
      <trkpt lat="44.31689" lon="0.56915">
        <ele>191.92</ele>
        <time>2012-07-22T08:33:54Z</time>
      </trkpt>
      <trkpt lat="44.31689" lon="0.56913">
        <ele>191.44</ele>
        <time>2012-07-22T08:33:55Z</time>
      </trkpt>
      <trkpt lat="44.3169" lon="0.56911">
        <ele>190.96</ele>
        <time>2012-07-22T08:33:56Z</time>
      </trkpt>
      <trkpt lat="44.3169" lon="0.56909">
        <ele>190.96</ele>
        <time>2012-07-22T08:33:57Z</time>
      </trkpt>
      <trkpt lat="44.31691" lon="0.56907">
        <ele>190.96</ele>
        <time>2012-07-22T08:33:58Z</time>
      </trkpt>
      <trkpt lat="44.31692" lon="0.56904">
        <ele>191.44</ele>
        <time>2012-07-22T08:33:59Z</time>
      </trkpt>
      <trkpt lat="44.31692" lon="0.56901">
        <ele>190.96</ele>
        <time>2012-07-22T08:34:00Z</time>
      </trkpt>
      <trkpt lat="44.31693" lon="0.56898">
        <ele>190.96</ele>
        <time>2012-07-22T08:34:01Z</time>
      </trkpt>
      <trkpt lat="44.31694" lon="0.56895">
        <ele>190.48</ele>
        <time>2012-07-22T08:34:02Z</time>
      </trkpt>
      <trkpt lat="44.31695" lon="0.56891">
        <ele>190.96</ele>
        <time>2012-07-22T08:34:03Z</time>
      </trkpt>
      <trkpt lat="44.31693" lon="0.56833">
        <ele>190</ele>
        <time>2012-07-22T08:34:17Z</time>
      </trkpt>
      <trkpt lat="44.31697" lon="0.56779">
        <ele>189.52</ele>
        <time>2012-07-22T08:34:28Z</time>
      </trkpt>
      <trkpt lat="44.31699" lon="0.56754">
        <ele>189.04</ele>
        <time>2012-07-22T08:34:33Z</time>
      </trkpt>
      <trkpt lat="44.31703" lon="0.56695">
        <ele>188.56</ele>
        <time>2012-07-22T08:34:45Z</time>
      </trkpt>
      <trkpt lat="44.31702" lon="0.56693">
        <ele>188.08</ele>
        <time>2012-07-22T08:35:02Z</time>
      </trkpt>
      <trkpt lat="44.31702" lon="0.56691">
        <ele>188.08</ele>
        <time>2012-07-22T08:35:20Z</time>
      </trkpt>
      <trkpt lat="44.31702" lon="0.56692">
        <ele>188.56</ele>
        <time>2012-07-22T08:36:06Z</time>
      </trkpt>
      <trkpt lat="44.31701" lon="0.56691">
        <ele>188.56</ele>
        <time>2012-07-22T08:36:44Z</time>
      </trkpt>
      <trkpt lat="44.31701" lon="0.5669">
        <ele>187.59</ele>
        <time>2012-07-22T08:37:27Z</time>
      </trkpt>
      <trkpt lat="44.31701" lon="0.5669">
        <ele>188.08</ele>
        <time>2012-07-22T08:38:14Z</time>
      </trkpt>
      <trkpt lat="44.31701" lon="0.56691">
        <ele>188.08</ele>
        <time>2012-07-22T08:38:56Z</time>
      </trkpt>
      <trkpt lat="44.31701" lon="0.56691">
        <ele>188.08</ele>
        <time>2012-07-22T08:39:42Z</time>
      </trkpt>
      <trkpt lat="44.31701" lon="0.5669">
        <ele>188.08</ele>
        <time>2012-07-22T08:40:33Z</time>
      </trkpt>
      <trkpt lat="44.31702" lon="0.56691">
        <ele>187.59</ele>
        <time>2012-07-22T08:41:24Z</time>
      </trkpt>
      <trkpt lat="44.31701" lon="0.56689">
        <ele>187.59</ele>
        <time>2012-07-22T08:42:13Z</time>
      </trkpt>
      <trkpt lat="44.31701" lon="0.56691">
        <ele>187.59</ele>
        <time>2012-07-22T08:42:50Z</time>
      </trkpt>
      <trkpt lat="44.31701" lon="0.56692">
        <ele>187.59</ele>
        <time>2012-07-22T08:43:38Z</time>
      </trkpt>
      <trkpt lat="44.31701" lon="0.56692">
        <ele>187.59</ele>
        <time>2012-07-22T08:44:22Z</time>
      </trkpt>
      <trkpt lat="44.31701" lon="0.56691">
        <ele>187.59</ele>
        <time>2012-07-22T08:45:07Z</time>
      </trkpt>
      <trkpt lat="44.31701" lon="0.56691">
        <ele>187.11</ele>
        <time>2012-07-22T08:46:00Z</time>
      </trkpt>
      <trkpt lat="44.317" lon="0.56691">
        <ele>187.11</ele>
        <time>2012-07-22T08:46:44Z</time>
      </trkpt>
      <trkpt lat="44.31702" lon="0.56691">
        <ele>188.08</ele>
        <time>2012-07-22T08:47:00Z</time>
      </trkpt>
      <trkpt lat="44.31702" lon="0.5669">
        <ele>188.08</ele>
        <time>2012-07-22T08:47:15Z</time>
      </trkpt>
      <trkpt lat="44.31702" lon="0.56689">
        <ele>188.08</ele>
        <time>2012-07-22T08:47:16Z</time>
      </trkpt>
      <trkpt lat="44.31702" lon="0.56686">
        <ele>188.08</ele>
        <time>2012-07-22T08:47:17Z</time>
      </trkpt>
      <trkpt lat="44.31703" lon="0.56682">
        <ele>187.59</ele>
        <time>2012-07-22T08:47:18Z</time>
      </trkpt>
      <trkpt lat="44.31704" lon="0.56678">
        <ele>187.59</ele>
        <time>2012-07-22T08:47:19Z</time>
      </trkpt>
      <trkpt lat="44.31704" lon="0.56673">
        <ele>187.59</ele>
        <time>2012-07-22T08:47:20Z</time>
      </trkpt>
      <trkpt lat="44.31704" lon="0.56668">
        <ele>187.11</ele>
        <time>2012-07-22T08:47:21Z</time>
      </trkpt>
      <trkpt lat="44.31691" lon="0.56582">
        <ele>185.19</ele>
        <time>2012-07-22T08:47:35Z</time>
      </trkpt>
      <trkpt lat="44.31685" lon="0.56551">
        <ele>185.19</ele>
        <time>2012-07-22T08:47:40Z</time>
      </trkpt>
      <trkpt lat="44.31684" lon="0.56545">
        <ele>185.19</ele>
        <time>2012-07-22T08:47:41Z</time>
      </trkpt>
      <trkpt lat="44.31682" lon="0.56539">
        <ele>185.19</ele>
        <time>2012-07-22T08:47:42Z</time>
      </trkpt>
      <trkpt lat="44.31681" lon="0.56533">
        <ele>184.71</ele>
        <time>2012-07-22T08:47:43Z</time>
      </trkpt>
      <trkpt lat="44.3168" lon="0.56528">
        <ele>185.19</ele>
        <time>2012-07-22T08:47:44Z</time>
      </trkpt>
      <trkpt lat="44.31672" lon="0.56471">
        <ele>185.19</ele>
        <time>2012-07-22T08:47:55Z</time>
      </trkpt>
      <trkpt lat="44.31662" lon="0.56393">
        <ele>184.71</ele>
        <time>2012-07-22T08:48:09Z</time>
      </trkpt>
      <trkpt lat="44.31666" lon="0.56371">
        <ele>184.71</ele>
        <time>2012-07-22T08:48:18Z</time>
      </trkpt>
      <trkpt lat="44.31665" lon="0.56373">
        <ele>184.23</ele>
        <time>2012-07-22T08:48:21Z</time>
      </trkpt>
      <trkpt lat="44.31664" lon="0.56374">
        <ele>184.71</ele>
        <time>2012-07-22T08:48:23Z</time>
      </trkpt>
      <trkpt lat="44.31655" lon="0.56361">
        <ele>184.23</ele>
        <time>2012-07-22T08:48:31Z</time>
      </trkpt>
      <trkpt lat="44.3165" lon="0.56333">
        <ele>182.79</ele>
        <time>2012-07-22T08:48:37Z</time>
      </trkpt>
      <trkpt lat="44.31642" lon="0.56276">
        <ele>184.71</ele>
        <time>2012-07-22T08:48:49Z</time>
      </trkpt>
      <trkpt lat="44.31644" lon="0.56238">
        <ele>184.23</ele>
        <time>2012-07-22T08:48:56Z</time>
      </trkpt>
      <trkpt lat="44.31645" lon="0.56221">
        <ele>184.71</ele>
        <time>2012-07-22T08:48:59Z</time>
      </trkpt>
      <trkpt lat="44.31645" lon="0.56216">
        <ele>185.19</ele>
        <time>2012-07-22T08:49:00Z</time>
      </trkpt>
      <trkpt lat="44.31644" lon="0.5621">
        <ele>185.67</ele>
        <time>2012-07-22T08:49:01Z</time>
      </trkpt>
      <trkpt lat="44.31644" lon="0.56205">
        <ele>185.67</ele>
        <time>2012-07-22T08:49:02Z</time>
      </trkpt>
      <trkpt lat="44.31643" lon="0.562">
        <ele>185.67</ele>
        <time>2012-07-22T08:49:03Z</time>
      </trkpt>
      <trkpt lat="44.31642" lon="0.56195">
        <ele>185.67</ele>
        <time>2012-07-22T08:49:04Z</time>
      </trkpt>
      <trkpt lat="44.31641" lon="0.56189">
        <ele>185.67</ele>
        <time>2012-07-22T08:49:05Z</time>
      </trkpt>
      <trkpt lat="44.31638" lon="0.56172">
        <ele>186.15</ele>
        <time>2012-07-22T08:49:08Z</time>
      </trkpt>
      <trkpt lat="44.31632" lon="0.56136">
        <ele>186.15</ele>
        <time>2012-07-22T08:49:14Z</time>
      </trkpt>
      <trkpt lat="44.31632" lon="0.5613">
        <ele>186.15</ele>
        <time>2012-07-22T08:49:15Z</time>
      </trkpt>
      <trkpt lat="44.31633" lon="0.56124">
        <ele>186.15</ele>
        <time>2012-07-22T08:49:16Z</time>
      </trkpt>
      <trkpt lat="44.31634" lon="0.56118">
        <ele>186.15</ele>
        <time>2012-07-22T08:49:17Z</time>
      </trkpt>
      <trkpt lat="44.31635" lon="0.56113">
        <ele>186.15</ele>
        <time>2012-07-22T08:49:18Z</time>
      </trkpt>
      <trkpt lat="44.31639" lon="0.56095">
        <ele>186.15</ele>
        <time>2012-07-22T08:49:21Z</time>
      </trkpt>
      <trkpt lat="44.31641" lon="0.56089">
        <ele>186.15</ele>
        <time>2012-07-22T08:49:22Z</time>
      </trkpt>
      <trkpt lat="44.31643" lon="0.56084">
        <ele>185.67</ele>
        <time>2012-07-22T08:49:23Z</time>
      </trkpt>
      <trkpt lat="44.31646" lon="0.56077">
        <ele>185.19</ele>
        <time>2012-07-22T08:49:24Z</time>
      </trkpt>
      <trkpt lat="44.31648" lon="0.56071">
        <ele>184.71</ele>
        <time>2012-07-22T08:49:25Z</time>
      </trkpt>
      <trkpt lat="44.31653" lon="0.56056">
        <ele>184.71</ele>
        <time>2012-07-22T08:49:27Z</time>
      </trkpt>
      <trkpt lat="44.31655" lon="0.56048">
        <ele>184.71</ele>
        <time>2012-07-22T08:49:28Z</time>
      </trkpt>
      <trkpt lat="44.31656" lon="0.5604">
        <ele>184.23</ele>
        <time>2012-07-22T08:49:29Z</time>
      </trkpt>
      <trkpt lat="44.31656" lon="0.56032">
        <ele>184.23</ele>
        <time>2012-07-22T08:49:30Z</time>
      </trkpt>
      <trkpt lat="44.31656" lon="0.56024">
        <ele>183.75</ele>
        <time>2012-07-22T08:49:31Z</time>
      </trkpt>
      <trkpt lat="44.31656" lon="0.56016">
        <ele>184.23</ele>
        <time>2012-07-22T08:49:32Z</time>
      </trkpt>
      <trkpt lat="44.31655" lon="0.5601">
        <ele>183.75</ele>
        <time>2012-07-22T08:49:33Z</time>
      </trkpt>
      <trkpt lat="44.31655" lon="0.56005">
        <ele>183.75</ele>
        <time>2012-07-22T08:49:34Z</time>
      </trkpt>
      <trkpt lat="44.31655" lon="0.56001">
        <ele>184.23</ele>
        <time>2012-07-22T08:49:35Z</time>
      </trkpt>
      <trkpt lat="44.31653" lon="0.55997">
        <ele>182.79</ele>
        <time>2012-07-22T08:49:36Z</time>
      </trkpt>
      <trkpt lat="44.3165" lon="0.55993">
        <ele>181.83</ele>
        <time>2012-07-22T08:49:37Z</time>
      </trkpt>
      <trkpt lat="44.31648" lon="0.55987">
        <ele>180.87</ele>
        <time>2012-07-22T08:49:38Z</time>
      </trkpt>
      <trkpt lat="44.3164" lon="0.55973">
        <ele>179.42</ele>
        <time>2012-07-22T08:49:40Z</time>
      </trkpt>
      <trkpt lat="44.31636" lon="0.55965">
        <ele>178.46</ele>
        <time>2012-07-22T08:49:41Z</time>
      </trkpt>
      <trkpt lat="44.31633" lon="0.55956">
        <ele>177.5</ele>
        <time>2012-07-22T08:49:42Z</time>
      </trkpt>
      <trkpt lat="44.31631" lon="0.55947">
        <ele>176.54</ele>
        <time>2012-07-22T08:49:43Z</time>
      </trkpt>
      <trkpt lat="44.31631" lon="0.55938">
        <ele>175.1</ele>
        <time>2012-07-22T08:49:44Z</time>
      </trkpt>
      <trkpt lat="44.31631" lon="0.55928">
        <ele>174.62</ele>
        <time>2012-07-22T08:49:45Z</time>
      </trkpt>
      <trkpt lat="44.31633" lon="0.55908">
        <ele>172.69</ele>
        <time>2012-07-22T08:49:47Z</time>
      </trkpt>
      <trkpt lat="44.31634" lon="0.55899">
        <ele>172.21</ele>
        <time>2012-07-22T08:49:48Z</time>
      </trkpt>
      <trkpt lat="44.31636" lon="0.55889">
        <ele>171.25</ele>
        <time>2012-07-22T08:49:49Z</time>
      </trkpt>
      <trkpt lat="44.3164" lon="0.5586">
        <ele>169.33</ele>
        <time>2012-07-22T08:49:52Z</time>
      </trkpt>
      <trkpt lat="44.31639" lon="0.55835">
        <ele>167.89</ele>
        <time>2012-07-22T08:49:55Z</time>
      </trkpt>
      <trkpt lat="44.31638" lon="0.55827">
        <ele>167.41</ele>
        <time>2012-07-22T08:49:56Z</time>
      </trkpt>
      <trkpt lat="44.31636" lon="0.55818">
        <ele>165.48</ele>
        <time>2012-07-22T08:49:57Z</time>
      </trkpt>
      <trkpt lat="44.31627" lon="0.55784">
        <ele>161.64</ele>
        <time>2012-07-22T08:50:00Z</time>
      </trkpt>
      <trkpt lat="44.31614" lon="0.55734">
        <ele>158.27</ele>
        <time>2012-07-22T08:50:04Z</time>
      </trkpt>
      <trkpt lat="44.3161" lon="0.55723">
        <ele>157.31</ele>
        <time>2012-07-22T08:50:05Z</time>
      </trkpt>
      <trkpt lat="44.31598" lon="0.55689">
        <ele>155.39</ele>
        <time>2012-07-22T08:50:08Z</time>
      </trkpt>
      <trkpt lat="44.31595" lon="0.55677">
        <ele>154.91</ele>
        <time>2012-07-22T08:50:09Z</time>
      </trkpt>
      <trkpt lat="44.31593" lon="0.55665">
        <ele>153.95</ele>
        <time>2012-07-22T08:50:10Z</time>
      </trkpt>
      <trkpt lat="44.31593" lon="0.55643">
        <ele>153.47</ele>
        <time>2012-07-22T08:50:12Z</time>
      </trkpt>
      <trkpt lat="44.31595" lon="0.55634">
        <ele>153.47</ele>
        <time>2012-07-22T08:50:13Z</time>
      </trkpt>
      <trkpt lat="44.31597" lon="0.55624">
        <ele>152.99</ele>
        <time>2012-07-22T08:50:14Z</time>
      </trkpt>
      <trkpt lat="44.31598" lon="0.55614">
        <ele>152.51</ele>
        <time>2012-07-22T08:50:15Z</time>
      </trkpt>
      <trkpt lat="44.31599" lon="0.55603">
        <ele>152.51</ele>
        <time>2012-07-22T08:50:16Z</time>
      </trkpt>
      <trkpt lat="44.31599" lon="0.55591">
        <ele>151.54</ele>
        <time>2012-07-22T08:50:17Z</time>
      </trkpt>
      <trkpt lat="44.31599" lon="0.55557">
        <ele>149.62</ele>
        <time>2012-07-22T08:50:20Z</time>
      </trkpt>
      <trkpt lat="44.31602" lon="0.55513">
        <ele>146.26</ele>
        <time>2012-07-22T08:50:25Z</time>
      </trkpt>
      <trkpt lat="44.316" lon="0.55509">
        <ele>145.78</ele>
        <time>2012-07-22T08:50:26Z</time>
      </trkpt>
      <trkpt lat="44.31597" lon="0.55507">
        <ele>145.78</ele>
        <time>2012-07-22T08:50:27Z</time>
      </trkpt>
      <trkpt lat="44.31593" lon="0.55508">
        <ele>145.3</ele>
        <time>2012-07-22T08:50:28Z</time>
      </trkpt>
      <trkpt lat="44.31589" lon="0.55511">
        <ele>144.34</ele>
        <time>2012-07-22T08:50:29Z</time>
      </trkpt>
      <trkpt lat="44.31585" lon="0.55516">
        <ele>144.34</ele>
        <time>2012-07-22T08:50:30Z</time>
      </trkpt>
      <trkpt lat="44.31581" lon="0.55522">
        <ele>143.85</ele>
        <time>2012-07-22T08:50:31Z</time>
      </trkpt>
      <trkpt lat="44.3157" lon="0.55538">
        <ele>142.41</ele>
        <time>2012-07-22T08:50:34Z</time>
      </trkpt>
      <trkpt lat="44.31567" lon="0.55542">
        <ele>142.41</ele>
        <time>2012-07-22T08:50:35Z</time>
      </trkpt>
      <trkpt lat="44.31565" lon="0.55545">
        <ele>141.93</ele>
        <time>2012-07-22T08:50:36Z</time>
      </trkpt>
      <trkpt lat="44.31563" lon="0.55548">
        <ele>141.45</ele>
        <time>2012-07-22T08:50:37Z</time>
      </trkpt>
      <trkpt lat="44.31562" lon="0.55551">
        <ele>140.97</ele>
        <time>2012-07-22T08:50:38Z</time>
      </trkpt>
      <trkpt lat="44.31558" lon="0.55558">
        <ele>139.53</ele>
        <time>2012-07-22T08:50:41Z</time>
      </trkpt>
      <trkpt lat="44.31554" lon="0.5556">
        <ele>139.53</ele>
        <time>2012-07-22T08:50:44Z</time>
      </trkpt>
      <trkpt lat="44.31552" lon="0.5556">
        <ele>139.53</ele>
        <time>2012-07-22T08:50:45Z</time>
      </trkpt>
      <trkpt lat="44.31549" lon="0.55561">
        <ele>139.53</ele>
        <time>2012-07-22T08:50:48Z</time>
      </trkpt>
      <trkpt lat="44.31548" lon="0.55562">
        <ele>140.01</ele>
        <time>2012-07-22T08:50:49Z</time>
      </trkpt>
      <trkpt lat="44.31548" lon="0.55564">
        <ele>139.53</ele>
        <time>2012-07-22T08:50:50Z</time>
      </trkpt>
      <trkpt lat="44.31549" lon="0.55566">
        <ele>140.01</ele>
        <time>2012-07-22T08:50:51Z</time>
      </trkpt>
      <trkpt lat="44.31548" lon="0.55568">
        <ele>139.53</ele>
        <time>2012-07-22T08:50:52Z</time>
      </trkpt>
      <trkpt lat="44.31548" lon="0.55571">
        <ele>139.53</ele>
        <time>2012-07-22T08:50:53Z</time>
      </trkpt>
      <trkpt lat="44.31548" lon="0.55574">
        <ele>139.53</ele>
        <time>2012-07-22T08:50:54Z</time>
      </trkpt>
      <trkpt lat="44.31548" lon="0.5558">
        <ele>139.05</ele>
        <time>2012-07-22T08:50:55Z</time>
      </trkpt>
      <trkpt lat="44.31548" lon="0.55587">
        <ele>138.57</ele>
        <time>2012-07-22T08:50:56Z</time>
      </trkpt>
      <trkpt lat="44.31549" lon="0.55614">
        <ele>135.2</ele>
        <time>2012-07-22T08:50:59Z</time>
      </trkpt>
      <trkpt lat="44.31548" lon="0.55625">
        <ele>134.72</ele>
        <time>2012-07-22T08:51:00Z</time>
      </trkpt>
      <trkpt lat="44.31546" lon="0.55635">
        <ele>133.76</ele>
        <time>2012-07-22T08:51:01Z</time>
      </trkpt>
      <trkpt lat="44.31536" lon="0.55667">
        <ele>131.84</ele>
        <time>2012-07-22T08:51:04Z</time>
      </trkpt>
      <trkpt lat="44.31531" lon="0.55676">
        <ele>131.36</ele>
        <time>2012-07-22T08:51:05Z</time>
      </trkpt>
      <trkpt lat="44.31511" lon="0.55716">
        <ele>129.43</ele>
        <time>2012-07-22T08:51:09Z</time>
      </trkpt>
      <trkpt lat="44.31497" lon="0.55768">
        <ele>128.47</ele>
        <time>2012-07-22T08:51:14Z</time>
      </trkpt>
      <trkpt lat="44.31489" lon="0.55788">
        <ele>127.03</ele>
        <time>2012-07-22T08:51:16Z</time>
      </trkpt>
      <trkpt lat="44.31473" lon="0.55814">
        <ele>126.55</ele>
        <time>2012-07-22T08:51:19Z</time>
      </trkpt>
      <trkpt lat="44.31453" lon="0.55856">
        <ele>122.22</ele>
        <time>2012-07-22T08:51:23Z</time>
      </trkpt>
      <trkpt lat="44.31444" lon="0.55879">
        <ele>121.26</ele>
        <time>2012-07-22T08:51:25Z</time>
      </trkpt>
      <trkpt lat="44.31429" lon="0.55926">
        <ele>124.15</ele>
        <time>2012-07-22T08:51:30Z</time>
      </trkpt>
      <trkpt lat="44.31409" lon="0.55989">
        <ele>119.34</ele>
        <time>2012-07-22T08:51:37Z</time>
      </trkpt>
      <trkpt lat="44.31399" lon="0.56031">
        <ele>116.94</ele>
        <time>2012-07-22T08:51:41Z</time>
      </trkpt>
      <trkpt lat="44.31383" lon="0.56045">
        <ele>117.42</ele>
        <time>2012-07-22T08:51:47Z</time>
      </trkpt>
      <trkpt lat="44.31351" lon="0.56036">
        <ele>120.78</ele>
        <time>2012-07-22T08:52:00Z</time>
      </trkpt>
      <trkpt lat="44.31333" lon="0.56033">
        <ele>124.15</ele>
        <time>2012-07-22T08:52:10Z</time>
      </trkpt>
      <trkpt lat="44.31313" lon="0.56031">
        <ele>127.03</ele>
        <time>2012-07-22T08:52:22Z</time>
      </trkpt>
      <trkpt lat="44.31292" lon="0.56042">
        <ele>130.4</ele>
        <time>2012-07-22T08:52:35Z</time>
      </trkpt>
      <trkpt lat="44.31272" lon="0.56068">
        <ele>132.8</ele>
        <time>2012-07-22T08:52:50Z</time>
      </trkpt>
      <trkpt lat="44.31271" lon="0.56099">
        <ele>135.2</ele>
        <time>2012-07-22T08:53:03Z</time>
      </trkpt>
      <trkpt lat="44.31267" lon="0.56132">
        <ele>137.13</ele>
        <time>2012-07-22T08:53:18Z</time>
      </trkpt>
      <trkpt lat="44.31256" lon="0.56152">
        <ele>140.49</ele>
        <time>2012-07-22T08:53:31Z</time>
      </trkpt>
      <trkpt lat="44.31249" lon="0.56161">
        <ele>141.93</ele>
        <time>2012-07-22T08:53:38Z</time>
      </trkpt>
      <trkpt lat="44.31239" lon="0.56171">
        <ele>143.85</ele>
        <time>2012-07-22T08:53:49Z</time>
      </trkpt>
      <trkpt lat="44.31224" lon="0.56186">
        <ele>145.78</ele>
        <time>2012-07-22T08:54:04Z</time>
      </trkpt>
      <trkpt lat="44.31223" lon="0.56187">
        <ele>146.26</ele>
        <time>2012-07-22T08:54:05Z</time>
      </trkpt>
      <trkpt lat="44.31212" lon="0.56202">
        <ele>148.18</ele>
        <time>2012-07-22T08:54:18Z</time>
      </trkpt>
      <trkpt lat="44.31194" lon="0.56206">
        <ele>151.54</ele>
        <time>2012-07-22T08:54:34Z</time>
      </trkpt>
      <trkpt lat="44.3118" lon="0.56212">
        <ele>154.43</ele>
        <time>2012-07-22T08:54:48Z</time>
      </trkpt>
      <trkpt lat="44.31162" lon="0.56218">
        <ele>157.79</ele>
        <time>2012-07-22T08:55:03Z</time>
      </trkpt>
      <trkpt lat="44.31142" lon="0.56214">
        <ele>161.16</ele>
        <time>2012-07-22T08:55:19Z</time>
      </trkpt>
      <trkpt lat="44.31123" lon="0.56216">
        <ele>163.08</ele>
        <time>2012-07-22T08:55:34Z</time>
      </trkpt>
      <trkpt lat="44.31103" lon="0.56225">
        <ele>165.48</ele>
        <time>2012-07-22T08:55:50Z</time>
      </trkpt>
      <trkpt lat="44.31088" lon="0.56234">
        <ele>167.41</ele>
        <time>2012-07-22T08:56:03Z</time>
      </trkpt>
      <trkpt lat="44.3107" lon="0.56241">
        <ele>169.81</ele>
        <time>2012-07-22T08:56:17Z</time>
      </trkpt>
      <trkpt lat="44.31069" lon="0.56242">
        <ele>170.29</ele>
        <time>2012-07-22T08:56:18Z</time>
      </trkpt>
      <trkpt lat="44.31065" lon="0.56242">
        <ele>170.29</ele>
        <time>2012-07-22T08:56:21Z</time>
      </trkpt>
      <trkpt lat="44.31039" lon="0.56257">
        <ele>172.21</ele>
        <time>2012-07-22T08:56:36Z</time>
      </trkpt>
      <trkpt lat="44.31011" lon="0.5627">
        <ele>173.66</ele>
        <time>2012-07-22T08:56:48Z</time>
      </trkpt>
      <trkpt lat="44.31" lon="0.56274">
        <ele>174.62</ele>
        <time>2012-07-22T08:57:00Z</time>
      </trkpt>
      <trkpt lat="44.31001" lon="0.56273">
        <ele>174.14</ele>
        <time>2012-07-22T08:57:17Z</time>
      </trkpt>
      <trkpt lat="44.31" lon="0.56271">
        <ele>174.62</ele>
        <time>2012-07-22T08:57:32Z</time>
      </trkpt>
      <trkpt lat="44.30998" lon="0.56269">
        <ele>174.14</ele>
        <time>2012-07-22T08:57:42Z</time>
      </trkpt>
      <trkpt lat="44.30964" lon="0.56256">
        <ele>175.58</ele>
        <time>2012-07-22T08:57:56Z</time>
      </trkpt>
      <trkpt lat="44.30918" lon="0.56236">
        <ele>176.54</ele>
        <time>2012-07-22T08:58:11Z</time>
      </trkpt>
      <trkpt lat="44.30893" lon="0.56224">
        <ele>177.98</ele>
        <time>2012-07-22T08:58:20Z</time>
      </trkpt>
      <trkpt lat="44.30878" lon="0.5624">
        <ele>178.94</ele>
        <time>2012-07-22T08:58:27Z</time>
      </trkpt>
      <trkpt lat="44.30845" lon="0.56282">
        <ele>182.79</ele>
        <time>2012-07-22T08:58:42Z</time>
      </trkpt>
      <trkpt lat="44.30841" lon="0.56286">
        <ele>183.27</ele>
        <time>2012-07-22T08:58:44Z</time>
      </trkpt>
      <trkpt lat="44.30839" lon="0.56306">
        <ele>183.75</ele>
        <time>2012-07-22T08:58:49Z</time>
      </trkpt>
      <trkpt lat="44.30848" lon="0.56357">
        <ele>184.23</ele>
        <time>2012-07-22T08:59:03Z</time>
      </trkpt>
      <trkpt lat="44.30851" lon="0.56413">
        <ele>184.23</ele>
        <time>2012-07-22T08:59:15Z</time>
      </trkpt>
      <trkpt lat="44.30853" lon="0.56457">
        <ele>185.19</ele>
        <time>2012-07-22T08:59:24Z</time>
      </trkpt>
      <trkpt lat="44.30828" lon="0.56505">
        <ele>185.19</ele>
        <time>2012-07-22T08:59:36Z</time>
      </trkpt>
      <trkpt lat="44.30803" lon="0.56563">
        <ele>186.63</ele>
        <time>2012-07-22T08:59:50Z</time>
      </trkpt>
      <trkpt lat="44.30778" lon="0.56614">
        <ele>187.11</ele>
        <time>2012-07-22T09:00:03Z</time>
      </trkpt>
      <trkpt lat="44.3074" lon="0.56691">
        <ele>184.23</ele>
        <time>2012-07-22T09:00:20Z</time>
      </trkpt>
      <trkpt lat="44.30733" lon="0.56704">
        <ele>183.27</ele>
        <time>2012-07-22T09:00:25Z</time>
      </trkpt>
      <trkpt lat="44.30732" lon="0.56707">
        <ele>182.31</ele>
        <time>2012-07-22T09:00:26Z</time>
      </trkpt>
      <trkpt lat="44.30733" lon="0.56711">
        <ele>181.83</ele>
        <time>2012-07-22T09:00:27Z</time>
      </trkpt>
      <trkpt lat="44.30735" lon="0.56715">
        <ele>180.87</ele>
        <time>2012-07-22T09:00:28Z</time>
      </trkpt>
      <trkpt lat="44.30737" lon="0.56721">
        <ele>180.38</ele>
        <time>2012-07-22T09:00:29Z</time>
      </trkpt>
      <trkpt lat="44.3074" lon="0.56725">
        <ele>180.87</ele>
        <time>2012-07-22T09:00:30Z</time>
      </trkpt>
      <trkpt lat="44.30742" lon="0.56729">
        <ele>181.35</ele>
        <time>2012-07-22T09:00:31Z</time>
      </trkpt>
      <trkpt lat="44.30744" lon="0.56732">
        <ele>181.35</ele>
        <time>2012-07-22T09:00:32Z</time>
      </trkpt>
      <trkpt lat="44.30746" lon="0.56735">
        <ele>181.83</ele>
        <time>2012-07-22T09:00:33Z</time>
      </trkpt>
      <trkpt lat="44.30748" lon="0.56738">
        <ele>181.35</ele>
        <time>2012-07-22T09:00:34Z</time>
      </trkpt>
      <trkpt lat="44.3075" lon="0.5674">
        <ele>181.35</ele>
        <time>2012-07-22T09:00:35Z</time>
      </trkpt>
      <trkpt lat="44.30764" lon="0.56752">
        <ele>181.83</ele>
        <time>2012-07-22T09:00:40Z</time>
      </trkpt>
      <trkpt lat="44.30779" lon="0.56768">
        <ele>181.83</ele>
        <time>2012-07-22T09:00:45Z</time>
      </trkpt>
      <trkpt lat="44.30821" lon="0.56799">
        <ele>183.27</ele>
        <time>2012-07-22T09:00:56Z</time>
      </trkpt>
      <trkpt lat="44.30835" lon="0.56816">
        <ele>185.67</ele>
        <time>2012-07-22T09:01:03Z</time>
      </trkpt>
      <trkpt lat="44.30871" lon="0.56852">
        <ele>187.59</ele>
        <time>2012-07-22T09:01:16Z</time>
      </trkpt>
      <trkpt lat="44.30875" lon="0.56876">
        <ele>187.59</ele>
        <time>2012-07-22T09:01:21Z</time>
      </trkpt>
      <trkpt lat="44.30872" lon="0.56977">
        <ele>187.11</ele>
        <time>2012-07-22T09:01:39Z</time>
      </trkpt>
      <trkpt lat="44.30866" lon="0.57092">
        <ele>189.04</ele>
        <time>2012-07-22T09:01:58Z</time>
      </trkpt>
      <trkpt lat="44.3086" lon="0.57151">
        <ele>189.52</ele>
        <time>2012-07-22T09:02:08Z</time>
      </trkpt>
      <trkpt lat="44.30832" lon="0.57251">
        <ele>188.08</ele>
        <time>2012-07-22T09:02:24Z</time>
      </trkpt>
      <trkpt lat="44.30829" lon="0.57264">
        <ele>188.56</ele>
        <time>2012-07-22T09:02:26Z</time>
      </trkpt>
      <trkpt lat="44.30827" lon="0.5727">
        <ele>188.56</ele>
        <time>2012-07-22T09:02:27Z</time>
      </trkpt>
      <trkpt lat="44.30814" lon="0.57347">
        <ele>186.63</ele>
        <time>2012-07-22T09:02:38Z</time>
      </trkpt>
      <trkpt lat="44.30814" lon="0.57355">
        <ele>186.63</ele>
        <time>2012-07-22T09:02:39Z</time>
      </trkpt>
      <trkpt lat="44.30816" lon="0.57361">
        <ele>187.59</ele>
        <time>2012-07-22T09:02:40Z</time>
      </trkpt>
      <trkpt lat="44.30819" lon="0.57366">
        <ele>187.11</ele>
        <time>2012-07-22T09:02:41Z</time>
      </trkpt>
      <trkpt lat="44.30823" lon="0.5737">
        <ele>187.59</ele>
        <time>2012-07-22T09:02:42Z</time>
      </trkpt>
      <trkpt lat="44.30826" lon="0.57374">
        <ele>188.08</ele>
        <time>2012-07-22T09:02:43Z</time>
      </trkpt>
      <trkpt lat="44.30829" lon="0.57379">
        <ele>188.56</ele>
        <time>2012-07-22T09:02:44Z</time>
      </trkpt>
      <trkpt lat="44.30831" lon="0.57384">
        <ele>188.56</ele>
        <time>2012-07-22T09:02:45Z</time>
      </trkpt>
      <trkpt lat="44.30833" lon="0.57388">
        <ele>189.04</ele>
        <time>2012-07-22T09:02:46Z</time>
      </trkpt>
      <trkpt lat="44.30835" lon="0.57394">
        <ele>189.04</ele>
        <time>2012-07-22T09:02:47Z</time>
      </trkpt>
      <trkpt lat="44.30836" lon="0.57399">
        <ele>189.04</ele>
        <time>2012-07-22T09:02:48Z</time>
      </trkpt>
      <trkpt lat="44.30835" lon="0.57405">
        <ele>189.04</ele>
        <time>2012-07-22T09:02:49Z</time>
      </trkpt>
      <trkpt lat="44.30835" lon="0.57411">
        <ele>189.04</ele>
        <time>2012-07-22T09:02:50Z</time>
      </trkpt>
      <trkpt lat="44.30834" lon="0.57417">
        <ele>189.04</ele>
        <time>2012-07-22T09:02:51Z</time>
      </trkpt>
      <trkpt lat="44.30834" lon="0.57424">
        <ele>189.04</ele>
        <time>2012-07-22T09:02:52Z</time>
      </trkpt>
      <trkpt lat="44.30834" lon="0.5743">
        <ele>189.04</ele>
        <time>2012-07-22T09:02:53Z</time>
      </trkpt>
      <trkpt lat="44.30837" lon="0.57436">
        <ele>188.56</ele>
        <time>2012-07-22T09:02:54Z</time>
      </trkpt>
      <trkpt lat="44.30839" lon="0.57442">
        <ele>188.08</ele>
        <time>2012-07-22T09:02:55Z</time>
      </trkpt>
      <trkpt lat="44.30843" lon="0.57447">
        <ele>187.59</ele>
        <time>2012-07-22T09:02:56Z</time>
      </trkpt>
      <trkpt lat="44.30846" lon="0.57452">
        <ele>187.11</ele>
        <time>2012-07-22T09:02:57Z</time>
      </trkpt>
      <trkpt lat="44.30849" lon="0.57458">
        <ele>187.59</ele>
        <time>2012-07-22T09:02:58Z</time>
      </trkpt>
      <trkpt lat="44.3085" lon="0.57464">
        <ele>186.63</ele>
        <time>2012-07-22T09:02:59Z</time>
      </trkpt>
      <trkpt lat="44.3085" lon="0.5747">
        <ele>186.63</ele>
        <time>2012-07-22T09:03:00Z</time>
      </trkpt>
      <trkpt lat="44.30847" lon="0.57475">
        <ele>186.15</ele>
        <time>2012-07-22T09:03:01Z</time>
      </trkpt>
      <trkpt lat="44.30844" lon="0.57478">
        <ele>186.15</ele>
        <time>2012-07-22T09:03:02Z</time>
      </trkpt>
      <trkpt lat="44.3084" lon="0.57479">
        <ele>186.15</ele>
        <time>2012-07-22T09:03:03Z</time>
      </trkpt>
      <trkpt lat="44.30836" lon="0.57479">
        <ele>185.67</ele>
        <time>2012-07-22T09:03:04Z</time>
      </trkpt>
      <trkpt lat="44.30831" lon="0.57479">
        <ele>185.67</ele>
        <time>2012-07-22T09:03:05Z</time>
      </trkpt>
      <trkpt lat="44.30805" lon="0.5748">
        <ele>185.67</ele>
        <time>2012-07-22T09:03:11Z</time>
      </trkpt>
      <trkpt lat="44.30801" lon="0.5748">
        <ele>185.67</ele>
        <time>2012-07-22T09:03:12Z</time>
      </trkpt>
      <trkpt lat="44.30797" lon="0.5748">
        <ele>185.67</ele>
        <time>2012-07-22T09:03:13Z</time>
      </trkpt>
      <trkpt lat="44.30793" lon="0.5748">
        <ele>185.67</ele>
        <time>2012-07-22T09:03:14Z</time>
      </trkpt>
      <trkpt lat="44.3079" lon="0.5748">
        <ele>185.67</ele>
        <time>2012-07-22T09:03:15Z</time>
      </trkpt>
      <trkpt lat="44.30786" lon="0.57481">
        <ele>185.67</ele>
        <time>2012-07-22T09:03:16Z</time>
      </trkpt>
      <trkpt lat="44.30782" lon="0.57482">
        <ele>185.19</ele>
        <time>2012-07-22T09:03:17Z</time>
      </trkpt>
      <trkpt lat="44.30777" lon="0.57482">
        <ele>184.71</ele>
        <time>2012-07-22T09:03:18Z</time>
      </trkpt>
      <trkpt lat="44.30773" lon="0.57482">
        <ele>184.71</ele>
        <time>2012-07-22T09:03:19Z</time>
      </trkpt>
      <trkpt lat="44.30769" lon="0.57482">
        <ele>184.71</ele>
        <time>2012-07-22T09:03:20Z</time>
      </trkpt>
      <trkpt lat="44.30765" lon="0.57481">
        <ele>184.71</ele>
        <time>2012-07-22T09:03:21Z</time>
      </trkpt>
      <trkpt lat="44.30761" lon="0.57481">
        <ele>184.23</ele>
        <time>2012-07-22T09:03:22Z</time>
      </trkpt>
      <trkpt lat="44.30757" lon="0.57481">
        <ele>184.71</ele>
        <time>2012-07-22T09:03:23Z</time>
      </trkpt>
      <trkpt lat="44.30754" lon="0.57483">
        <ele>184.23</ele>
        <time>2012-07-22T09:03:24Z</time>
      </trkpt>
      <trkpt lat="44.30751" lon="0.57487">
        <ele>183.27</ele>
        <time>2012-07-22T09:03:25Z</time>
      </trkpt>
      <trkpt lat="44.30749" lon="0.57492">
        <ele>183.27</ele>
        <time>2012-07-22T09:03:26Z</time>
      </trkpt>
      <trkpt lat="44.30746" lon="0.57498">
        <ele>182.79</ele>
        <time>2012-07-22T09:03:27Z</time>
      </trkpt>
      <trkpt lat="44.30743" lon="0.57503">
        <ele>181.83</ele>
        <time>2012-07-22T09:03:28Z</time>
      </trkpt>
      <trkpt lat="44.30731" lon="0.5752">
        <ele>178.94</ele>
        <time>2012-07-22T09:03:31Z</time>
      </trkpt>
      <trkpt lat="44.30724" lon="0.57531">
        <ele>177.5</ele>
        <time>2012-07-22T09:03:33Z</time>
      </trkpt>
      <trkpt lat="44.30713" lon="0.57528">
        <ele>174.14</ele>
        <time>2012-07-22T09:03:37Z</time>
      </trkpt>
      <trkpt lat="44.30691" lon="0.57539">
        <ele>168.85</ele>
        <time>2012-07-22T09:03:42Z</time>
      </trkpt>
      <trkpt lat="44.30683" lon="0.57557">
        <ele>166.93</ele>
        <time>2012-07-22T09:03:44Z</time>
      </trkpt>
      <trkpt lat="44.30667" lon="0.57607">
        <ele>161.64</ele>
        <time>2012-07-22T09:03:49Z</time>
      </trkpt>
      <trkpt lat="44.30665" lon="0.57616">
        <ele>161.16</ele>
        <time>2012-07-22T09:03:50Z</time>
      </trkpt>
      <trkpt lat="44.30664" lon="0.57625">
        <ele>160.2</ele>
        <time>2012-07-22T09:03:51Z</time>
      </trkpt>
      <trkpt lat="44.30656" lon="0.57647">
        <ele>158.75</ele>
        <time>2012-07-22T09:03:56Z</time>
      </trkpt>
      <trkpt lat="44.30663" lon="0.57662">
        <ele>157.31</ele>
        <time>2012-07-22T09:04:03Z</time>
      </trkpt>
      <trkpt lat="44.30657" lon="0.57677">
        <ele>156.35</ele>
        <time>2012-07-22T09:04:07Z</time>
      </trkpt>
      <trkpt lat="44.30654" lon="0.57681">
        <ele>155.87</ele>
        <time>2012-07-22T09:04:08Z</time>
      </trkpt>
      <trkpt lat="44.30644" lon="0.57697">
        <ele>154.43</ele>
        <time>2012-07-22T09:04:11Z</time>
      </trkpt>
      <trkpt lat="44.30641" lon="0.577">
        <ele>153.95</ele>
        <time>2012-07-22T09:04:12Z</time>
      </trkpt>
      <trkpt lat="44.30637" lon="0.57703">
        <ele>152.99</ele>
        <time>2012-07-22T09:04:13Z</time>
      </trkpt>
      <trkpt lat="44.30633" lon="0.57706">
        <ele>152.51</ele>
        <time>2012-07-22T09:04:14Z</time>
      </trkpt>
      <trkpt lat="44.30627" lon="0.57709">
        <ele>151.54</ele>
        <time>2012-07-22T09:04:15Z</time>
      </trkpt>
      <trkpt lat="44.3062" lon="0.57712">
        <ele>149.62</ele>
        <time>2012-07-22T09:04:16Z</time>
      </trkpt>
      <trkpt lat="44.306" lon="0.57719">
        <ele>145.78</ele>
        <time>2012-07-22T09:04:19Z</time>
      </trkpt>
      <trkpt lat="44.30594" lon="0.5772">
        <ele>144.34</ele>
        <time>2012-07-22T09:04:20Z</time>
      </trkpt>
      <trkpt lat="44.30585" lon="0.57726">
        <ele>142.89</ele>
        <time>2012-07-22T09:04:22Z</time>
      </trkpt>
      <trkpt lat="44.30583" lon="0.57731">
        <ele>141.93</ele>
        <time>2012-07-22T09:04:23Z</time>
      </trkpt>
      <trkpt lat="44.30582" lon="0.57738">
        <ele>141.45</ele>
        <time>2012-07-22T09:04:24Z</time>
      </trkpt>
      <trkpt lat="44.30582" lon="0.57747">
        <ele>140.49</ele>
        <time>2012-07-22T09:04:25Z</time>
      </trkpt>
      <trkpt lat="44.30583" lon="0.57755">
        <ele>139.05</ele>
        <time>2012-07-22T09:04:26Z</time>
      </trkpt>
      <trkpt lat="44.30585" lon="0.57766">
        <ele>137.61</ele>
        <time>2012-07-22T09:04:27Z</time>
      </trkpt>
      <trkpt lat="44.30587" lon="0.57775">
        <ele>135.2</ele>
        <time>2012-07-22T09:04:28Z</time>
      </trkpt>
      <trkpt lat="44.30595" lon="0.57808">
        <ele>130.88</ele>
        <time>2012-07-22T09:04:32Z</time>
      </trkpt>
      <trkpt lat="44.30597" lon="0.57817">
        <ele>130.4</ele>
        <time>2012-07-22T09:04:33Z</time>
      </trkpt>
      <trkpt lat="44.30601" lon="0.57835">
        <ele>128.47</ele>
        <time>2012-07-22T09:04:36Z</time>
      </trkpt>
      <trkpt lat="44.30605" lon="0.57846">
        <ele>127.51</ele>
        <time>2012-07-22T09:04:39Z</time>
      </trkpt>
      <trkpt lat="44.30606" lon="0.57849">
        <ele>127.03</ele>
        <time>2012-07-22T09:04:40Z</time>
      </trkpt>
      <trkpt lat="44.30607" lon="0.57853">
        <ele>126.07</ele>
        <time>2012-07-22T09:04:41Z</time>
      </trkpt>
      <trkpt lat="44.3061" lon="0.57859">
        <ele>125.59</ele>
        <time>2012-07-22T09:04:42Z</time>
      </trkpt>
      <trkpt lat="44.30613" lon="0.57866">
        <ele>125.11</ele>
        <time>2012-07-22T09:04:43Z</time>
      </trkpt>
      <trkpt lat="44.30616" lon="0.57872">
        <ele>125.11</ele>
        <time>2012-07-22T09:04:44Z</time>
      </trkpt>
      <trkpt lat="44.30626" lon="0.57898">
        <ele>125.59</ele>
        <time>2012-07-22T09:04:49Z</time>
      </trkpt>
      <trkpt lat="44.30644" lon="0.57949">
        <ele>127.99</ele>
        <time>2012-07-22T09:04:59Z</time>
      </trkpt>
      <trkpt lat="44.30652" lon="0.57965">
        <ele>130.88</ele>
        <time>2012-07-22T09:05:03Z</time>
      </trkpt>
      <trkpt lat="44.30669" lon="0.58006">
        <ele>130.88</ele>
        <time>2012-07-22T09:05:13Z</time>
      </trkpt>
      <trkpt lat="44.3069" lon="0.58053">
        <ele>132.32</ele>
        <time>2012-07-22T09:05:24Z</time>
      </trkpt>
      <trkpt lat="44.30707" lon="0.58088">
        <ele>134.24</ele>
        <time>2012-07-22T09:05:34Z</time>
      </trkpt>
      <trkpt lat="44.30723" lon="0.58119">
        <ele>136.16</ele>
        <time>2012-07-22T09:05:44Z</time>
      </trkpt>
      <trkpt lat="44.30742" lon="0.58154">
        <ele>136.16</ele>
        <time>2012-07-22T09:05:52Z</time>
      </trkpt>
      <trkpt lat="44.30748" lon="0.58166">
        <ele>135.68</ele>
        <time>2012-07-22T09:05:54Z</time>
      </trkpt>
      <trkpt lat="44.30756" lon="0.5819">
        <ele>135.2</ele>
        <time>2012-07-22T09:05:58Z</time>
      </trkpt>
      <trkpt lat="44.30765" lon="0.58212">
        <ele>135.2</ele>
        <time>2012-07-22T09:06:02Z</time>
      </trkpt>
      <trkpt lat="44.30782" lon="0.58244">
        <ele>134.72</ele>
        <time>2012-07-22T09:06:11Z</time>
      </trkpt>
      <trkpt lat="44.30797" lon="0.58263">
        <ele>134.24</ele>
        <time>2012-07-22T09:06:19Z</time>
      </trkpt>
      <trkpt lat="44.30801" lon="0.58275">
        <ele>134.24</ele>
        <time>2012-07-22T09:06:34Z</time>
      </trkpt>
      <trkpt lat="44.30809" lon="0.583">
        <ele>132.32</ele>
        <time>2012-07-22T09:06:38Z</time>
      </trkpt>
      <trkpt lat="44.30819" lon="0.58334">
        <ele>130.4</ele>
        <time>2012-07-22T09:06:43Z</time>
      </trkpt>
      <trkpt lat="44.30838" lon="0.58357">
        <ele>129.92</ele>
        <time>2012-07-22T09:06:52Z</time>
      </trkpt>
      <trkpt lat="44.30855" lon="0.58421">
        <ele>129.92</ele>
        <time>2012-07-22T09:07:04Z</time>
      </trkpt>
      <trkpt lat="44.30858" lon="0.58455">
        <ele>129.43</ele>
        <time>2012-07-22T09:07:09Z</time>
      </trkpt>
      <trkpt lat="44.30846" lon="0.58531">
        <ele>126.55</ele>
        <time>2012-07-22T09:07:19Z</time>
      </trkpt>
      <trkpt lat="44.30832" lon="0.58564">
        <ele>123.19</ele>
        <time>2012-07-22T09:07:23Z</time>
      </trkpt>
      <trkpt lat="44.30799" lon="0.58605">
        <ele>119.34</ele>
        <time>2012-07-22T09:07:28Z</time>
      </trkpt>
      <trkpt lat="44.30778" lon="0.58631">
        <ele>117.9</ele>
        <time>2012-07-22T09:07:32Z</time>
      </trkpt>
      <trkpt lat="44.30775" lon="0.58635">
        <ele>117.9</ele>
        <time>2012-07-22T09:07:33Z</time>
      </trkpt>
      <trkpt lat="44.30773" lon="0.58638">
        <ele>118.38</ele>
        <time>2012-07-22T09:07:42Z</time>
      </trkpt>
      <trkpt lat="44.30772" lon="0.58638">
        <ele>117.9</ele>
        <time>2012-07-22T09:07:58Z</time>
      </trkpt>
      <trkpt lat="44.30772" lon="0.58639">
        <ele>116.94</ele>
        <time>2012-07-22T09:08:24Z</time>
      </trkpt>
      <trkpt lat="44.30773" lon="0.58639">
        <ele>117.9</ele>
        <time>2012-07-22T09:08:51Z</time>
      </trkpt>
      <trkpt lat="44.30773" lon="0.58639">
        <ele>117.42</ele>
        <time>2012-07-22T09:09:11Z</time>
      </trkpt>
      <trkpt lat="44.30773" lon="0.58639">
        <ele>117.9</ele>
        <time>2012-07-22T09:09:32Z</time>
      </trkpt>
      <trkpt lat="44.30773" lon="0.5864">
        <ele>117.42</ele>
        <time>2012-07-22T09:09:56Z</time>
      </trkpt>
      <trkpt lat="44.30771" lon="0.58644">
        <ele>116.94</ele>
        <time>2012-07-22T09:10:04Z</time>
      </trkpt>
      <trkpt lat="44.30762" lon="0.58689">
        <ele>114.05</ele>
        <time>2012-07-22T09:10:16Z</time>
      </trkpt>
      <trkpt lat="44.30769" lon="0.58705">
        <ele>114.05</ele>
        <time>2012-07-22T09:10:20Z</time>
      </trkpt>
      <trkpt lat="44.30801" lon="0.5878">
        <ele>113.57</ele>
        <time>2012-07-22T09:10:36Z</time>
      </trkpt>
      <trkpt lat="44.30836" lon="0.5886">
        <ele>114.53</ele>
        <time>2012-07-22T09:10:53Z</time>
      </trkpt>
      <trkpt lat="44.30864" lon="0.58924">
        <ele>115.5</ele>
        <time>2012-07-22T09:11:07Z</time>
      </trkpt>
      <trkpt lat="44.30898" lon="0.59005">
        <ele>117.42</ele>
        <time>2012-07-22T09:11:25Z</time>
      </trkpt>
      <trkpt lat="44.30897" lon="0.59009">
        <ele>117.42</ele>
        <time>2012-07-22T09:11:26Z</time>
      </trkpt>
      <trkpt lat="44.30894" lon="0.59011">
        <ele>116.46</ele>
        <time>2012-07-22T09:11:27Z</time>
      </trkpt>
      <trkpt lat="44.3089" lon="0.59013">
        <ele>116.46</ele>
        <time>2012-07-22T09:11:28Z</time>
      </trkpt>
      <trkpt lat="44.30886" lon="0.59015">
        <ele>115.98</ele>
        <time>2012-07-22T09:11:29Z</time>
      </trkpt>
      <trkpt lat="44.3087" lon="0.59021">
        <ele>115.01</ele>
        <time>2012-07-22T09:11:33Z</time>
      </trkpt>
      <trkpt lat="44.30812" lon="0.59047">
        <ele>112.13</ele>
        <time>2012-07-22T09:11:44Z</time>
      </trkpt>
      <trkpt lat="44.30778" lon="0.59074">
        <ele>110.69</ele>
        <time>2012-07-22T09:11:51Z</time>
      </trkpt>
      <trkpt lat="44.30774" lon="0.59079">
        <ele>110.69</ele>
        <time>2012-07-22T09:11:52Z</time>
      </trkpt>
      <trkpt lat="44.30771" lon="0.59086">
        <ele>110.69</ele>
        <time>2012-07-22T09:11:53Z</time>
      </trkpt>
      <trkpt lat="44.30769" lon="0.59093">
        <ele>110.69</ele>
        <time>2012-07-22T09:11:54Z</time>
      </trkpt>
      <trkpt lat="44.30768" lon="0.591">
        <ele>110.21</ele>
        <time>2012-07-22T09:11:55Z</time>
      </trkpt>
      <trkpt lat="44.30767" lon="0.59107">
        <ele>110.21</ele>
        <time>2012-07-22T09:11:56Z</time>
      </trkpt>
      <trkpt lat="44.30766" lon="0.59114">
        <ele>109.73</ele>
        <time>2012-07-22T09:11:57Z</time>
      </trkpt>
      <trkpt lat="44.30767" lon="0.59127">
        <ele>109.73</ele>
        <time>2012-07-22T09:11:59Z</time>
      </trkpt>
      <trkpt lat="44.30773" lon="0.5915">
        <ele>109.25</ele>
        <time>2012-07-22T09:12:03Z</time>
      </trkpt>
      <trkpt lat="44.30774" lon="0.59157">
        <ele>109.25</ele>
        <time>2012-07-22T09:12:04Z</time>
      </trkpt>
      <trkpt lat="44.30773" lon="0.59163">
        <ele>109.25</ele>
        <time>2012-07-22T09:12:05Z</time>
      </trkpt>
      <trkpt lat="44.30772" lon="0.59169">
        <ele>109.25</ele>
        <time>2012-07-22T09:12:06Z</time>
      </trkpt>
      <trkpt lat="44.3077" lon="0.59175">
        <ele>108.77</ele>
        <time>2012-07-22T09:12:07Z</time>
      </trkpt>
      <trkpt lat="44.30768" lon="0.5918">
        <ele>109.25</ele>
        <time>2012-07-22T09:12:08Z</time>
      </trkpt>
      <trkpt lat="44.30766" lon="0.59184">
        <ele>109.73</ele>
        <time>2012-07-22T09:12:09Z</time>
      </trkpt>
      <trkpt lat="44.30764" lon="0.59189">
        <ele>110.21</ele>
        <time>2012-07-22T09:12:10Z</time>
      </trkpt>
      <trkpt lat="44.30763" lon="0.59192">
        <ele>110.69</ele>
        <time>2012-07-22T09:12:11Z</time>
      </trkpt>
      <trkpt lat="44.30761" lon="0.59196">
        <ele>110.69</ele>
        <time>2012-07-22T09:12:12Z</time>
      </trkpt>
      <trkpt lat="44.3076" lon="0.59202">
        <ele>110.21</ele>
        <time>2012-07-22T09:12:13Z</time>
      </trkpt>
      <trkpt lat="44.30758" lon="0.59208">
        <ele>110.21</ele>
        <time>2012-07-22T09:12:14Z</time>
      </trkpt>
      <trkpt lat="44.30756" lon="0.59214">
        <ele>109.73</ele>
        <time>2012-07-22T09:12:15Z</time>
      </trkpt>
      <trkpt lat="44.30753" lon="0.59219">
        <ele>109.25</ele>
        <time>2012-07-22T09:12:16Z</time>
      </trkpt>
      <trkpt lat="44.30751" lon="0.59225">
        <ele>109.25</ele>
        <time>2012-07-22T09:12:17Z</time>
      </trkpt>
      <trkpt lat="44.30748" lon="0.5923">
        <ele>109.25</ele>
        <time>2012-07-22T09:12:18Z</time>
      </trkpt>
      <trkpt lat="44.30746" lon="0.59235">
        <ele>109.73</ele>
        <time>2012-07-22T09:12:19Z</time>
      </trkpt>
      <trkpt lat="44.30743" lon="0.59239">
        <ele>109.73</ele>
        <time>2012-07-22T09:12:20Z</time>
      </trkpt>
      <trkpt lat="44.30741" lon="0.59242">
        <ele>110.21</ele>
        <time>2012-07-22T09:12:21Z</time>
      </trkpt>
      <trkpt lat="44.30728" lon="0.59248">
        <ele>110.21</ele>
        <time>2012-07-22T09:12:25Z</time>
      </trkpt>
      <trkpt lat="44.30726" lon="0.59247">
        <ele>110.21</ele>
        <time>2012-07-22T09:12:26Z</time>
      </trkpt>
      <trkpt lat="44.30685" lon="0.59219">
        <ele>111.17</ele>
        <time>2012-07-22T09:12:40Z</time>
      </trkpt>
      <trkpt lat="44.3067" lon="0.59208">
        <ele>111.65</ele>
        <time>2012-07-22T09:12:47Z</time>
      </trkpt>
      <trkpt lat="44.30668" lon="0.59206">
        <ele>111.65</ele>
        <time>2012-07-22T09:12:48Z</time>
      </trkpt>
      <trkpt lat="44.30636" lon="0.59182">
        <ele>113.57</ele>
        <time>2012-07-22T09:13:00Z</time>
      </trkpt>
      <trkpt lat="44.30617" lon="0.59166">
        <ele>116.94</ele>
        <time>2012-07-22T09:13:09Z</time>
      </trkpt>
      <trkpt lat="44.30594" lon="0.59145">
        <ele>119.34</ele>
        <time>2012-07-22T09:13:21Z</time>
      </trkpt>
      <trkpt lat="44.30592" lon="0.59142">
        <ele>118.86</ele>
        <time>2012-07-22T09:13:22Z</time>
      </trkpt>
      <trkpt lat="44.3059" lon="0.5914">
        <ele>119.34</ele>
        <time>2012-07-22T09:13:23Z</time>
      </trkpt>
      <trkpt lat="44.30588" lon="0.59138">
        <ele>119.82</ele>
        <time>2012-07-22T09:13:24Z</time>
      </trkpt>
      <trkpt lat="44.30587" lon="0.59135">
        <ele>119.82</ele>
        <time>2012-07-22T09:13:25Z</time>
      </trkpt>
      <trkpt lat="44.30585" lon="0.59132">
        <ele>119.82</ele>
        <time>2012-07-22T09:13:26Z</time>
      </trkpt>
      <trkpt lat="44.30583" lon="0.5913">
        <ele>119.82</ele>
        <time>2012-07-22T09:13:27Z</time>
      </trkpt>
      <trkpt lat="44.30581" lon="0.59128">
        <ele>120.3</ele>
        <time>2012-07-22T09:13:28Z</time>
      </trkpt>
      <trkpt lat="44.30568" lon="0.59116">
        <ele>120.78</ele>
        <time>2012-07-22T09:13:34Z</time>
      </trkpt>
      <trkpt lat="44.30566" lon="0.59114">
        <ele>121.26</ele>
        <time>2012-07-22T09:13:35Z</time>
      </trkpt>
      <trkpt lat="44.30564" lon="0.59113">
        <ele>121.26</ele>
        <time>2012-07-22T09:13:36Z</time>
      </trkpt>
      <trkpt lat="44.30539" lon="0.591">
        <ele>122.22</ele>
        <time>2012-07-22T09:13:47Z</time>
      </trkpt>
      <trkpt lat="44.30514" lon="0.5909">
        <ele>123.67</ele>
        <time>2012-07-22T09:13:58Z</time>
      </trkpt>
      <trkpt lat="44.30491" lon="0.59079">
        <ele>125.59</ele>
        <time>2012-07-22T09:14:08Z</time>
      </trkpt>
      <trkpt lat="44.30467" lon="0.59066">
        <ele>127.99</ele>
        <time>2012-07-22T09:14:22Z</time>
      </trkpt>
      <trkpt lat="44.30454" lon="0.59057">
        <ele>130.4</ele>
        <time>2012-07-22T09:14:32Z</time>
      </trkpt>
      <trkpt lat="44.30446" lon="0.59053">
        <ele>131.84</ele>
        <time>2012-07-22T09:14:36Z</time>
      </trkpt>
      <trkpt lat="44.30439" lon="0.59047">
        <ele>132.8</ele>
        <time>2012-07-22T09:14:40Z</time>
      </trkpt>
      <trkpt lat="44.30423" lon="0.59041">
        <ele>134.24</ele>
        <time>2012-07-22T09:14:49Z</time>
      </trkpt>
      <trkpt lat="44.30402" lon="0.5904">
        <ele>135.68</ele>
        <time>2012-07-22T09:15:01Z</time>
      </trkpt>
      <trkpt lat="44.30387" lon="0.59042">
        <ele>134.24</ele>
        <time>2012-07-22T09:15:10Z</time>
      </trkpt>
      <trkpt lat="44.30387" lon="0.5905">
        <ele>134.24</ele>
        <time>2012-07-22T09:15:14Z</time>
      </trkpt>
      <trkpt lat="44.30386" lon="0.59054">
        <ele>134.72</ele>
        <time>2012-07-22T09:15:16Z</time>
      </trkpt>
      <trkpt lat="44.30381" lon="0.59083">
        <ele>137.61</ele>
        <time>2012-07-22T09:15:31Z</time>
      </trkpt>
      <trkpt lat="44.3038" lon="0.59101">
        <ele>138.09</ele>
        <time>2012-07-22T09:15:41Z</time>
      </trkpt>
      <trkpt lat="44.30374" lon="0.59139">
        <ele>139.05</ele>
        <time>2012-07-22T09:15:53Z</time>
      </trkpt>
      <trkpt lat="44.30369" lon="0.59192">
        <ele>138.09</ele>
        <time>2012-07-22T09:16:03Z</time>
      </trkpt>
      <trkpt lat="44.30369" lon="0.59198">
        <ele>138.57</ele>
        <time>2012-07-22T09:16:04Z</time>
      </trkpt>
      <trkpt lat="44.30368" lon="0.59205">
        <ele>138.09</ele>
        <time>2012-07-22T09:16:05Z</time>
      </trkpt>
      <trkpt lat="44.30367" lon="0.5921">
        <ele>138.09</ele>
        <time>2012-07-22T09:16:06Z</time>
      </trkpt>
      <trkpt lat="44.30366" lon="0.59216">
        <ele>138.09</ele>
        <time>2012-07-22T09:16:07Z</time>
      </trkpt>
      <trkpt lat="44.30356" lon="0.59298">
        <ele>138.09</ele>
        <time>2012-07-22T09:16:19Z</time>
      </trkpt>
      <trkpt lat="44.30354" lon="0.59312">
        <ele>138.09</ele>
        <time>2012-07-22T09:16:21Z</time>
      </trkpt>
      <trkpt lat="44.30352" lon="0.59346">
        <ele>137.13</ele>
        <time>2012-07-22T09:16:26Z</time>
      </trkpt>
      <trkpt lat="44.30347" lon="0.5941">
        <ele>134.24</ele>
        <time>2012-07-22T09:16:36Z</time>
      </trkpt>
      <trkpt lat="44.30347" lon="0.59417">
        <ele>134.24</ele>
        <time>2012-07-22T09:16:37Z</time>
      </trkpt>
      <trkpt lat="44.30345" lon="0.59442">
        <ele>133.28</ele>
        <time>2012-07-22T09:16:41Z</time>
      </trkpt>
      <trkpt lat="44.30342" lon="0.59481">
        <ele>129.92</ele>
        <time>2012-07-22T09:16:49Z</time>
      </trkpt>
      <trkpt lat="44.30334" lon="0.595">
        <ele>128.47</ele>
        <time>2012-07-22T09:16:59Z</time>
      </trkpt>
      <trkpt lat="44.30327" lon="0.59502">
        <ele>128.47</ele>
        <time>2012-07-22T09:17:03Z</time>
      </trkpt>
      <trkpt lat="44.30324" lon="0.59502">
        <ele>127.03</ele>
        <time>2012-07-22T09:17:04Z</time>
      </trkpt>
      <trkpt lat="44.30321" lon="0.59502">
        <ele>126.55</ele>
        <time>2012-07-22T09:17:05Z</time>
      </trkpt>
      <trkpt lat="44.30317" lon="0.59502">
        <ele>125.59</ele>
        <time>2012-07-22T09:17:06Z</time>
      </trkpt>
      <trkpt lat="44.30312" lon="0.59503">
        <ele>125.59</ele>
        <time>2012-07-22T09:17:07Z</time>
      </trkpt>
      <trkpt lat="44.30308" lon="0.59504">
        <ele>125.11</ele>
        <time>2012-07-22T09:17:08Z</time>
      </trkpt>
      <trkpt lat="44.30304" lon="0.59505">
        <ele>125.11</ele>
        <time>2012-07-22T09:17:09Z</time>
      </trkpt>
      <trkpt lat="44.303" lon="0.59507">
        <ele>124.63</ele>
        <time>2012-07-22T09:17:10Z</time>
      </trkpt>
      <trkpt lat="44.30296" lon="0.5951">
        <ele>124.63</ele>
        <time>2012-07-22T09:17:11Z</time>
      </trkpt>
      <trkpt lat="44.30271" lon="0.59524">
        <ele>125.11</ele>
        <time>2012-07-22T09:17:21Z</time>
      </trkpt>
      <trkpt lat="44.30271" lon="0.59524">
        <ele>118.38</ele>
        <time>2012-07-22T09:17:22Z</time>
      </trkpt>
      <trkpt lat="44.30271" lon="0.59524">
        <ele>126.07</ele>
        <time>2012-07-22T09:17:23Z</time>
      </trkpt>
      <trkpt lat="44.30271" lon="0.59525">
        <ele>122.71</ele>
        <time>2012-07-22T09:17:43Z</time>
      </trkpt>
      <trkpt lat="44.30271" lon="0.59525">
        <ele>126.07</ele>
        <time>2012-07-22T09:17:44Z</time>
      </trkpt>
      <trkpt lat="44.30272" lon="0.59525">
        <ele>125.59</ele>
        <time>2012-07-22T09:18:11Z</time>
      </trkpt>
      <trkpt lat="44.30272" lon="0.59525">
        <ele>125.59</ele>
        <time>2012-07-22T09:18:46Z</time>
      </trkpt>
      <trkpt lat="44.30271" lon="0.59525">
        <ele>125.11</ele>
        <time>2012-07-22T09:19:08Z</time>
      </trkpt>
      <trkpt lat="44.30272" lon="0.59526">
        <ele>125.11</ele>
        <time>2012-07-22T09:19:31Z</time>
      </trkpt>
      <trkpt lat="44.30271" lon="0.59525">
        <ele>125.59</ele>
        <time>2012-07-22T09:19:56Z</time>
      </trkpt>
      <trkpt lat="44.30266" lon="0.59527">
        <ele>125.59</ele>
        <time>2012-07-22T09:20:14Z</time>
      </trkpt>
      <trkpt lat="44.30229" lon="0.59549">
        <ele>127.03</ele>
        <time>2012-07-22T09:20:29Z</time>
      </trkpt>
      <trkpt lat="44.30201" lon="0.59563">
        <ele>129.92</ele>
        <time>2012-07-22T09:20:41Z</time>
      </trkpt>
      <trkpt lat="44.30179" lon="0.59575">
        <ele>132.8</ele>
        <time>2012-07-22T09:20:53Z</time>
      </trkpt>
      <trkpt lat="44.30178" lon="0.59576">
        <ele>133.28</ele>
        <time>2012-07-22T09:20:54Z</time>
      </trkpt>
      <trkpt lat="44.30176" lon="0.5958">
        <ele>133.76</ele>
        <time>2012-07-22T09:20:56Z</time>
      </trkpt>
      <trkpt lat="44.30176" lon="0.59582">
        <ele>134.72</ele>
        <time>2012-07-22T09:20:57Z</time>
      </trkpt>
      <trkpt lat="44.30175" lon="0.59584">
        <ele>134.24</ele>
        <time>2012-07-22T09:20:58Z</time>
      </trkpt>
      <trkpt lat="44.30174" lon="0.59602">
        <ele>135.68</ele>
        <time>2012-07-22T09:21:05Z</time>
      </trkpt>
      <trkpt lat="44.30177" lon="0.59625">
        <ele>136.64</ele>
        <time>2012-07-22T09:21:15Z</time>
      </trkpt>
      <trkpt lat="44.3018" lon="0.59636">
        <ele>137.61</ele>
        <time>2012-07-22T09:21:19Z</time>
      </trkpt>
      <trkpt lat="44.30182" lon="0.59668">
        <ele>140.01</ele>
        <time>2012-07-22T09:21:32Z</time>
      </trkpt>
      <trkpt lat="44.30178" lon="0.59695">
        <ele>141.93</ele>
        <time>2012-07-22T09:21:45Z</time>
      </trkpt>
      <trkpt lat="44.30169" lon="0.59712">
        <ele>145.3</ele>
        <time>2012-07-22T09:21:57Z</time>
      </trkpt>
      <trkpt lat="44.30156" lon="0.59726">
        <ele>148.18</ele>
        <time>2012-07-22T09:22:12Z</time>
      </trkpt>
      <trkpt lat="44.30144" lon="0.59732">
        <ele>150.1</ele>
        <time>2012-07-22T09:22:25Z</time>
      </trkpt>
      <trkpt lat="44.30141" lon="0.59733">
        <ele>151.06</ele>
        <time>2012-07-22T09:22:28Z</time>
      </trkpt>
      <trkpt lat="44.30144" lon="0.59721">
        <ele>152.03</ele>
        <time>2012-07-22T09:22:39Z</time>
      </trkpt>
      <trkpt lat="44.30161" lon="0.59713">
        <ele>150.58</ele>
        <time>2012-07-22T09:22:43Z</time>
      </trkpt>
      <trkpt lat="44.30168" lon="0.59705">
        <ele>150.58</ele>
        <time>2012-07-22T09:22:45Z</time>
      </trkpt>
      <trkpt lat="44.3017" lon="0.59698">
        <ele>150.1</ele>
        <time>2012-07-22T09:22:46Z</time>
      </trkpt>
      <trkpt lat="44.3017" lon="0.59691">
        <ele>150.1</ele>
        <time>2012-07-22T09:22:47Z</time>
      </trkpt>
      <trkpt lat="44.30169" lon="0.59685">
        <ele>150.58</ele>
        <time>2012-07-22T09:22:48Z</time>
      </trkpt>
      <trkpt lat="44.30167" lon="0.5968">
        <ele>150.1</ele>
        <time>2012-07-22T09:22:49Z</time>
      </trkpt>
      <trkpt lat="44.30166" lon="0.59676">
        <ele>150.58</ele>
        <time>2012-07-22T09:22:50Z</time>
      </trkpt>
      <trkpt lat="44.30165" lon="0.59672">
        <ele>150.58</ele>
        <time>2012-07-22T09:22:51Z</time>
      </trkpt>
      <trkpt lat="44.30164" lon="0.59669">
        <ele>150.58</ele>
        <time>2012-07-22T09:22:52Z</time>
      </trkpt>
      <trkpt lat="44.30163" lon="0.59665">
        <ele>150.58</ele>
        <time>2012-07-22T09:22:53Z</time>
      </trkpt>
      <trkpt lat="44.30156" lon="0.59655">
        <ele>150.1</ele>
        <time>2012-07-22T09:22:56Z</time>
      </trkpt>
      <trkpt lat="44.30152" lon="0.59654">
        <ele>150.1</ele>
        <time>2012-07-22T09:22:57Z</time>
      </trkpt>
      <trkpt lat="44.30148" lon="0.59654">
        <ele>149.62</ele>
        <time>2012-07-22T09:22:58Z</time>
      </trkpt>
      <trkpt lat="44.30124" lon="0.59651">
        <ele>151.54</ele>
        <time>2012-07-22T09:23:07Z</time>
      </trkpt>
      <trkpt lat="44.30117" lon="0.59647">
        <ele>150.58</ele>
        <time>2012-07-22T09:23:09Z</time>
      </trkpt>
      <trkpt lat="44.30113" lon="0.59647">
        <ele>150.58</ele>
        <time>2012-07-22T09:23:10Z</time>
      </trkpt>
      <trkpt lat="44.30109" lon="0.59648">
        <ele>150.58</ele>
        <time>2012-07-22T09:23:11Z</time>
      </trkpt>
      <trkpt lat="44.30106" lon="0.59649">
        <ele>151.06</ele>
        <time>2012-07-22T09:23:12Z</time>
      </trkpt>
      <trkpt lat="44.30103" lon="0.59651">
        <ele>151.54</ele>
        <time>2012-07-22T09:23:13Z</time>
      </trkpt>
      <trkpt lat="44.30101" lon="0.59653">
        <ele>151.54</ele>
        <time>2012-07-22T09:23:14Z</time>
      </trkpt>
      <trkpt lat="44.30098" lon="0.59654">
        <ele>152.51</ele>
        <time>2012-07-22T09:23:15Z</time>
      </trkpt>
      <trkpt lat="44.30096" lon="0.59655">
        <ele>152.99</ele>
        <time>2012-07-22T09:23:16Z</time>
      </trkpt>
      <trkpt lat="44.30095" lon="0.59657">
        <ele>152.99</ele>
        <time>2012-07-22T09:23:17Z</time>
      </trkpt>
      <trkpt lat="44.30093" lon="0.59658">
        <ele>153.47</ele>
        <time>2012-07-22T09:23:18Z</time>
      </trkpt>
      <trkpt lat="44.30079" lon="0.59672">
        <ele>155.87</ele>
        <time>2012-07-22T09:23:30Z</time>
      </trkpt>
      <trkpt lat="44.30079" lon="0.59675">
        <ele>155.39</ele>
        <time>2012-07-22T09:23:32Z</time>
      </trkpt>
      <trkpt lat="44.3008" lon="0.59676">
        <ele>155.87</ele>
        <time>2012-07-22T09:23:33Z</time>
      </trkpt>
      <trkpt lat="44.3008" lon="0.59678">
        <ele>156.35</ele>
        <time>2012-07-22T09:23:34Z</time>
      </trkpt>
      <trkpt lat="44.30082" lon="0.59684">
        <ele>157.31</ele>
        <time>2012-07-22T09:23:39Z</time>
      </trkpt>
      <trkpt lat="44.3008" lon="0.59687">
        <ele>157.79</ele>
        <time>2012-07-22T09:23:42Z</time>
      </trkpt>
      <trkpt lat="44.30079" lon="0.59688">
        <ele>158.75</ele>
        <time>2012-07-22T09:23:43Z</time>
      </trkpt>
      <trkpt lat="44.30071" lon="0.59698">
        <ele>160.68</ele>
        <time>2012-07-22T09:23:53Z</time>
      </trkpt>
      <trkpt lat="44.30066" lon="0.59701">
        <ele>161.64</ele>
        <time>2012-07-22T09:23:58Z</time>
      </trkpt>
      <trkpt lat="44.30058" lon="0.59709">
        <ele>163.56</ele>
        <time>2012-07-22T09:24:08Z</time>
      </trkpt>
      <trkpt lat="44.30053" lon="0.59713">
        <ele>164.52</ele>
        <time>2012-07-22T09:24:13Z</time>
      </trkpt>
      <trkpt lat="44.30045" lon="0.59718">
        <ele>167.41</ele>
        <time>2012-07-22T09:24:23Z</time>
      </trkpt>
      <trkpt lat="44.30035" lon="0.59722">
        <ele>170.77</ele>
        <time>2012-07-22T09:24:34Z</time>
      </trkpt>
      <trkpt lat="44.30033" lon="0.59725">
        <ele>170.77</ele>
        <time>2012-07-22T09:24:53Z</time>
      </trkpt>
      <trkpt lat="44.30032" lon="0.59725">
        <ele>170.29</ele>
        <time>2012-07-22T09:25:10Z</time>
      </trkpt>
      <trkpt lat="44.30022" lon="0.59727">
        <ele>173.17</ele>
        <time>2012-07-22T09:25:30Z</time>
      </trkpt>
      <trkpt lat="44.30012" lon="0.59731">
        <ele>176.06</ele>
        <time>2012-07-22T09:25:37Z</time>
      </trkpt>
      <trkpt lat="44.30007" lon="0.59732">
        <ele>177.5</ele>
        <time>2012-07-22T09:25:50Z</time>
      </trkpt>
      <trkpt lat="44.30006" lon="0.59732">
        <ele>177.5</ele>
        <time>2012-07-22T09:26:07Z</time>
      </trkpt>
      <trkpt lat="44.30004" lon="0.59732">
        <ele>177.98</ele>
        <time>2012-07-22T09:26:18Z</time>
      </trkpt>
      <trkpt lat="44.30002" lon="0.59731">
        <ele>177.5</ele>
        <time>2012-07-22T09:26:19Z</time>
      </trkpt>
      <trkpt lat="44.29991" lon="0.59725">
        <ele>176.54</ele>
        <time>2012-07-22T09:26:22Z</time>
      </trkpt>
      <trkpt lat="44.29963" lon="0.59717">
        <ele>177.98</ele>
        <time>2012-07-22T09:26:31Z</time>
      </trkpt>
      <trkpt lat="44.29962" lon="0.59718">
        <ele>178.46</ele>
        <time>2012-07-22T09:26:32Z</time>
      </trkpt>
      <trkpt lat="44.29961" lon="0.5972">
        <ele>179.42</ele>
        <time>2012-07-22T09:26:33Z</time>
      </trkpt>
      <trkpt lat="44.29961" lon="0.59723">
        <ele>179.42</ele>
        <time>2012-07-22T09:26:34Z</time>
      </trkpt>
      <trkpt lat="44.2996" lon="0.59731">
        <ele>180.38</ele>
        <time>2012-07-22T09:26:38Z</time>
      </trkpt>
      <trkpt lat="44.29958" lon="0.59743">
        <ele>181.83</ele>
        <time>2012-07-22T09:26:46Z</time>
      </trkpt>
      <trkpt lat="44.29957" lon="0.59744">
        <ele>182.79</ele>
        <time>2012-07-22T09:26:47Z</time>
      </trkpt>
      <trkpt lat="44.29957" lon="0.59746">
        <ele>182.79</ele>
        <time>2012-07-22T09:26:48Z</time>
      </trkpt>
      <trkpt lat="44.29957" lon="0.59748">
        <ele>183.27</ele>
        <time>2012-07-22T09:26:49Z</time>
      </trkpt>
      <trkpt lat="44.29956" lon="0.5975">
        <ele>182.79</ele>
        <time>2012-07-22T09:26:50Z</time>
      </trkpt>
      <trkpt lat="44.29945" lon="0.59768">
        <ele>184.71</ele>
        <time>2012-07-22T09:27:03Z</time>
      </trkpt>
      <trkpt lat="44.29943" lon="0.59769">
        <ele>184.71</ele>
        <time>2012-07-22T09:27:04Z</time>
      </trkpt>
      <trkpt lat="44.29942" lon="0.59769">
        <ele>185.19</ele>
        <time>2012-07-22T09:27:05Z</time>
      </trkpt>
      <trkpt lat="44.2994" lon="0.5977">
        <ele>185.19</ele>
        <time>2012-07-22T09:27:06Z</time>
      </trkpt>
      <trkpt lat="44.29939" lon="0.59771">
        <ele>185.19</ele>
        <time>2012-07-22T09:27:07Z</time>
      </trkpt>
      <trkpt lat="44.29938" lon="0.59772">
        <ele>185.67</ele>
        <time>2012-07-22T09:27:08Z</time>
      </trkpt>
      <trkpt lat="44.29937" lon="0.59773">
        <ele>185.67</ele>
        <time>2012-07-22T09:27:09Z</time>
      </trkpt>
      <trkpt lat="44.29936" lon="0.59774">
        <ele>186.15</ele>
        <time>2012-07-22T09:27:10Z</time>
      </trkpt>
      <trkpt lat="44.29934" lon="0.59775">
        <ele>186.15</ele>
        <time>2012-07-22T09:27:11Z</time>
      </trkpt>
      <trkpt lat="44.29933" lon="0.59776">
        <ele>185.67</ele>
        <time>2012-07-22T09:27:12Z</time>
      </trkpt>
      <trkpt lat="44.29912" lon="0.59792">
        <ele>188.56</ele>
        <time>2012-07-22T09:27:28Z</time>
      </trkpt>
      <trkpt lat="44.29888" lon="0.59807">
        <ele>189.52</ele>
        <time>2012-07-22T09:27:42Z</time>
      </trkpt>
      <trkpt lat="44.29858" lon="0.59821">
        <ele>190.48</ele>
        <time>2012-07-22T09:27:56Z</time>
      </trkpt>
      <trkpt lat="44.29815" lon="0.59834">
        <ele>190.96</ele>
        <time>2012-07-22T09:28:12Z</time>
      </trkpt>
      <trkpt lat="44.29782" lon="0.59833">
        <ele>189.04</ele>
        <time>2012-07-22T09:28:20Z</time>
      </trkpt>
      <trkpt lat="44.29764" lon="0.59833">
        <ele>187.11</ele>
        <time>2012-07-22T09:28:23Z</time>
      </trkpt>
      <trkpt lat="44.29732" lon="0.59826">
        <ele>182.79</ele>
        <time>2012-07-22T09:28:27Z</time>
      </trkpt>
      <trkpt lat="44.29713" lon="0.59821">
        <ele>179.42</ele>
        <time>2012-07-22T09:28:30Z</time>
      </trkpt>
      <trkpt lat="44.2971" lon="0.59821">
        <ele>178.94</ele>
        <time>2012-07-22T09:28:31Z</time>
      </trkpt>
      <trkpt lat="44.29706" lon="0.59824">
        <ele>178.46</ele>
        <time>2012-07-22T09:28:32Z</time>
      </trkpt>
      <trkpt lat="44.29703" lon="0.5983">
        <ele>177.5</ele>
        <time>2012-07-22T09:28:33Z</time>
      </trkpt>
      <trkpt lat="44.29698" lon="0.59843">
        <ele>176.54</ele>
        <time>2012-07-22T09:28:35Z</time>
      </trkpt>
      <trkpt lat="44.29688" lon="0.59865">
        <ele>173.66</ele>
        <time>2012-07-22T09:28:38Z</time>
      </trkpt>
      <trkpt lat="44.29681" lon="0.59871">
        <ele>172.21</ele>
        <time>2012-07-22T09:28:39Z</time>
      </trkpt>
      <trkpt lat="44.29665" lon="0.59881">
        <ele>169.33</ele>
        <time>2012-07-22T09:28:41Z</time>
      </trkpt>
      <trkpt lat="44.29643" lon="0.59887">
        <ele>165.96</ele>
        <time>2012-07-22T09:28:43Z</time>
      </trkpt>
      <trkpt lat="44.29611" lon="0.59891">
        <ele>162.12</ele>
        <time>2012-07-22T09:28:46Z</time>
      </trkpt>
      <trkpt lat="44.29601" lon="0.59893">
        <ele>161.16</ele>
        <time>2012-07-22T09:28:47Z</time>
      </trkpt>
      <trkpt lat="44.29593" lon="0.59892">
        <ele>160.2</ele>
        <time>2012-07-22T09:28:48Z</time>
      </trkpt>
      <trkpt lat="44.29585" lon="0.59893">
        <ele>159.72</ele>
        <time>2012-07-22T09:28:49Z</time>
      </trkpt>
      <trkpt lat="44.29578" lon="0.59893">
        <ele>158.75</ele>
        <time>2012-07-22T09:28:50Z</time>
      </trkpt>
      <trkpt lat="44.2957" lon="0.59895">
        <ele>157.79</ele>
        <time>2012-07-22T09:28:51Z</time>
      </trkpt>
      <trkpt lat="44.29563" lon="0.59898">
        <ele>156.83</ele>
        <time>2012-07-22T09:28:52Z</time>
      </trkpt>
      <trkpt lat="44.29556" lon="0.59901">
        <ele>155.39</ele>
        <time>2012-07-22T09:28:53Z</time>
      </trkpt>
      <trkpt lat="44.29548" lon="0.59902">
        <ele>154.43</ele>
        <time>2012-07-22T09:28:54Z</time>
      </trkpt>
      <trkpt lat="44.29524" lon="0.59904">
        <ele>150.1</ele>
        <time>2012-07-22T09:28:57Z</time>
      </trkpt>
      <trkpt lat="44.29518" lon="0.59903">
        <ele>150.1</ele>
        <time>2012-07-22T09:28:58Z</time>
      </trkpt>
      <trkpt lat="44.29513" lon="0.59903">
        <ele>149.62</ele>
        <time>2012-07-22T09:28:59Z</time>
      </trkpt>
      <trkpt lat="44.2951" lon="0.59902">
        <ele>150.1</ele>
        <time>2012-07-22T09:29:00Z</time>
      </trkpt>
      <trkpt lat="44.29507" lon="0.599">
        <ele>149.62</ele>
        <time>2012-07-22T09:29:01Z</time>
      </trkpt>
      <trkpt lat="44.29504" lon="0.59899">
        <ele>150.1</ele>
        <time>2012-07-22T09:29:02Z</time>
      </trkpt>
      <trkpt lat="44.29502" lon="0.59898">
        <ele>149.62</ele>
        <time>2012-07-22T09:29:03Z</time>
      </trkpt>
      <trkpt lat="44.295" lon="0.59898">
        <ele>150.1</ele>
        <time>2012-07-22T09:29:04Z</time>
      </trkpt>
      <trkpt lat="44.29498" lon="0.59899">
        <ele>150.1</ele>
        <time>2012-07-22T09:29:05Z</time>
      </trkpt>
      <trkpt lat="44.29496" lon="0.599">
        <ele>150.1</ele>
        <time>2012-07-22T09:29:06Z</time>
      </trkpt>
      <trkpt lat="44.29493" lon="0.59902">
        <ele>149.62</ele>
        <time>2012-07-22T09:29:08Z</time>
      </trkpt>
      <trkpt lat="44.29491" lon="0.59902">
        <ele>150.1</ele>
        <time>2012-07-22T09:29:09Z</time>
      </trkpt>
      <trkpt lat="44.29461" lon="0.59913">
        <ele>150.58</ele>
        <time>2012-07-22T09:29:22Z</time>
      </trkpt>
      <trkpt lat="44.29442" lon="0.59921">
        <ele>153.47</ele>
        <time>2012-07-22T09:29:30Z</time>
      </trkpt>
      <trkpt lat="44.29432" lon="0.59923">
        <ele>154.91</ele>
        <time>2012-07-22T09:29:34Z</time>
      </trkpt>
      <trkpt lat="44.2943" lon="0.59921">
        <ele>155.39</ele>
        <time>2012-07-22T09:29:35Z</time>
      </trkpt>
      <trkpt lat="44.29415" lon="0.59912">
        <ele>157.31</ele>
        <time>2012-07-22T09:29:45Z</time>
      </trkpt>
      <trkpt lat="44.29414" lon="0.59912">
        <ele>157.31</ele>
        <time>2012-07-22T09:29:46Z</time>
      </trkpt>
      <trkpt lat="44.29412" lon="0.59911">
        <ele>157.79</ele>
        <time>2012-07-22T09:29:47Z</time>
      </trkpt>
      <trkpt lat="44.29407" lon="0.59908">
        <ele>158.27</ele>
        <time>2012-07-22T09:29:52Z</time>
      </trkpt>
      <trkpt lat="44.29397" lon="0.599">
        <ele>160.2</ele>
        <time>2012-07-22T09:30:02Z</time>
      </trkpt>
      <trkpt lat="44.29396" lon="0.59899">
        <ele>160.2</ele>
        <time>2012-07-22T09:30:03Z</time>
      </trkpt>
      <trkpt lat="44.29393" lon="0.59897">
        <ele>160.68</ele>
        <time>2012-07-22T09:30:06Z</time>
      </trkpt>
      <trkpt lat="44.2939" lon="0.59895">
        <ele>161.16</ele>
        <time>2012-07-22T09:30:09Z</time>
      </trkpt>
      <trkpt lat="44.29389" lon="0.59895">
        <ele>161.64</ele>
        <time>2012-07-22T09:30:10Z</time>
      </trkpt>
      <trkpt lat="44.29377" lon="0.59886">
        <ele>163.56</ele>
        <time>2012-07-22T09:30:24Z</time>
      </trkpt>
      <trkpt lat="44.29361" lon="0.59873">
        <ele>166.45</ele>
        <time>2012-07-22T09:30:41Z</time>
      </trkpt>
      <trkpt lat="44.29347" lon="0.59863">
        <ele>169.33</ele>
        <time>2012-07-22T09:30:56Z</time>
      </trkpt>
      <trkpt lat="44.29331" lon="0.59853">
        <ele>172.21</ele>
        <time>2012-07-22T09:31:12Z</time>
      </trkpt>
      <trkpt lat="44.29319" lon="0.59843">
        <ele>174.62</ele>
        <time>2012-07-22T09:31:26Z</time>
      </trkpt>
      <trkpt lat="44.29313" lon="0.59837">
        <ele>176.54</ele>
        <time>2012-07-22T09:31:33Z</time>
      </trkpt>
      <trkpt lat="44.29312" lon="0.59837">
        <ele>177.02</ele>
        <time>2012-07-22T09:31:34Z</time>
      </trkpt>
      <trkpt lat="44.29311" lon="0.59838">
        <ele>177.02</ele>
        <time>2012-07-22T09:31:35Z</time>
      </trkpt>
      <trkpt lat="44.2931" lon="0.59838">
        <ele>177.02</ele>
        <time>2012-07-22T09:31:36Z</time>
      </trkpt>
      <trkpt lat="44.29298" lon="0.59848">
        <ele>179.9</ele>
        <time>2012-07-22T09:31:51Z</time>
      </trkpt>
      <trkpt lat="44.29293" lon="0.59856">
        <ele>180.38</ele>
        <time>2012-07-22T09:31:58Z</time>
      </trkpt>
      <trkpt lat="44.29285" lon="0.59871">
        <ele>180.38</ele>
        <time>2012-07-22T09:32:09Z</time>
      </trkpt>
      <trkpt lat="44.29275" lon="0.59885">
        <ele>181.35</ele>
        <time>2012-07-22T09:32:20Z</time>
      </trkpt>
      <trkpt lat="44.29274" lon="0.59886">
        <ele>180.87</ele>
        <time>2012-07-22T09:32:21Z</time>
      </trkpt>
      <trkpt lat="44.29272" lon="0.59886">
        <ele>180.87</ele>
        <time>2012-07-22T09:32:22Z</time>
      </trkpt>
      <trkpt lat="44.29257" lon="0.59882">
        <ele>182.31</ele>
        <time>2012-07-22T09:32:35Z</time>
      </trkpt>
      <trkpt lat="44.29255" lon="0.59881">
        <ele>182.79</ele>
        <time>2012-07-22T09:32:37Z</time>
      </trkpt>
      <trkpt lat="44.29254" lon="0.5988">
        <ele>182.79</ele>
        <time>2012-07-22T09:32:38Z</time>
      </trkpt>
      <trkpt lat="44.29247" lon="0.59872">
        <ele>183.27</ele>
        <time>2012-07-22T09:32:48Z</time>
      </trkpt>
      <trkpt lat="44.29244" lon="0.5987">
        <ele>183.75</ele>
        <time>2012-07-22T09:32:52Z</time>
      </trkpt>
      <trkpt lat="44.29243" lon="0.59869">
        <ele>183.75</ele>
        <time>2012-07-22T09:32:53Z</time>
      </trkpt>
      <trkpt lat="44.29242" lon="0.59868">
        <ele>184.23</ele>
        <time>2012-07-22T09:32:54Z</time>
      </trkpt>
      <trkpt lat="44.2924" lon="0.59866">
        <ele>184.23</ele>
        <time>2012-07-22T09:32:55Z</time>
      </trkpt>
      <trkpt lat="44.29239" lon="0.59864">
        <ele>184.23</ele>
        <time>2012-07-22T09:32:56Z</time>
      </trkpt>
      <trkpt lat="44.29238" lon="0.59863">
        <ele>184.23</ele>
        <time>2012-07-22T09:32:57Z</time>
      </trkpt>
      <trkpt lat="44.29236" lon="0.59859">
        <ele>184.23</ele>
        <time>2012-07-22T09:32:59Z</time>
      </trkpt>
      <trkpt lat="44.29235" lon="0.59857">
        <ele>184.23</ele>
        <time>2012-07-22T09:33:00Z</time>
      </trkpt>
      <trkpt lat="44.29213" lon="0.59826">
        <ele>185.19</ele>
        <time>2012-07-22T09:33:13Z</time>
      </trkpt>
      <trkpt lat="44.29183" lon="0.598">
        <ele>187.11</ele>
        <time>2012-07-22T09:33:27Z</time>
      </trkpt>
      <trkpt lat="44.29151" lon="0.59774">
        <ele>187.59</ele>
        <time>2012-07-22T09:33:41Z</time>
      </trkpt>
      <trkpt lat="44.29121" lon="0.59746">
        <ele>190</ele>
        <time>2012-07-22T09:33:54Z</time>
      </trkpt>
      <trkpt lat="44.29082" lon="0.59713">
        <ele>190.96</ele>
        <time>2012-07-22T09:34:07Z</time>
      </trkpt>
      <trkpt lat="44.29079" lon="0.59711">
        <ele>190.48</ele>
        <time>2012-07-22T09:34:08Z</time>
      </trkpt>
      <trkpt lat="44.29077" lon="0.59709">
        <ele>190</ele>
        <time>2012-07-22T09:34:09Z</time>
      </trkpt>
      <trkpt lat="44.29075" lon="0.59707">
        <ele>190</ele>
        <time>2012-07-22T09:34:10Z</time>
      </trkpt>
      <trkpt lat="44.29074" lon="0.59706">
        <ele>190</ele>
        <time>2012-07-22T09:34:11Z</time>
      </trkpt>
      <trkpt lat="44.29073" lon="0.59705">
        <ele>190.48</ele>
        <time>2012-07-22T09:34:12Z</time>
      </trkpt>
      <trkpt lat="44.29071" lon="0.59704">
        <ele>189.52</ele>
        <time>2012-07-22T09:34:13Z</time>
      </trkpt>
      <trkpt lat="44.2907" lon="0.59703">
        <ele>190</ele>
        <time>2012-07-22T09:34:14Z</time>
      </trkpt>
      <trkpt lat="44.29068" lon="0.59704">
        <ele>189.52</ele>
        <time>2012-07-22T09:34:15Z</time>
      </trkpt>
      <trkpt lat="44.29066" lon="0.59706">
        <ele>189.52</ele>
        <time>2012-07-22T09:34:16Z</time>
      </trkpt>
      <trkpt lat="44.29066" lon="0.59707">
        <ele>189.52</ele>
        <time>2012-07-22T09:34:17Z</time>
      </trkpt>
      <trkpt lat="44.29065" lon="0.5971">
        <ele>190</ele>
        <time>2012-07-22T09:34:18Z</time>
      </trkpt>
      <trkpt lat="44.29065" lon="0.59712">
        <ele>190</ele>
        <time>2012-07-22T09:34:19Z</time>
      </trkpt>
      <trkpt lat="44.29066" lon="0.59714">
        <ele>190</ele>
        <time>2012-07-22T09:34:20Z</time>
      </trkpt>
      <trkpt lat="44.29066" lon="0.59716">
        <ele>190</ele>
        <time>2012-07-22T09:34:21Z</time>
      </trkpt>
      <trkpt lat="44.29066" lon="0.59718">
        <ele>190.48</ele>
        <time>2012-07-22T09:34:22Z</time>
      </trkpt>
      <trkpt lat="44.29066" lon="0.5972">
        <ele>190.48</ele>
        <time>2012-07-22T09:34:23Z</time>
      </trkpt>
      <trkpt lat="44.29067" lon="0.59722">
        <ele>190.48</ele>
        <time>2012-07-22T09:34:24Z</time>
      </trkpt>
      <trkpt lat="44.29067" lon="0.59723">
        <ele>190.96</ele>
        <time>2012-07-22T09:34:25Z</time>
      </trkpt>
      <trkpt lat="44.29068" lon="0.59725">
        <ele>191.44</ele>
        <time>2012-07-22T09:34:26Z</time>
      </trkpt>
      <trkpt lat="44.29068" lon="0.59727">
        <ele>190.96</ele>
        <time>2012-07-22T09:34:27Z</time>
      </trkpt>
      <trkpt lat="44.29068" lon="0.59729">
        <ele>191.44</ele>
        <time>2012-07-22T09:34:28Z</time>
      </trkpt>
      <trkpt lat="44.29068" lon="0.59731">
        <ele>191.44</ele>
        <time>2012-07-22T09:34:29Z</time>
      </trkpt>
      <trkpt lat="44.29068" lon="0.59733">
        <ele>191.92</ele>
        <time>2012-07-22T09:34:30Z</time>
      </trkpt>
      <trkpt lat="44.29068" lon="0.59735">
        <ele>191.44</ele>
        <time>2012-07-22T09:34:31Z</time>
      </trkpt>
      <trkpt lat="44.29068" lon="0.59738">
        <ele>191.44</ele>
        <time>2012-07-22T09:34:32Z</time>
      </trkpt>
      <trkpt lat="44.29069" lon="0.5974">
        <ele>191.92</ele>
        <time>2012-07-22T09:34:33Z</time>
      </trkpt>
      <trkpt lat="44.29066" lon="0.59757">
        <ele>192.88</ele>
        <time>2012-07-22T09:34:40Z</time>
      </trkpt>
      <trkpt lat="44.2906" lon="0.59769">
        <ele>193.36</ele>
        <time>2012-07-22T09:34:46Z</time>
      </trkpt>
      <trkpt lat="44.2906" lon="0.59771">
        <ele>193.36</ele>
        <time>2012-07-22T09:34:47Z</time>
      </trkpt>
      <trkpt lat="44.29051" lon="0.59796">
        <ele>194.8</ele>
        <time>2012-07-22T09:34:57Z</time>
      </trkpt>
      <trkpt lat="44.2905" lon="0.59799">
        <ele>194.8</ele>
        <time>2012-07-22T09:34:58Z</time>
      </trkpt>
      <trkpt lat="44.29036" lon="0.59841">
        <ele>195.77</ele>
        <time>2012-07-22T09:35:09Z</time>
      </trkpt>
      <trkpt lat="44.29024" lon="0.59881">
        <ele>197.21</ele>
        <time>2012-07-22T09:35:21Z</time>
      </trkpt>
      <trkpt lat="44.29015" lon="0.59904">
        <ele>198.65</ele>
        <time>2012-07-22T09:35:29Z</time>
      </trkpt>
      <trkpt lat="44.29014" lon="0.59906">
        <ele>199.13</ele>
        <time>2012-07-22T09:35:30Z</time>
      </trkpt>
      <trkpt lat="44.29013" lon="0.59909">
        <ele>198.65</ele>
        <time>2012-07-22T09:35:31Z</time>
      </trkpt>
      <trkpt lat="44.29012" lon="0.59912">
        <ele>198.65</ele>
        <time>2012-07-22T09:35:32Z</time>
      </trkpt>
      <trkpt lat="44.29011" lon="0.59915">
        <ele>199.13</ele>
        <time>2012-07-22T09:35:33Z</time>
      </trkpt>
      <trkpt lat="44.29009" lon="0.59918">
        <ele>199.13</ele>
        <time>2012-07-22T09:35:34Z</time>
      </trkpt>
      <trkpt lat="44.28992" lon="0.59954">
        <ele>201.05</ele>
        <time>2012-07-22T09:35:47Z</time>
      </trkpt>
      <trkpt lat="44.28978" lon="0.59987">
        <ele>202.98</ele>
        <time>2012-07-22T09:35:59Z</time>
      </trkpt>
      <trkpt lat="44.28972" lon="0.60014">
        <ele>203.94</ele>
        <time>2012-07-22T09:36:08Z</time>
      </trkpt>
      <trkpt lat="44.28971" lon="0.60017">
        <ele>203.94</ele>
        <time>2012-07-22T09:36:09Z</time>
      </trkpt>
      <trkpt lat="44.2897" lon="0.6002">
        <ele>203.94</ele>
        <time>2012-07-22T09:36:10Z</time>
      </trkpt>
      <trkpt lat="44.28969" lon="0.60023">
        <ele>204.42</ele>
        <time>2012-07-22T09:36:11Z</time>
      </trkpt>
      <trkpt lat="44.28968" lon="0.60027">
        <ele>204.42</ele>
        <time>2012-07-22T09:36:12Z</time>
      </trkpt>
      <trkpt lat="44.28957" lon="0.60069">
        <ele>205.86</ele>
        <time>2012-07-22T09:36:24Z</time>
      </trkpt>
      <trkpt lat="44.28943" lon="0.60116">
        <ele>206.34</ele>
        <time>2012-07-22T09:36:37Z</time>
      </trkpt>
      <trkpt lat="44.28936" lon="0.60149">
        <ele>207.3</ele>
        <time>2012-07-22T09:36:47Z</time>
      </trkpt>
      <trkpt lat="44.28935" lon="0.60152">
        <ele>207.3</ele>
        <time>2012-07-22T09:36:48Z</time>
      </trkpt>
      <trkpt lat="44.28923" lon="0.60194">
        <ele>207.3</ele>
        <time>2012-07-22T09:36:58Z</time>
      </trkpt>
      <trkpt lat="44.28912" lon="0.6024">
        <ele>208.26</ele>
        <time>2012-07-22T09:37:08Z</time>
      </trkpt>
      <trkpt lat="44.289" lon="0.60291">
        <ele>209.22</ele>
        <time>2012-07-22T09:37:20Z</time>
      </trkpt>
      <trkpt lat="44.28888" lon="0.60328">
        <ele>209.7</ele>
        <time>2012-07-22T09:37:29Z</time>
      </trkpt>
      <trkpt lat="44.28884" lon="0.60355">
        <ele>210.19</ele>
        <time>2012-07-22T09:37:35Z</time>
      </trkpt>
      <trkpt lat="44.28884" lon="0.60359">
        <ele>209.7</ele>
        <time>2012-07-22T09:37:36Z</time>
      </trkpt>
      <trkpt lat="44.28884" lon="0.60361">
        <ele>209.7</ele>
        <time>2012-07-22T09:37:37Z</time>
      </trkpt>
      <trkpt lat="44.28885" lon="0.60364">
        <ele>209.22</ele>
        <time>2012-07-22T09:37:38Z</time>
      </trkpt>
      <trkpt lat="44.28886" lon="0.60366">
        <ele>209.22</ele>
        <time>2012-07-22T09:37:39Z</time>
      </trkpt>
      <trkpt lat="44.28888" lon="0.60367">
        <ele>208.74</ele>
        <time>2012-07-22T09:37:40Z</time>
      </trkpt>
      <trkpt lat="44.28898" lon="0.6037">
        <ele>206.34</ele>
        <time>2012-07-22T09:37:43Z</time>
      </trkpt>
      <trkpt lat="44.28904" lon="0.60371">
        <ele>205.38</ele>
        <time>2012-07-22T09:37:44Z</time>
      </trkpt>
      <trkpt lat="44.28913" lon="0.60375">
        <ele>203.94</ele>
        <time>2012-07-22T09:37:46Z</time>
      </trkpt>
      <trkpt lat="44.28918" lon="0.60377">
        <ele>203.46</ele>
        <time>2012-07-22T09:37:47Z</time>
      </trkpt>
      <trkpt lat="44.28927" lon="0.6038">
        <ele>201.05</ele>
        <time>2012-07-22T09:37:49Z</time>
      </trkpt>
      <trkpt lat="44.28932" lon="0.60383">
        <ele>199.61</ele>
        <time>2012-07-22T09:37:50Z</time>
      </trkpt>
      <trkpt lat="44.28946" lon="0.60392">
        <ele>196.73</ele>
        <time>2012-07-22T09:37:53Z</time>
      </trkpt>
      <trkpt lat="44.28966" lon="0.60401">
        <ele>192.88</ele>
        <time>2012-07-22T09:37:57Z</time>
      </trkpt>
      <trkpt lat="44.28971" lon="0.60404">
        <ele>191.92</ele>
        <time>2012-07-22T09:37:58Z</time>
      </trkpt>
      <trkpt lat="44.28976" lon="0.60407">
        <ele>190.96</ele>
        <time>2012-07-22T09:37:59Z</time>
      </trkpt>
      <trkpt lat="44.28982" lon="0.6041">
        <ele>190</ele>
        <time>2012-07-22T09:38:00Z</time>
      </trkpt>
      <trkpt lat="44.29014" lon="0.60426">
        <ele>186.63</ele>
        <time>2012-07-22T09:38:05Z</time>
      </trkpt>
      <trkpt lat="44.29026" lon="0.60433">
        <ele>186.15</ele>
        <time>2012-07-22T09:38:07Z</time>
      </trkpt>
      <trkpt lat="44.29033" lon="0.60437">
        <ele>186.15</ele>
        <time>2012-07-22T09:38:08Z</time>
      </trkpt>
      <trkpt lat="44.2904" lon="0.6044">
        <ele>186.15</ele>
        <time>2012-07-22T09:38:09Z</time>
      </trkpt>
      <trkpt lat="44.29071" lon="0.60453">
        <ele>186.63</ele>
        <time>2012-07-22T09:38:17Z</time>
      </trkpt>
      <trkpt lat="44.29077" lon="0.60453">
        <ele>186.63</ele>
        <time>2012-07-22T09:38:38Z</time>
      </trkpt>
      <trkpt lat="44.29079" lon="0.60454">
        <ele>187.11</ele>
        <time>2012-07-22T09:38:59Z</time>
      </trkpt>
      <trkpt lat="44.29094" lon="0.60464">
        <ele>186.15</ele>
        <time>2012-07-22T09:39:15Z</time>
      </trkpt>
      <trkpt lat="44.29098" lon="0.60467">
        <ele>185.19</ele>
        <time>2012-07-22T09:39:16Z</time>
      </trkpt>
      <trkpt lat="44.2914" lon="0.605">
        <ele>184.71</ele>
        <time>2012-07-22T09:39:28Z</time>
      </trkpt>
      <trkpt lat="44.29143" lon="0.60502">
        <ele>185.19</ele>
        <time>2012-07-22T09:39:29Z</time>
      </trkpt>
      <trkpt lat="44.29179" lon="0.60526">
        <ele>185.19</ele>
        <time>2012-07-22T09:39:41Z</time>
      </trkpt>
      <trkpt lat="44.29193" lon="0.60533">
        <ele>184.23</ele>
        <time>2012-07-22T09:39:45Z</time>
      </trkpt>
      <trkpt lat="44.29257" lon="0.60578">
        <ele>183.75</ele>
        <time>2012-07-22T09:40:02Z</time>
      </trkpt>
      <trkpt lat="44.29282" lon="0.60598">
        <ele>181.83</ele>
        <time>2012-07-22T09:40:08Z</time>
      </trkpt>
      <trkpt lat="44.29302" lon="0.60614">
        <ele>179.9</ele>
        <time>2012-07-22T09:40:12Z</time>
      </trkpt>
      <trkpt lat="44.29312" lon="0.60622">
        <ele>178.94</ele>
        <time>2012-07-22T09:40:14Z</time>
      </trkpt>
      <trkpt lat="44.29323" lon="0.60633">
        <ele>177.02</ele>
        <time>2012-07-22T09:40:16Z</time>
      </trkpt>
      <trkpt lat="44.29328" lon="0.60641">
        <ele>176.54</ele>
        <time>2012-07-22T09:40:17Z</time>
      </trkpt>
      <trkpt lat="44.29333" lon="0.60654">
        <ele>175.58</ele>
        <time>2012-07-22T09:40:18Z</time>
      </trkpt>
      <trkpt lat="44.29337" lon="0.60667">
        <ele>174.62</ele>
        <time>2012-07-22T09:40:19Z</time>
      </trkpt>
      <trkpt lat="44.2934" lon="0.60678">
        <ele>173.17</ele>
        <time>2012-07-22T09:40:20Z</time>
      </trkpt>
      <trkpt lat="44.29344" lon="0.60692">
        <ele>172.69</ele>
        <time>2012-07-22T09:40:23Z</time>
      </trkpt>
      <trkpt lat="44.29345" lon="0.60696">
        <ele>173.17</ele>
        <time>2012-07-22T09:40:24Z</time>
      </trkpt>
      <trkpt lat="44.29345" lon="0.60699">
        <ele>173.17</ele>
        <time>2012-07-22T09:40:25Z</time>
      </trkpt>
      <trkpt lat="44.29346" lon="0.60701">
        <ele>172.69</ele>
        <time>2012-07-22T09:40:26Z</time>
      </trkpt>
      <trkpt lat="44.29347" lon="0.60703">
        <ele>172.21</ele>
        <time>2012-07-22T09:40:27Z</time>
      </trkpt>
      <trkpt lat="44.29348" lon="0.60705">
        <ele>172.69</ele>
        <time>2012-07-22T09:40:28Z</time>
      </trkpt>
      <trkpt lat="44.29349" lon="0.60707">
        <ele>172.21</ele>
        <time>2012-07-22T09:40:29Z</time>
      </trkpt>
      <trkpt lat="44.29352" lon="0.60708">
        <ele>171.73</ele>
        <time>2012-07-22T09:40:30Z</time>
      </trkpt>
      <trkpt lat="44.29355" lon="0.60709">
        <ele>171.25</ele>
        <time>2012-07-22T09:40:31Z</time>
      </trkpt>
      <trkpt lat="44.2936" lon="0.60711">
        <ele>170.77</ele>
        <time>2012-07-22T09:40:32Z</time>
      </trkpt>
      <trkpt lat="44.29365" lon="0.60713">
        <ele>169.81</ele>
        <time>2012-07-22T09:40:33Z</time>
      </trkpt>
      <trkpt lat="44.29391" lon="0.60725">
        <ele>166.45</ele>
        <time>2012-07-22T09:40:37Z</time>
      </trkpt>
      <trkpt lat="44.29415" lon="0.60735">
        <ele>164.52</ele>
        <time>2012-07-22T09:40:40Z</time>
      </trkpt>
      <trkpt lat="44.2945" lon="0.60749">
        <ele>163.08</ele>
        <time>2012-07-22T09:40:44Z</time>
      </trkpt>
      <trkpt lat="44.29534" lon="0.6077">
        <ele>166.45</ele>
        <time>2012-07-22T09:40:54Z</time>
      </trkpt>
      <trkpt lat="44.29541" lon="0.60771">
        <ele>166.45</ele>
        <time>2012-07-22T09:40:55Z</time>
      </trkpt>
      <trkpt lat="44.29561" lon="0.60776">
        <ele>169.81</ele>
        <time>2012-07-22T09:41:00Z</time>
      </trkpt>
      <trkpt lat="44.29574" lon="0.60778">
        <ele>172.69</ele>
        <time>2012-07-22T09:41:07Z</time>
      </trkpt>
      <trkpt lat="44.29578" lon="0.60778">
        <ele>174.14</ele>
        <time>2012-07-22T09:41:10Z</time>
      </trkpt>
      <trkpt lat="44.29589" lon="0.60781">
        <ele>176.54</ele>
        <time>2012-07-22T09:41:20Z</time>
      </trkpt>
      <trkpt lat="44.29591" lon="0.60782">
        <ele>176.54</ele>
        <time>2012-07-22T09:41:21Z</time>
      </trkpt>
      <trkpt lat="44.29592" lon="0.60783">
        <ele>177.02</ele>
        <time>2012-07-22T09:41:22Z</time>
      </trkpt>
      <trkpt lat="44.29594" lon="0.60783">
        <ele>177.02</ele>
        <time>2012-07-22T09:41:23Z</time>
      </trkpt>
      <trkpt lat="44.29595" lon="0.60783">
        <ele>177.5</ele>
        <time>2012-07-22T09:41:24Z</time>
      </trkpt>
      <trkpt lat="44.29598" lon="0.60784">
        <ele>178.46</ele>
        <time>2012-07-22T09:41:27Z</time>
      </trkpt>
      <trkpt lat="44.29599" lon="0.60784">
        <ele>178.46</ele>
        <time>2012-07-22T09:41:28Z</time>
      </trkpt>
      <trkpt lat="44.29601" lon="0.60784">
        <ele>178.46</ele>
        <time>2012-07-22T09:41:29Z</time>
      </trkpt>
      <trkpt lat="44.2961" lon="0.60784">
        <ele>180.38</ele>
        <time>2012-07-22T09:41:43Z</time>
      </trkpt>
      <trkpt lat="44.2961" lon="0.60784">
        <ele>180.38</ele>
        <time>2012-07-22T09:42:04Z</time>
      </trkpt>
      <trkpt lat="44.2961" lon="0.60782">
        <ele>180.87</ele>
        <time>2012-07-22T09:42:33Z</time>
      </trkpt>
      <trkpt lat="44.29611" lon="0.60782">
        <ele>179.9</ele>
        <time>2012-07-22T09:43:06Z</time>
      </trkpt>
      <trkpt lat="44.29612" lon="0.60782">
        <ele>181.35</ele>
        <time>2012-07-22T09:43:35Z</time>
      </trkpt>
      <trkpt lat="44.29613" lon="0.60783">
        <ele>180.87</ele>
        <time>2012-07-22T09:43:59Z</time>
      </trkpt>
      <trkpt lat="44.29612" lon="0.60782">
        <ele>180.87</ele>
        <time>2012-07-22T09:44:34Z</time>
      </trkpt>
      <trkpt lat="44.29613" lon="0.60781">
        <ele>181.35</ele>
        <time>2012-07-22T09:45:09Z</time>
      </trkpt>
      <trkpt lat="44.29614" lon="0.60782">
        <ele>181.35</ele>
        <time>2012-07-22T09:45:42Z</time>
      </trkpt>
      <trkpt lat="44.29614" lon="0.60782">
        <ele>181.83</ele>
        <time>2012-07-22T09:46:12Z</time>
      </trkpt>
      <trkpt lat="44.29615" lon="0.6078">
        <ele>181.35</ele>
        <time>2012-07-22T09:46:48Z</time>
      </trkpt>
      <trkpt lat="44.29615" lon="0.60781">
        <ele>182.31</ele>
        <time>2012-07-22T09:47:24Z</time>
      </trkpt>
      <trkpt lat="44.29614" lon="0.60782">
        <ele>181.35</ele>
        <time>2012-07-22T09:48:02Z</time>
      </trkpt>
      <trkpt lat="44.29614" lon="0.6078">
        <ele>181.35</ele>
        <time>2012-07-22T09:48:37Z</time>
      </trkpt>
      <trkpt lat="44.29614" lon="0.6078">
        <ele>181.83</ele>
        <time>2012-07-22T09:49:10Z</time>
      </trkpt>
      <trkpt lat="44.29614" lon="0.6078">
        <ele>182.31</ele>
        <time>2012-07-22T09:49:48Z</time>
      </trkpt>
      <trkpt lat="44.29613" lon="0.6078">
        <ele>182.79</ele>
        <time>2012-07-22T09:50:22Z</time>
      </trkpt>
      <trkpt lat="44.29613" lon="0.60779">
        <ele>182.79</ele>
        <time>2012-07-22T09:50:56Z</time>
      </trkpt>
      <trkpt lat="44.29613" lon="0.60779">
        <ele>183.27</ele>
        <time>2012-07-22T09:51:30Z</time>
      </trkpt>
      <trkpt lat="44.29613" lon="0.60779">
        <ele>182.79</ele>
        <time>2012-07-22T09:52:07Z</time>
      </trkpt>
      <trkpt lat="44.29612" lon="0.60779">
        <ele>182.79</ele>
        <time>2012-07-22T09:52:39Z</time>
      </trkpt>
      <trkpt lat="44.29613" lon="0.60778">
        <ele>183.27</ele>
        <time>2012-07-22T09:53:14Z</time>
      </trkpt>
      <trkpt lat="44.29613" lon="0.60778">
        <ele>183.27</ele>
        <time>2012-07-22T09:53:43Z</time>
      </trkpt>
      <trkpt lat="44.29615" lon="0.60779">
        <ele>183.27</ele>
        <time>2012-07-22T09:54:01Z</time>
      </trkpt>
      <trkpt lat="44.29617" lon="0.6078">
        <ele>183.27</ele>
        <time>2012-07-22T09:54:08Z</time>
      </trkpt>
      <trkpt lat="44.29618" lon="0.60781">
        <ele>183.75</ele>
        <time>2012-07-22T09:54:09Z</time>
      </trkpt>
      <trkpt lat="44.29619" lon="0.60781">
        <ele>183.75</ele>
        <time>2012-07-22T09:54:10Z</time>
      </trkpt>
      <trkpt lat="44.29638" lon="0.60787">
        <ele>186.63</ele>
        <time>2012-07-22T09:54:21Z</time>
      </trkpt>
      <trkpt lat="44.29665" lon="0.60791">
        <ele>189.04</ele>
        <time>2012-07-22T09:54:38Z</time>
      </trkpt>
      <trkpt lat="44.29689" lon="0.60794">
        <ele>190.96</ele>
        <time>2012-07-22T09:54:52Z</time>
      </trkpt>
      <trkpt lat="44.29718" lon="0.60795">
        <ele>191.92</ele>
        <time>2012-07-22T09:55:05Z</time>
      </trkpt>
      <trkpt lat="44.29766" lon="0.608">
        <ele>192.88</ele>
        <time>2012-07-22T09:55:21Z</time>
      </trkpt>
      <trkpt lat="44.29825" lon="0.60805">
        <ele>193.36</ele>
        <time>2012-07-22T09:55:40Z</time>
      </trkpt>
      <trkpt lat="44.29868" lon="0.60829">
        <ele>193.84</ele>
        <time>2012-07-22T09:55:56Z</time>
      </trkpt>
      <trkpt lat="44.29897" lon="0.60853">
        <ele>195.77</ele>
        <time>2012-07-22T09:56:11Z</time>
      </trkpt>
      <trkpt lat="44.29924" lon="0.60837">
        <ele>195.77</ele>
        <time>2012-07-22T09:56:25Z</time>
      </trkpt>
      <trkpt lat="44.29965" lon="0.60793">
        <ele>195.28</ele>
        <time>2012-07-22T09:56:40Z</time>
      </trkpt>
      <trkpt lat="44.3002" lon="0.60736">
        <ele>191.92</ele>
        <time>2012-07-22T09:56:56Z</time>
      </trkpt>
      <trkpt lat="44.30057" lon="0.60699">
        <ele>188.56</ele>
        <time>2012-07-22T09:57:04Z</time>
      </trkpt>
      <trkpt lat="44.30062" lon="0.60696">
        <ele>188.08</ele>
        <time>2012-07-22T09:57:05Z</time>
      </trkpt>
      <trkpt lat="44.30069" lon="0.60695">
        <ele>187.59</ele>
        <time>2012-07-22T09:57:06Z</time>
      </trkpt>
      <trkpt lat="44.3008" lon="0.60692">
        <ele>188.08</ele>
        <time>2012-07-22T09:57:08Z</time>
      </trkpt>
      <trkpt lat="44.30086" lon="0.60689">
        <ele>187.59</ele>
        <time>2012-07-22T09:57:09Z</time>
      </trkpt>
      <trkpt lat="44.30091" lon="0.60685">
        <ele>187.59</ele>
        <time>2012-07-22T09:57:10Z</time>
      </trkpt>
      <trkpt lat="44.30095" lon="0.60681">
        <ele>187.59</ele>
        <time>2012-07-22T09:57:11Z</time>
      </trkpt>
      <trkpt lat="44.30099" lon="0.60677">
        <ele>187.59</ele>
        <time>2012-07-22T09:57:12Z</time>
      </trkpt>
      <trkpt lat="44.30106" lon="0.60668">
        <ele>187.59</ele>
        <time>2012-07-22T09:57:14Z</time>
      </trkpt>
      <trkpt lat="44.30141" lon="0.60641">
        <ele>189.52</ele>
        <time>2012-07-22T09:57:26Z</time>
      </trkpt>
      <trkpt lat="44.3018" lon="0.60622">
        <ele>190.48</ele>
        <time>2012-07-22T09:57:39Z</time>
      </trkpt>
      <trkpt lat="44.30213" lon="0.60605">
        <ele>191.44</ele>
        <time>2012-07-22T09:57:52Z</time>
      </trkpt>
      <trkpt lat="44.30243" lon="0.60589">
        <ele>191.92</ele>
        <time>2012-07-22T09:58:02Z</time>
      </trkpt>
      <trkpt lat="44.30293" lon="0.60581">
        <ele>192.88</ele>
        <time>2012-07-22T09:58:17Z</time>
      </trkpt>
      <trkpt lat="44.30326" lon="0.6058">
        <ele>191.92</ele>
        <time>2012-07-22T09:58:26Z</time>
      </trkpt>
      <trkpt lat="44.30386" lon="0.6058">
        <ele>191.44</ele>
        <time>2012-07-22T09:58:41Z</time>
      </trkpt>
      <trkpt lat="44.30444" lon="0.60605">
        <ele>189.52</ele>
        <time>2012-07-22T09:58:55Z</time>
      </trkpt>
      <trkpt lat="44.3045" lon="0.60607">
        <ele>189.04</ele>
        <time>2012-07-22T09:58:56Z</time>
      </trkpt>
      <trkpt lat="44.30493" lon="0.60614">
        <ele>186.63</ele>
        <time>2012-07-22T09:59:06Z</time>
      </trkpt>
      <trkpt lat="44.30524" lon="0.60621">
        <ele>183.27</ele>
        <time>2012-07-22T09:59:13Z</time>
      </trkpt>
      <trkpt lat="44.30541" lon="0.60627">
        <ele>182.79</ele>
        <time>2012-07-22T09:59:19Z</time>
      </trkpt>
      <trkpt lat="44.30543" lon="0.60625">
        <ele>182.79</ele>
        <time>2012-07-22T09:59:20Z</time>
      </trkpt>
      <trkpt lat="44.30545" lon="0.60623">
        <ele>182.79</ele>
        <time>2012-07-22T09:59:21Z</time>
      </trkpt>
      <trkpt lat="44.30547" lon="0.60621">
        <ele>182.31</ele>
        <time>2012-07-22T09:59:22Z</time>
      </trkpt>
      <trkpt lat="44.3055" lon="0.60618">
        <ele>182.31</ele>
        <time>2012-07-22T09:59:23Z</time>
      </trkpt>
      <trkpt lat="44.30554" lon="0.60616">
        <ele>182.31</ele>
        <time>2012-07-22T09:59:24Z</time>
      </trkpt>
      <trkpt lat="44.30557" lon="0.60614">
        <ele>182.31</ele>
        <time>2012-07-22T09:59:25Z</time>
      </trkpt>
      <trkpt lat="44.30561" lon="0.60614">
        <ele>182.31</ele>
        <time>2012-07-22T09:59:26Z</time>
      </trkpt>
      <trkpt lat="44.30563" lon="0.60613">
        <ele>183.27</ele>
        <time>2012-07-22T09:59:27Z</time>
      </trkpt>
      <trkpt lat="44.30594" lon="0.60608">
        <ele>185.19</ele>
        <time>2012-07-22T09:59:39Z</time>
      </trkpt>
      <trkpt lat="44.30627" lon="0.60608">
        <ele>187.11</ele>
        <time>2012-07-22T09:59:54Z</time>
      </trkpt>
      <trkpt lat="44.30628" lon="0.60609">
        <ele>187.11</ele>
        <time>2012-07-22T09:59:55Z</time>
      </trkpt>
      <trkpt lat="44.30629" lon="0.6061">
        <ele>187.11</ele>
        <time>2012-07-22T09:59:56Z</time>
      </trkpt>
      <trkpt lat="44.30632" lon="0.60613">
        <ele>187.11</ele>
        <time>2012-07-22T10:00:11Z</time>
      </trkpt>
      <trkpt lat="44.30632" lon="0.60613">
        <ele>190.48</ele>
        <time>2012-07-22T10:00:18Z</time>
      </trkpt>
      <trkpt lat="44.30632" lon="0.60613">
        <ele>189.52</ele>
        <time>2012-07-22T10:00:19Z</time>
      </trkpt>
      <trkpt lat="44.30632" lon="0.60612">
        <ele>182.31</ele>
        <time>2012-07-22T10:00:33Z</time>
      </trkpt>
      <trkpt lat="44.30632" lon="0.60612">
        <ele>188.08</ele>
        <time>2012-07-22T10:00:34Z</time>
      </trkpt>
      <trkpt lat="44.30631" lon="0.60612">
        <ele>187.59</ele>
        <time>2012-07-22T10:00:53Z</time>
      </trkpt>
      <trkpt lat="44.30631" lon="0.60613">
        <ele>187.59</ele>
        <time>2012-07-22T10:01:13Z</time>
      </trkpt>
      <trkpt lat="44.30629" lon="0.60617">
        <ele>187.59</ele>
        <time>2012-07-22T10:01:23Z</time>
      </trkpt>
      <trkpt lat="44.30628" lon="0.60618">
        <ele>187.59</ele>
        <time>2012-07-22T10:01:24Z</time>
      </trkpt>
      <trkpt lat="44.30624" lon="0.60624">
        <ele>187.59</ele>
        <time>2012-07-22T10:01:35Z</time>
      </trkpt>
      <trkpt lat="44.30625" lon="0.60625">
        <ele>187.59</ele>
        <time>2012-07-22T10:01:46Z</time>
      </trkpt>
      <trkpt lat="44.30623" lon="0.60628">
        <ele>187.59</ele>
        <time>2012-07-22T10:01:50Z</time>
      </trkpt>
      <trkpt lat="44.30624" lon="0.60629">
        <ele>187.59</ele>
        <time>2012-07-22T10:01:51Z</time>
      </trkpt>
      <trkpt lat="44.30625" lon="0.6063">
        <ele>187.59</ele>
        <time>2012-07-22T10:01:52Z</time>
      </trkpt>
      <trkpt lat="44.30628" lon="0.6063">
        <ele>187.59</ele>
        <time>2012-07-22T10:01:53Z</time>
      </trkpt>
      <trkpt lat="44.3063" lon="0.60629">
        <ele>187.59</ele>
        <time>2012-07-22T10:01:54Z</time>
      </trkpt>
      <trkpt lat="44.30632" lon="0.60626">
        <ele>187.59</ele>
        <time>2012-07-22T10:01:55Z</time>
      </trkpt>
      <trkpt lat="44.30634" lon="0.60622">
        <ele>187.59</ele>
        <time>2012-07-22T10:01:56Z</time>
      </trkpt>
      <trkpt lat="44.30636" lon="0.60617">
        <ele>187.59</ele>
        <time>2012-07-22T10:01:57Z</time>
      </trkpt>
      <trkpt lat="44.30648" lon="0.60586">
        <ele>187.11</ele>
        <time>2012-07-22T10:02:03Z</time>
      </trkpt>
      <trkpt lat="44.3065" lon="0.60581">
        <ele>187.59</ele>
        <time>2012-07-22T10:02:04Z</time>
      </trkpt>
      <trkpt lat="44.30652" lon="0.60575">
        <ele>187.11</ele>
        <time>2012-07-22T10:02:05Z</time>
      </trkpt>
      <trkpt lat="44.30654" lon="0.6057">
        <ele>187.59</ele>
        <time>2012-07-22T10:02:06Z</time>
      </trkpt>
      <trkpt lat="44.30656" lon="0.60565">
        <ele>187.59</ele>
        <time>2012-07-22T10:02:07Z</time>
      </trkpt>
      <trkpt lat="44.30659" lon="0.6056">
        <ele>187.59</ele>
        <time>2012-07-22T10:02:08Z</time>
      </trkpt>
      <trkpt lat="44.30661" lon="0.60555">
        <ele>187.59</ele>
        <time>2012-07-22T10:02:09Z</time>
      </trkpt>
      <trkpt lat="44.3066" lon="0.60549">
        <ele>187.59</ele>
        <time>2012-07-22T10:02:10Z</time>
      </trkpt>
      <trkpt lat="44.30658" lon="0.60544">
        <ele>188.08</ele>
        <time>2012-07-22T10:02:11Z</time>
      </trkpt>
      <trkpt lat="44.30656" lon="0.6054">
        <ele>188.08</ele>
        <time>2012-07-22T10:02:12Z</time>
      </trkpt>
      <trkpt lat="44.30654" lon="0.60536">
        <ele>188.56</ele>
        <time>2012-07-22T10:02:13Z</time>
      </trkpt>
      <trkpt lat="44.30652" lon="0.60529">
        <ele>189.04</ele>
        <time>2012-07-22T10:02:15Z</time>
      </trkpt>
      <trkpt lat="44.30652" lon="0.60526">
        <ele>188.56</ele>
        <time>2012-07-22T10:02:16Z</time>
      </trkpt>
      <trkpt lat="44.30653" lon="0.60523">
        <ele>188.56</ele>
        <time>2012-07-22T10:02:17Z</time>
      </trkpt>
      <trkpt lat="44.30654" lon="0.6052">
        <ele>188.56</ele>
        <time>2012-07-22T10:02:18Z</time>
      </trkpt>
      <trkpt lat="44.30656" lon="0.60518">
        <ele>188.56</ele>
        <time>2012-07-22T10:02:19Z</time>
      </trkpt>
      <trkpt lat="44.30657" lon="0.60515">
        <ele>189.04</ele>
        <time>2012-07-22T10:02:20Z</time>
      </trkpt>
      <trkpt lat="44.30657" lon="0.60513">
        <ele>189.04</ele>
        <time>2012-07-22T10:02:21Z</time>
      </trkpt>
      <trkpt lat="44.30656" lon="0.60511">
        <ele>189.04</ele>
        <time>2012-07-22T10:02:22Z</time>
      </trkpt>
      <trkpt lat="44.30654" lon="0.6051">
        <ele>188.56</ele>
        <time>2012-07-22T10:02:23Z</time>
      </trkpt>
      <trkpt lat="44.30652" lon="0.60511">
        <ele>188.56</ele>
        <time>2012-07-22T10:02:24Z</time>
      </trkpt>
      <trkpt lat="44.30651" lon="0.60514">
        <ele>188.56</ele>
        <time>2012-07-22T10:02:25Z</time>
      </trkpt>
      <trkpt lat="44.30651" lon="0.60519">
        <ele>188.56</ele>
        <time>2012-07-22T10:02:26Z</time>
      </trkpt>
      <trkpt lat="44.30653" lon="0.60535">
        <ele>188.08</ele>
        <time>2012-07-22T10:02:29Z</time>
      </trkpt>
      <trkpt lat="44.30655" lon="0.6054">
        <ele>188.08</ele>
        <time>2012-07-22T10:02:30Z</time>
      </trkpt>
      <trkpt lat="44.30658" lon="0.60544">
        <ele>188.08</ele>
        <time>2012-07-22T10:02:31Z</time>
      </trkpt>
      <trkpt lat="44.30659" lon="0.6055">
        <ele>187.59</ele>
        <time>2012-07-22T10:02:32Z</time>
      </trkpt>
      <trkpt lat="44.30658" lon="0.60556">
        <ele>187.59</ele>
        <time>2012-07-22T10:02:33Z</time>
      </trkpt>
      <trkpt lat="44.30656" lon="0.60563">
        <ele>187.59</ele>
        <time>2012-07-22T10:02:34Z</time>
      </trkpt>
      <trkpt lat="44.30654" lon="0.60568">
        <ele>187.11</ele>
        <time>2012-07-22T10:02:35Z</time>
      </trkpt>
      <trkpt lat="44.30652" lon="0.60574">
        <ele>187.11</ele>
        <time>2012-07-22T10:02:36Z</time>
      </trkpt>
      <trkpt lat="44.30647" lon="0.60585">
        <ele>187.11</ele>
        <time>2012-07-22T10:02:38Z</time>
      </trkpt>
      <trkpt lat="44.30644" lon="0.60591">
        <ele>187.11</ele>
        <time>2012-07-22T10:02:39Z</time>
      </trkpt>
      <trkpt lat="44.30642" lon="0.60596">
        <ele>187.11</ele>
        <time>2012-07-22T10:02:40Z</time>
      </trkpt>
      <trkpt lat="44.3064" lon="0.60601">
        <ele>187.11</ele>
        <time>2012-07-22T10:02:41Z</time>
      </trkpt>
      <trkpt lat="44.30638" lon="0.60606">
        <ele>187.11</ele>
        <time>2012-07-22T10:02:42Z</time>
      </trkpt>
      <trkpt lat="44.30621" lon="0.60642">
        <ele>187.59</ele>
        <time>2012-07-22T10:02:51Z</time>
      </trkpt>
      <trkpt lat="44.3062" lon="0.60641">
        <ele>187.59</ele>
        <time>2012-07-22T10:02:52Z</time>
      </trkpt>
      <trkpt lat="44.30618" lon="0.60638">
        <ele>187.59</ele>
        <time>2012-07-22T10:02:53Z</time>
      </trkpt>
      <trkpt lat="44.30617" lon="0.60635">
        <ele>187.59</ele>
        <time>2012-07-22T10:02:54Z</time>
      </trkpt>
      <trkpt lat="44.30616" lon="0.60632">
        <ele>187.59</ele>
        <time>2012-07-22T10:02:55Z</time>
      </trkpt>
      <trkpt lat="44.30617" lon="0.60628">
        <ele>187.59</ele>
        <time>2012-07-22T10:02:56Z</time>
      </trkpt>
      <trkpt lat="44.30618" lon="0.60625">
        <ele>187.59</ele>
        <time>2012-07-22T10:02:57Z</time>
      </trkpt>
      <trkpt lat="44.3062" lon="0.60623">
        <ele>188.08</ele>
        <time>2012-07-22T10:02:58Z</time>
      </trkpt>
      <trkpt lat="44.30621" lon="0.60621">
        <ele>187.59</ele>
        <time>2012-07-22T10:02:59Z</time>
      </trkpt>
      <trkpt lat="44.30621" lon="0.6062">
        <ele>188.08</ele>
        <time>2012-07-22T10:03:09Z</time>
      </trkpt>
      <trkpt lat="44.30621" lon="0.6062">
        <ele>187.59</ele>
        <time>2012-07-22T10:03:26Z</time>
      </trkpt>
      <trkpt lat="44.3062" lon="0.6062">
        <ele>188.56</ele>
        <time>2012-07-22T10:03:43Z</time>
      </trkpt>
      <trkpt lat="44.3062" lon="0.60619">
        <ele>185.19</ele>
        <time>2012-07-22T10:04:04Z</time>
      </trkpt>
      <trkpt lat="44.3062" lon="0.60619">
        <ele>186.15</ele>
        <time>2012-07-22T10:04:05Z</time>
      </trkpt>
      <trkpt lat="44.3062" lon="0.60619">
        <ele>188.08</ele>
        <time>2012-07-22T10:04:08Z</time>
      </trkpt>
    </trkseg>
  </trk>
</gpx>